<?xml version="1.0" encoding="UTF-8" standalone="no" ?>
<gpx xmlns="http://www.topografix.com/GPX/1/1" xmlns:xsi="http://www.w3.org/2001/XMLSchema-instance" xsi:schemaLocation="http://www.topografix.com/GPX/1/1 http://www.topografix.com/GPX/1/1/gpx.xsd" version="1.1" creator="VisuGPX - https://www.visugpx.com">
  <metadata>
    <name>Vacances Avril 2019 Grenoble Camargue</name>
    <desc><![CDATA[Deuxième partie du voyage après le but dans le Nord, direction le Sud. 
Pas de pluie mais Mistral d'enfer]]></desc>
  </metadata>
  <trk>
    <name><![CDATA[20190502221855-rGymn]]></name>
    <trkseg>
      <trkpt lat="44.08866" lon="5.411">
        <ele>735.582</ele>
        <time>2019-04-28T08:04:22Z</time>
      </trkpt>
      <trkpt lat="44.08859" lon="5.41113">
        <ele>786.733</ele>
        <time>2019-04-28T08:04:32Z</time>
      </trkpt>
      <trkpt lat="44.08856" lon="5.4111">
        <ele>787.103</ele>
        <time>2019-04-28T08:04:43Z</time>
      </trkpt>
      <trkpt lat="44.08852" lon="5.41111">
        <ele>788.753</ele>
        <time>2019-04-28T08:04:54Z</time>
      </trkpt>
      <trkpt lat="44.08855" lon="5.4111">
        <ele>789.27</ele>
        <time>2019-04-28T08:05:04Z</time>
      </trkpt>
      <trkpt lat="44.08858" lon="5.41111">
        <ele>789.396</ele>
        <time>2019-04-28T08:05:14Z</time>
      </trkpt>
      <trkpt lat="44.08859" lon="5.41111">
        <ele>789.435</ele>
        <time>2019-04-28T08:05:25Z</time>
      </trkpt>
      <trkpt lat="44.08873" lon="5.41111">
        <ele>790.088</ele>
        <time>2019-04-28T08:05:36Z</time>
      </trkpt>
      <trkpt lat="44.08914" lon="5.41086">
        <ele>786.673</ele>
        <time>2019-04-28T08:05:46Z</time>
      </trkpt>
      <trkpt lat="44.08959" lon="5.40977">
        <ele>783.042</ele>
        <time>2019-04-28T08:05:57Z</time>
      </trkpt>
      <trkpt lat="44.08981" lon="5.40893">
        <ele>778.684</ele>
        <time>2019-04-28T08:06:08Z</time>
      </trkpt>
      <trkpt lat="44.08982" lon="5.40797">
        <ele>775.533</ele>
        <time>2019-04-28T08:06:18Z</time>
      </trkpt>
      <trkpt lat="44.08989" lon="5.40684">
        <ele>772.889</ele>
        <time>2019-04-28T08:06:28Z</time>
      </trkpt>
      <trkpt lat="44.09059" lon="5.40602">
        <ele>770.027</ele>
        <time>2019-04-28T08:06:39Z</time>
      </trkpt>
      <trkpt lat="44.09093" lon="5.40473">
        <ele>766.635</ele>
        <time>2019-04-28T08:06:50Z</time>
      </trkpt>
      <trkpt lat="44.09137" lon="5.40369">
        <ele>763.763</ele>
        <time>2019-04-28T08:07:00Z</time>
      </trkpt>
      <trkpt lat="44.09182" lon="5.40268">
        <ele>759.71</ele>
        <time>2019-04-28T08:07:11Z</time>
      </trkpt>
      <trkpt lat="44.09221" lon="5.40178">
        <ele>756.575</ele>
        <time>2019-04-28T08:07:22Z</time>
      </trkpt>
      <trkpt lat="44.09253" lon="5.40103">
        <ele>754.304</ele>
        <time>2019-04-28T08:07:32Z</time>
      </trkpt>
      <trkpt lat="44.09287" lon="5.40021">
        <ele>751.424</ele>
        <time>2019-04-28T08:07:42Z</time>
      </trkpt>
      <trkpt lat="44.09332" lon="5.39946">
        <ele>747.805</ele>
        <time>2019-04-28T08:07:52Z</time>
      </trkpt>
      <trkpt lat="44.09365" lon="5.39881">
        <ele>743.869</ele>
        <time>2019-04-28T08:08:03Z</time>
      </trkpt>
      <trkpt lat="44.09378" lon="5.39815">
        <ele>741.895</ele>
        <time>2019-04-28T08:08:13Z</time>
      </trkpt>
      <trkpt lat="44.09381" lon="5.39756">
        <ele>742.163</ele>
        <time>2019-04-28T08:08:24Z</time>
      </trkpt>
      <trkpt lat="44.09385" lon="5.39704">
        <ele>741.714</ele>
        <time>2019-04-28T08:08:35Z</time>
      </trkpt>
      <trkpt lat="44.09389" lon="5.39651">
        <ele>740.558</ele>
        <time>2019-04-28T08:08:45Z</time>
      </trkpt>
      <trkpt lat="44.09382" lon="5.39564">
        <ele>737.368</ele>
        <time>2019-04-28T08:08:56Z</time>
      </trkpt>
      <trkpt lat="44.09382" lon="5.39477">
        <ele>735.08</ele>
        <time>2019-04-28T08:09:07Z</time>
      </trkpt>
      <trkpt lat="44.09377" lon="5.39394">
        <ele>734.38</ele>
        <time>2019-04-28T08:09:18Z</time>
      </trkpt>
      <trkpt lat="44.09375" lon="5.39305">
        <ele>734.355</ele>
        <time>2019-04-28T08:09:29Z</time>
      </trkpt>
      <trkpt lat="44.09369" lon="5.39224">
        <ele>734.203</ele>
        <time>2019-04-28T08:09:39Z</time>
      </trkpt>
      <trkpt lat="44.0936" lon="5.39136">
        <ele>734.683</ele>
        <time>2019-04-28T08:09:50Z</time>
      </trkpt>
      <trkpt lat="44.09353" lon="5.3906">
        <ele>735.03</ele>
        <time>2019-04-28T08:10:00Z</time>
      </trkpt>
      <trkpt lat="44.09348" lon="5.38986">
        <ele>733.347</ele>
        <time>2019-04-28T08:10:11Z</time>
      </trkpt>
      <trkpt lat="44.09343" lon="5.38904">
        <ele>733.448</ele>
        <time>2019-04-28T08:10:22Z</time>
      </trkpt>
      <trkpt lat="44.09338" lon="5.38829">
        <ele>734.204</ele>
        <time>2019-04-28T08:10:33Z</time>
      </trkpt>
      <trkpt lat="44.09331" lon="5.3876">
        <ele>734.922</ele>
        <time>2019-04-28T08:10:43Z</time>
      </trkpt>
      <trkpt lat="44.09324" lon="5.38681">
        <ele>734.61</ele>
        <time>2019-04-28T08:10:54Z</time>
      </trkpt>
      <trkpt lat="44.09314" lon="5.38604">
        <ele>734.312</ele>
        <time>2019-04-28T08:11:05Z</time>
      </trkpt>
      <trkpt lat="44.09275" lon="5.3855">
        <ele>732.575</ele>
        <time>2019-04-28T08:11:15Z</time>
      </trkpt>
      <trkpt lat="44.09225" lon="5.38458">
        <ele>729.632</ele>
        <time>2019-04-28T08:11:26Z</time>
      </trkpt>
      <trkpt lat="44.09179" lon="5.3837">
        <ele>728.326</ele>
        <time>2019-04-28T08:11:36Z</time>
      </trkpt>
      <trkpt lat="44.09135" lon="5.38293">
        <ele>727.326</ele>
        <time>2019-04-28T08:11:46Z</time>
      </trkpt>
      <trkpt lat="44.09077" lon="5.38227">
        <ele>726.122</ele>
        <time>2019-04-28T08:11:57Z</time>
      </trkpt>
      <trkpt lat="44.09021" lon="5.38166">
        <ele>725.264</ele>
        <time>2019-04-28T08:12:08Z</time>
      </trkpt>
      <trkpt lat="44.08968" lon="5.38107">
        <ele>724.698</ele>
        <time>2019-04-28T08:12:19Z</time>
      </trkpt>
      <trkpt lat="44.08909" lon="5.38062">
        <ele>723.859</ele>
        <time>2019-04-28T08:12:30Z</time>
      </trkpt>
      <trkpt lat="44.08843" lon="5.38031">
        <ele>723.725</ele>
        <time>2019-04-28T08:12:41Z</time>
      </trkpt>
      <trkpt lat="44.08781" lon="5.3799">
        <ele>723.352</ele>
        <time>2019-04-28T08:12:52Z</time>
      </trkpt>
      <trkpt lat="44.08719" lon="5.37947">
        <ele>722.786</ele>
        <time>2019-04-28T08:13:03Z</time>
      </trkpt>
      <trkpt lat="44.08656" lon="5.37902">
        <ele>722.151</ele>
        <time>2019-04-28T08:13:14Z</time>
      </trkpt>
      <trkpt lat="44.08597" lon="5.3785">
        <ele>721.523</ele>
        <time>2019-04-28T08:13:25Z</time>
      </trkpt>
      <trkpt lat="44.08547" lon="5.37789">
        <ele>720.944</ele>
        <time>2019-04-28T08:13:36Z</time>
      </trkpt>
      <trkpt lat="44.08492" lon="5.37751">
        <ele>720.838</ele>
        <time>2019-04-28T08:13:46Z</time>
      </trkpt>
      <trkpt lat="44.08429" lon="5.37713">
        <ele>720.904</ele>
        <time>2019-04-28T08:13:57Z</time>
      </trkpt>
      <trkpt lat="44.08369" lon="5.37657">
        <ele>720.602</ele>
        <time>2019-04-28T08:14:08Z</time>
      </trkpt>
      <trkpt lat="44.08308" lon="5.376">
        <ele>719.979</ele>
        <time>2019-04-28T08:14:18Z</time>
      </trkpt>
      <trkpt lat="44.08243" lon="5.37538">
        <ele>719.437</ele>
        <time>2019-04-28T08:14:28Z</time>
      </trkpt>
      <trkpt lat="44.08178" lon="5.37453">
        <ele>718.341</ele>
        <time>2019-04-28T08:14:39Z</time>
      </trkpt>
      <trkpt lat="44.0811" lon="5.3739">
        <ele>716.992</ele>
        <time>2019-04-28T08:14:49Z</time>
      </trkpt>
      <trkpt lat="44.08027" lon="5.37353">
        <ele>715.544</ele>
        <time>2019-04-28T08:15:00Z</time>
      </trkpt>
      <trkpt lat="44.07956" lon="5.37322">
        <ele>714.146</ele>
        <time>2019-04-28T08:15:10Z</time>
      </trkpt>
      <trkpt lat="44.07876" lon="5.37277">
        <ele>712.75</ele>
        <time>2019-04-28T08:15:21Z</time>
      </trkpt>
      <trkpt lat="44.07799" lon="5.37235">
        <ele>711.219</ele>
        <time>2019-04-28T08:15:31Z</time>
      </trkpt>
      <trkpt lat="44.07717" lon="5.37168">
        <ele>707.588</ele>
        <time>2019-04-28T08:15:42Z</time>
      </trkpt>
      <trkpt lat="44.07627" lon="5.37106">
        <ele>704.283</ele>
        <time>2019-04-28T08:15:53Z</time>
      </trkpt>
      <trkpt lat="44.0754" lon="5.3705">
        <ele>701.787</ele>
        <time>2019-04-28T08:16:03Z</time>
      </trkpt>
      <trkpt lat="44.07477" lon="5.36937">
        <ele>699.554</ele>
        <time>2019-04-28T08:16:14Z</time>
      </trkpt>
      <trkpt lat="44.07418" lon="5.36851">
        <ele>697.975</ele>
        <time>2019-04-28T08:16:24Z</time>
      </trkpt>
      <trkpt lat="44.07361" lon="5.36768">
        <ele>696.451</ele>
        <time>2019-04-28T08:16:34Z</time>
      </trkpt>
      <trkpt lat="44.07299" lon="5.36691">
        <ele>695.243</ele>
        <time>2019-04-28T08:16:45Z</time>
      </trkpt>
      <trkpt lat="44.07234" lon="5.36614">
        <ele>694.398</ele>
        <time>2019-04-28T08:16:56Z</time>
      </trkpt>
      <trkpt lat="44.07172" lon="5.36542">
        <ele>693.672</ele>
        <time>2019-04-28T08:17:06Z</time>
      </trkpt>
      <trkpt lat="44.0711" lon="5.36466">
        <ele>692.243</ele>
        <time>2019-04-28T08:17:17Z</time>
      </trkpt>
      <trkpt lat="44.07057" lon="5.36395">
        <ele>690.564</ele>
        <time>2019-04-28T08:17:27Z</time>
      </trkpt>
      <trkpt lat="44.06997" lon="5.36316">
        <ele>689.635</ele>
        <time>2019-04-28T08:17:38Z</time>
      </trkpt>
      <trkpt lat="44.06939" lon="5.36244">
        <ele>689.89</ele>
        <time>2019-04-28T08:17:49Z</time>
      </trkpt>
      <trkpt lat="44.06893" lon="5.36192">
        <ele>689.509</ele>
        <time>2019-04-28T08:18:00Z</time>
      </trkpt>
      <trkpt lat="44.06859" lon="5.36151">
        <ele>688.27</ele>
        <time>2019-04-28T08:18:10Z</time>
      </trkpt>
      <trkpt lat="44.06822" lon="5.36109">
        <ele>687.302</ele>
        <time>2019-04-28T08:18:21Z</time>
      </trkpt>
      <trkpt lat="44.06785" lon="5.36076">
        <ele>687.216</ele>
        <time>2019-04-28T08:18:31Z</time>
      </trkpt>
      <trkpt lat="44.06752" lon="5.36043">
        <ele>687.439</ele>
        <time>2019-04-28T08:18:42Z</time>
      </trkpt>
      <trkpt lat="44.06724" lon="5.36007">
        <ele>687.806</ele>
        <time>2019-04-28T08:18:52Z</time>
      </trkpt>
      <trkpt lat="44.067" lon="5.35974">
        <ele>688.126</ele>
        <time>2019-04-28T08:19:03Z</time>
      </trkpt>
      <trkpt lat="44.0668" lon="5.35937">
        <ele>688.438</ele>
        <time>2019-04-28T08:19:14Z</time>
      </trkpt>
      <trkpt lat="44.06648" lon="5.35896">
        <ele>688.477</ele>
        <time>2019-04-28T08:19:25Z</time>
      </trkpt>
      <trkpt lat="44.06624" lon="5.35862">
        <ele>689.432</ele>
        <time>2019-04-28T08:19:35Z</time>
      </trkpt>
      <trkpt lat="44.06601" lon="5.35829">
        <ele>691.422</ele>
        <time>2019-04-28T08:19:46Z</time>
      </trkpt>
      <trkpt lat="44.06572" lon="5.35805">
        <ele>693.644</ele>
        <time>2019-04-28T08:19:57Z</time>
      </trkpt>
      <trkpt lat="44.06549" lon="5.35779">
        <ele>695.7</ele>
        <time>2019-04-28T08:20:07Z</time>
      </trkpt>
      <trkpt lat="44.06525" lon="5.35755">
        <ele>697.27</ele>
        <time>2019-04-28T08:20:18Z</time>
      </trkpt>
      <trkpt lat="44.06518" lon="5.3575">
        <ele>697.96</ele>
        <time>2019-04-28T08:20:28Z</time>
      </trkpt>
      <trkpt lat="44.06514" lon="5.35747">
        <ele>698.079</ele>
        <time>2019-04-28T08:20:38Z</time>
      </trkpt>
      <trkpt lat="44.06514" lon="5.35747">
        <ele>698.3</ele>
        <time>2019-04-28T08:20:49Z</time>
      </trkpt>
      <trkpt lat="44.06514" lon="5.35747">
        <ele>698.408</ele>
        <time>2019-04-28T08:20:59Z</time>
      </trkpt>
      <trkpt lat="44.0651" lon="5.35745">
        <ele>698.553</ele>
        <time>2019-04-28T08:21:10Z</time>
      </trkpt>
      <trkpt lat="44.0651" lon="5.35745">
        <ele>698.714</ele>
        <time>2019-04-28T08:21:21Z</time>
      </trkpt>
      <trkpt lat="44.0651" lon="5.35745">
        <ele>698.886</ele>
        <time>2019-04-28T08:21:32Z</time>
      </trkpt>
      <trkpt lat="44.0651" lon="5.35745">
        <ele>699.068</ele>
        <time>2019-04-28T08:21:43Z</time>
      </trkpt>
      <trkpt lat="44.0651" lon="5.35745">
        <ele>699.259</ele>
        <time>2019-04-28T08:21:54Z</time>
      </trkpt>
      <trkpt lat="44.0651" lon="5.35745">
        <ele>699.765</ele>
        <time>2019-04-28T08:22:05Z</time>
      </trkpt>
      <trkpt lat="44.065" lon="5.35743">
        <ele>700.798</ele>
        <time>2019-04-28T08:22:16Z</time>
      </trkpt>
      <trkpt lat="44.06476" lon="5.35717">
        <ele>702.076</ele>
        <time>2019-04-28T08:22:27Z</time>
      </trkpt>
      <trkpt lat="44.06471" lon="5.35715">
        <ele>702.585</ele>
        <time>2019-04-28T08:22:37Z</time>
      </trkpt>
      <trkpt lat="44.06448" lon="5.357">
        <ele>704.217</ele>
        <time>2019-04-28T08:22:48Z</time>
      </trkpt>
      <trkpt lat="44.06411" lon="5.35688">
        <ele>706.114</ele>
        <time>2019-04-28T08:22:59Z</time>
      </trkpt>
      <trkpt lat="44.06372" lon="5.35682">
        <ele>708.343</ele>
        <time>2019-04-28T08:23:10Z</time>
      </trkpt>
      <trkpt lat="44.06339" lon="5.35676">
        <ele>710.036</ele>
        <time>2019-04-28T08:23:20Z</time>
      </trkpt>
      <trkpt lat="44.06302" lon="5.35672">
        <ele>711.357</ele>
        <time>2019-04-28T08:23:31Z</time>
      </trkpt>
      <trkpt lat="44.06269" lon="5.35669">
        <ele>712.241</ele>
        <time>2019-04-28T08:23:41Z</time>
      </trkpt>
      <trkpt lat="44.06233" lon="5.35662">
        <ele>713.006</ele>
        <time>2019-04-28T08:23:52Z</time>
      </trkpt>
      <trkpt lat="44.06202" lon="5.35642">
        <ele>713.288</ele>
        <time>2019-04-28T08:24:02Z</time>
      </trkpt>
      <trkpt lat="44.06177" lon="5.35614">
        <ele>713.363</ele>
        <time>2019-04-28T08:24:13Z</time>
      </trkpt>
      <trkpt lat="44.0615" lon="5.35583">
        <ele>713.436</ele>
        <time>2019-04-28T08:24:24Z</time>
      </trkpt>
      <trkpt lat="44.06131" lon="5.35557">
        <ele>713.805</ele>
        <time>2019-04-28T08:24:34Z</time>
      </trkpt>
      <trkpt lat="44.06106" lon="5.3553">
        <ele>714.075</ele>
        <time>2019-04-28T08:24:45Z</time>
      </trkpt>
      <trkpt lat="44.06076" lon="5.35509">
        <ele>714.908</ele>
        <time>2019-04-28T08:24:56Z</time>
      </trkpt>
      <trkpt lat="44.06047" lon="5.35489">
        <ele>715.847</ele>
        <time>2019-04-28T08:25:07Z</time>
      </trkpt>
      <trkpt lat="44.06018" lon="5.35467">
        <ele>716.758</ele>
        <time>2019-04-28T08:25:17Z</time>
      </trkpt>
      <trkpt lat="44.05992" lon="5.35444">
        <ele>717.578</ele>
        <time>2019-04-28T08:25:27Z</time>
      </trkpt>
      <trkpt lat="44.05971" lon="5.35414">
        <ele>718.377</ele>
        <time>2019-04-28T08:25:37Z</time>
      </trkpt>
      <trkpt lat="44.0595" lon="5.35382">
        <ele>719.148</ele>
        <time>2019-04-28T08:25:48Z</time>
      </trkpt>
      <trkpt lat="44.0593" lon="5.35356">
        <ele>719.784</ele>
        <time>2019-04-28T08:25:58Z</time>
      </trkpt>
      <trkpt lat="44.05907" lon="5.35337">
        <ele>720.945</ele>
        <time>2019-04-28T08:26:09Z</time>
      </trkpt>
      <trkpt lat="44.05881" lon="5.35326">
        <ele>721.802</ele>
        <time>2019-04-28T08:26:19Z</time>
      </trkpt>
      <trkpt lat="44.05846" lon="5.35321">
        <ele>722.775</ele>
        <time>2019-04-28T08:26:30Z</time>
      </trkpt>
      <trkpt lat="44.0581" lon="5.35315">
        <ele>724.335</ele>
        <time>2019-04-28T08:26:41Z</time>
      </trkpt>
      <trkpt lat="44.05784" lon="5.35298">
        <ele>725.72</ele>
        <time>2019-04-28T08:26:51Z</time>
      </trkpt>
      <trkpt lat="44.05759" lon="5.35279">
        <ele>726.539</ele>
        <time>2019-04-28T08:27:01Z</time>
      </trkpt>
      <trkpt lat="44.05725" lon="5.35277">
        <ele>727.47</ele>
        <time>2019-04-28T08:27:12Z</time>
      </trkpt>
      <trkpt lat="44.05696" lon="5.35282">
        <ele>728.73</ele>
        <time>2019-04-28T08:27:22Z</time>
      </trkpt>
      <trkpt lat="44.05667" lon="5.35278">
        <ele>729.942</ele>
        <time>2019-04-28T08:27:32Z</time>
      </trkpt>
      <trkpt lat="44.05638" lon="5.35257">
        <ele>731.067</ele>
        <time>2019-04-28T08:27:43Z</time>
      </trkpt>
      <trkpt lat="44.05614" lon="5.3523">
        <ele>732.177</ele>
        <time>2019-04-28T08:27:53Z</time>
      </trkpt>
      <trkpt lat="44.05591" lon="5.35196">
        <ele>733.377</ele>
        <time>2019-04-28T08:28:04Z</time>
      </trkpt>
      <trkpt lat="44.05584" lon="5.35156">
        <ele>734.465</ele>
        <time>2019-04-28T08:28:14Z</time>
      </trkpt>
      <trkpt lat="44.05569" lon="5.35118">
        <ele>735.199</ele>
        <time>2019-04-28T08:28:24Z</time>
      </trkpt>
      <trkpt lat="44.05541" lon="5.35111">
        <ele>735.943</ele>
        <time>2019-04-28T08:28:34Z</time>
      </trkpt>
      <trkpt lat="44.05509" lon="5.35097">
        <ele>736.635</ele>
        <time>2019-04-28T08:28:45Z</time>
      </trkpt>
      <trkpt lat="44.05482" lon="5.35072">
        <ele>737.581</ele>
        <time>2019-04-28T08:28:56Z</time>
      </trkpt>
      <trkpt lat="44.05454" lon="5.3504">
        <ele>738.424</ele>
        <time>2019-04-28T08:29:06Z</time>
      </trkpt>
      <trkpt lat="44.05429" lon="5.35006">
        <ele>739.798</ele>
        <time>2019-04-28T08:29:16Z</time>
      </trkpt>
      <trkpt lat="44.05398" lon="5.34973">
        <ele>739.728</ele>
        <time>2019-04-28T08:29:27Z</time>
      </trkpt>
      <trkpt lat="44.05367" lon="5.34942">
        <ele>740.589</ele>
        <time>2019-04-28T08:29:37Z</time>
      </trkpt>
      <trkpt lat="44.05351" lon="5.34895">
        <ele>742.31</ele>
        <time>2019-04-28T08:29:48Z</time>
      </trkpt>
      <trkpt lat="44.05338" lon="5.34851">
        <ele>743.458</ele>
        <time>2019-04-28T08:29:58Z</time>
      </trkpt>
      <trkpt lat="44.05324" lon="5.34806">
        <ele>745.212</ele>
        <time>2019-04-28T08:30:09Z</time>
      </trkpt>
      <trkpt lat="44.05316" lon="5.34761">
        <ele>746.373</ele>
        <time>2019-04-28T08:30:20Z</time>
      </trkpt>
      <trkpt lat="44.05297" lon="5.34723">
        <ele>748.022</ele>
        <time>2019-04-28T08:30:30Z</time>
      </trkpt>
      <trkpt lat="44.05266" lon="5.34707">
        <ele>749.472</ele>
        <time>2019-04-28T08:30:41Z</time>
      </trkpt>
      <trkpt lat="44.05237" lon="5.34689">
        <ele>750.532</ele>
        <time>2019-04-28T08:30:51Z</time>
      </trkpt>
      <trkpt lat="44.05205" lon="5.34666">
        <ele>751.594</ele>
        <time>2019-04-28T08:31:02Z</time>
      </trkpt>
      <trkpt lat="44.05181" lon="5.34637">
        <ele>752.669</ele>
        <time>2019-04-28T08:31:13Z</time>
      </trkpt>
      <trkpt lat="44.05175" lon="5.34594">
        <ele>753.594</ele>
        <time>2019-04-28T08:31:24Z</time>
      </trkpt>
      <trkpt lat="44.05181" lon="5.34553">
        <ele>754.828</ele>
        <time>2019-04-28T08:31:35Z</time>
      </trkpt>
      <trkpt lat="44.05195" lon="5.34523">
        <ele>755.803</ele>
        <time>2019-04-28T08:31:45Z</time>
      </trkpt>
      <trkpt lat="44.05209" lon="5.34487">
        <ele>756.656</ele>
        <time>2019-04-28T08:31:56Z</time>
      </trkpt>
      <trkpt lat="44.05198" lon="5.3445">
        <ele>758.417</ele>
        <time>2019-04-28T08:32:07Z</time>
      </trkpt>
      <trkpt lat="44.05175" lon="5.34425">
        <ele>759.778</ele>
        <time>2019-04-28T08:32:18Z</time>
      </trkpt>
      <trkpt lat="44.05144" lon="5.34416">
        <ele>760.887</ele>
        <time>2019-04-28T08:32:29Z</time>
      </trkpt>
      <trkpt lat="44.05115" lon="5.34413">
        <ele>762.302</ele>
        <time>2019-04-28T08:32:39Z</time>
      </trkpt>
      <trkpt lat="44.05082" lon="5.34398">
        <ele>764.465</ele>
        <time>2019-04-28T08:32:50Z</time>
      </trkpt>
      <trkpt lat="44.05061" lon="5.34373">
        <ele>765.677</ele>
        <time>2019-04-28T08:33:00Z</time>
      </trkpt>
      <trkpt lat="44.05046" lon="5.34338">
        <ele>766.818</ele>
        <time>2019-04-28T08:33:11Z</time>
      </trkpt>
      <trkpt lat="44.05024" lon="5.34319">
        <ele>767.51</ele>
        <time>2019-04-28T08:33:21Z</time>
      </trkpt>
      <trkpt lat="44.04991" lon="5.34309">
        <ele>767.719</ele>
        <time>2019-04-28T08:33:31Z</time>
      </trkpt>
      <trkpt lat="44.04963" lon="5.34283">
        <ele>768.42</ele>
        <time>2019-04-28T08:33:42Z</time>
      </trkpt>
      <trkpt lat="44.04942" lon="5.34252">
        <ele>769.548</ele>
        <time>2019-04-28T08:33:53Z</time>
      </trkpt>
      <trkpt lat="44.04917" lon="5.34225">
        <ele>770.884</ele>
        <time>2019-04-28T08:34:04Z</time>
      </trkpt>
      <trkpt lat="44.04882" lon="5.34214">
        <ele>771.485</ele>
        <time>2019-04-28T08:34:15Z</time>
      </trkpt>
      <trkpt lat="44.04848" lon="5.34209">
        <ele>772.477</ele>
        <time>2019-04-28T08:34:26Z</time>
      </trkpt>
      <trkpt lat="44.04813" lon="5.34204">
        <ele>774.28</ele>
        <time>2019-04-28T08:34:37Z</time>
      </trkpt>
      <trkpt lat="44.0478" lon="5.34185">
        <ele>775.506</ele>
        <time>2019-04-28T08:34:48Z</time>
      </trkpt>
      <trkpt lat="44.04751" lon="5.34164">
        <ele>776.549</ele>
        <time>2019-04-28T08:34:58Z</time>
      </trkpt>
      <trkpt lat="44.0472" lon="5.34139">
        <ele>777.943</ele>
        <time>2019-04-28T08:35:09Z</time>
      </trkpt>
      <trkpt lat="44.04695" lon="5.34107">
        <ele>779.245</ele>
        <time>2019-04-28T08:35:20Z</time>
      </trkpt>
      <trkpt lat="44.04699" lon="5.34065">
        <ele>780.324</ele>
        <time>2019-04-28T08:35:31Z</time>
      </trkpt>
      <trkpt lat="44.04718" lon="5.34035">
        <ele>780.978</ele>
        <time>2019-04-28T08:35:41Z</time>
      </trkpt>
      <trkpt lat="44.04725" lon="5.34022">
        <ele>781.818</ele>
        <time>2019-04-28T08:35:52Z</time>
      </trkpt>
      <trkpt lat="44.04724" lon="5.34021">
        <ele>782.205</ele>
        <time>2019-04-28T08:36:03Z</time>
      </trkpt>
      <trkpt lat="44.04723" lon="5.34015">
        <ele>783.262</ele>
        <time>2019-04-28T08:36:14Z</time>
      </trkpt>
      <trkpt lat="44.04723" lon="5.34006">
        <ele>784.266</ele>
        <time>2019-04-28T08:36:25Z</time>
      </trkpt>
      <trkpt lat="44.04722" lon="5.34003">
        <ele>784.812</ele>
        <time>2019-04-28T08:36:36Z</time>
      </trkpt>
      <trkpt lat="44.04722" lon="5.34002">
        <ele>785.425</ele>
        <time>2019-04-28T08:36:47Z</time>
      </trkpt>
      <trkpt lat="44.04722" lon="5.34002">
        <ele>785.552</ele>
        <time>2019-04-28T08:36:57Z</time>
      </trkpt>
      <trkpt lat="44.04722" lon="5.34002">
        <ele>785.868</ele>
        <time>2019-04-28T08:37:07Z</time>
      </trkpt>
      <trkpt lat="44.04728" lon="5.34">
        <ele>786.223</ele>
        <time>2019-04-28T08:37:18Z</time>
      </trkpt>
      <trkpt lat="44.04728" lon="5.33999">
        <ele>786.302</ele>
        <time>2019-04-28T08:37:29Z</time>
      </trkpt>
      <trkpt lat="44.04721" lon="5.34007">
        <ele>787.002</ele>
        <time>2019-04-28T08:37:40Z</time>
      </trkpt>
      <trkpt lat="44.04724" lon="5.34011">
        <ele>787.093</ele>
        <time>2019-04-28T08:37:51Z</time>
      </trkpt>
      <trkpt lat="44.04724" lon="5.34021">
        <ele>787.001</ele>
        <time>2019-04-28T08:38:01Z</time>
      </trkpt>
      <trkpt lat="44.04724" lon="5.34019">
        <ele>788.27</ele>
        <time>2019-04-28T08:38:12Z</time>
      </trkpt>
      <trkpt lat="44.04724" lon="5.34026">
        <ele>788.238</ele>
        <time>2019-04-28T08:38:22Z</time>
      </trkpt>
      <trkpt lat="44.04724" lon="5.3402">
        <ele>787.758</ele>
        <time>2019-04-28T08:38:33Z</time>
      </trkpt>
      <trkpt lat="44.04742" lon="5.33993">
        <ele>787.003</ele>
        <time>2019-04-28T08:38:44Z</time>
      </trkpt>
      <trkpt lat="44.04757" lon="5.33959">
        <ele>786.802</ele>
        <time>2019-04-28T08:38:55Z</time>
      </trkpt>
      <trkpt lat="44.04759" lon="5.33917">
        <ele>787.27</ele>
        <time>2019-04-28T08:39:06Z</time>
      </trkpt>
      <trkpt lat="44.04747" lon="5.33877">
        <ele>787.455</ele>
        <time>2019-04-28T08:39:16Z</time>
      </trkpt>
      <trkpt lat="44.04732" lon="5.33829">
        <ele>786.2</ele>
        <time>2019-04-28T08:39:27Z</time>
      </trkpt>
      <trkpt lat="44.0472" lon="5.3376">
        <ele>782.813</ele>
        <time>2019-04-28T08:39:38Z</time>
      </trkpt>
      <trkpt lat="44.04699" lon="5.33688">
        <ele>779.386</ele>
        <time>2019-04-28T08:39:49Z</time>
      </trkpt>
      <trkpt lat="44.04663" lon="5.33615">
        <ele>783.619</ele>
        <time>2019-04-28T08:40:00Z</time>
      </trkpt>
      <trkpt lat="44.04624" lon="5.33552">
        <ele>781.158</ele>
        <time>2019-04-28T08:40:11Z</time>
      </trkpt>
      <trkpt lat="44.04585" lon="5.33489">
        <ele>780.616</ele>
        <time>2019-04-28T08:40:22Z</time>
      </trkpt>
      <trkpt lat="44.04605" lon="5.33427">
        <ele>782.125</ele>
        <time>2019-04-28T08:40:33Z</time>
      </trkpt>
      <trkpt lat="44.0463" lon="5.33359">
        <ele>779.165</ele>
        <time>2019-04-28T08:40:43Z</time>
      </trkpt>
      <trkpt lat="44.04622" lon="5.33278">
        <ele>780.855</ele>
        <time>2019-04-28T08:40:54Z</time>
      </trkpt>
      <trkpt lat="44.04608" lon="5.33222">
        <ele>786.68</ele>
        <time>2019-04-28T08:41:04Z</time>
      </trkpt>
      <trkpt lat="44.04602" lon="5.33228">
        <ele>786.821</ele>
        <time>2019-04-28T08:41:15Z</time>
      </trkpt>
      <trkpt lat="44.04608" lon="5.3323">
        <ele>786.687</ele>
        <time>2019-04-28T08:41:25Z</time>
      </trkpt>
      <trkpt lat="44.04615" lon="5.33248">
        <ele>786.464</ele>
        <time>2019-04-28T08:41:36Z</time>
      </trkpt>
      <trkpt lat="44.04616" lon="5.33247">
        <ele>786.468</ele>
        <time>2019-04-28T08:41:47Z</time>
      </trkpt>
      <trkpt lat="44.04619" lon="5.33244">
        <ele>786.602</ele>
        <time>2019-04-28T08:41:59Z</time>
      </trkpt>
      <trkpt lat="44.04616" lon="5.33252">
        <ele>786.621</ele>
        <time>2019-04-28T08:42:10Z</time>
      </trkpt>
      <trkpt lat="44.04614" lon="5.33264">
        <ele>786.519</ele>
        <time>2019-04-28T08:42:21Z</time>
      </trkpt>
      <trkpt lat="44.04618" lon="5.33247">
        <ele>785.824</ele>
        <time>2019-04-28T08:42:32Z</time>
      </trkpt>
      <trkpt lat="44.04615" lon="5.33246">
        <ele>786.082</ele>
        <time>2019-04-28T08:42:42Z</time>
      </trkpt>
      <trkpt lat="44.04614" lon="5.33235">
        <ele>786.383</ele>
        <time>2019-04-28T08:42:53Z</time>
      </trkpt>
      <trkpt lat="44.04601" lon="5.33209">
        <ele>786.866</ele>
        <time>2019-04-28T08:43:04Z</time>
      </trkpt>
      <trkpt lat="44.04599" lon="5.33208">
        <ele>787.072</ele>
        <time>2019-04-28T08:43:15Z</time>
      </trkpt>
      <trkpt lat="44.04598" lon="5.33206">
        <ele>787.128</ele>
        <time>2019-04-28T08:43:26Z</time>
      </trkpt>
      <trkpt lat="44.04594" lon="5.33187">
        <ele>787.211</ele>
        <time>2019-04-28T08:43:37Z</time>
      </trkpt>
      <trkpt lat="44.04593" lon="5.33179">
        <ele>787.189</ele>
        <time>2019-04-28T08:43:48Z</time>
      </trkpt>
      <trkpt lat="44.04595" lon="5.33181">
        <ele>787.652</ele>
        <time>2019-04-28T08:43:59Z</time>
      </trkpt>
      <trkpt lat="44.04598" lon="5.33178">
        <ele>787.201</ele>
        <time>2019-04-28T08:44:10Z</time>
      </trkpt>
      <trkpt lat="44.04606" lon="5.33171">
        <ele>786.667</ele>
        <time>2019-04-28T08:44:20Z</time>
      </trkpt>
      <trkpt lat="44.04612" lon="5.3317">
        <ele>787.209</ele>
        <time>2019-04-28T08:44:31Z</time>
      </trkpt>
      <trkpt lat="44.04612" lon="5.33169">
        <ele>787.363</ele>
        <time>2019-04-28T08:44:42Z</time>
      </trkpt>
      <trkpt lat="44.04612" lon="5.3317">
        <ele>787.349</ele>
        <time>2019-04-28T08:44:52Z</time>
      </trkpt>
      <trkpt lat="44.04613" lon="5.33168">
        <ele>787.638</ele>
        <time>2019-04-28T08:45:03Z</time>
      </trkpt>
      <trkpt lat="44.04613" lon="5.33168">
        <ele>788.232</ele>
        <time>2019-04-28T08:45:14Z</time>
      </trkpt>
      <trkpt lat="44.04612" lon="5.33172">
        <ele>788.237</ele>
        <time>2019-04-28T08:45:25Z</time>
      </trkpt>
      <trkpt lat="44.04602" lon="5.33182">
        <ele>788.634</ele>
        <time>2019-04-28T08:45:36Z</time>
      </trkpt>
      <trkpt lat="44.04592" lon="5.33186">
        <ele>788.924</ele>
        <time>2019-04-28T08:45:46Z</time>
      </trkpt>
      <trkpt lat="44.04593" lon="5.33197">
        <ele>788.722</ele>
        <time>2019-04-28T08:45:56Z</time>
      </trkpt>
      <trkpt lat="44.046" lon="5.33208">
        <ele>788.655</ele>
        <time>2019-04-28T08:46:06Z</time>
      </trkpt>
      <trkpt lat="44.04598" lon="5.33208">
        <ele>788.469</ele>
        <time>2019-04-28T08:46:17Z</time>
      </trkpt>
      <trkpt lat="44.04599" lon="5.33207">
        <ele>788.359</ele>
        <time>2019-04-28T08:46:28Z</time>
      </trkpt>
      <trkpt lat="44.04596" lon="5.3321">
        <ele>788.327</ele>
        <time>2019-04-28T08:46:38Z</time>
      </trkpt>
      <trkpt lat="44.04599" lon="5.3321">
        <ele>788.549</ele>
        <time>2019-04-28T08:46:49Z</time>
      </trkpt>
      <trkpt lat="44.04605" lon="5.3321">
        <ele>788.501</ele>
        <time>2019-04-28T08:46:59Z</time>
      </trkpt>
      <trkpt lat="44.04616" lon="5.33176">
        <ele>787.952</ele>
        <time>2019-04-28T08:47:09Z</time>
      </trkpt>
      <trkpt lat="44.04662" lon="5.33144">
        <ele>786.015</ele>
        <time>2019-04-28T08:47:20Z</time>
      </trkpt>
      <trkpt lat="44.04718" lon="5.33178">
        <ele>786.409</ele>
        <time>2019-04-28T08:47:31Z</time>
      </trkpt>
      <trkpt lat="44.04756" lon="5.33254">
        <ele>781.653</ele>
        <time>2019-04-28T08:47:42Z</time>
      </trkpt>
      <trkpt lat="44.04781" lon="5.33294">
        <ele>780.692</ele>
        <time>2019-04-28T08:47:52Z</time>
      </trkpt>
      <trkpt lat="44.04841" lon="5.33381">
        <ele>783.657</ele>
        <time>2019-04-28T08:48:02Z</time>
      </trkpt>
      <trkpt lat="44.04898" lon="5.33419">
        <ele>780.86</ele>
        <time>2019-04-28T08:48:13Z</time>
      </trkpt>
      <trkpt lat="44.04909" lon="5.33328">
        <ele>777.893</ele>
        <time>2019-04-28T08:48:24Z</time>
      </trkpt>
      <trkpt lat="44.04954" lon="5.33307">
        <ele>775.441</ele>
        <time>2019-04-28T08:48:35Z</time>
      </trkpt>
      <trkpt lat="44.0501" lon="5.33302">
        <ele>769.107</ele>
        <time>2019-04-28T08:48:45Z</time>
      </trkpt>
      <trkpt lat="44.05084" lon="5.33252">
        <ele>766.645</ele>
        <time>2019-04-28T08:48:56Z</time>
      </trkpt>
      <trkpt lat="44.05152" lon="5.33207">
        <ele>768.121</ele>
        <time>2019-04-28T08:49:06Z</time>
      </trkpt>
      <trkpt lat="44.05209" lon="5.33114">
        <ele>766.082</ele>
        <time>2019-04-28T08:49:17Z</time>
      </trkpt>
      <trkpt lat="44.05278" lon="5.33053">
        <ele>759.854</ele>
        <time>2019-04-28T08:49:27Z</time>
      </trkpt>
      <trkpt lat="44.05313" lon="5.32963">
        <ele>753.882</ele>
        <time>2019-04-28T08:49:38Z</time>
      </trkpt>
      <trkpt lat="44.05328" lon="5.32956">
        <ele>753.47</ele>
        <time>2019-04-28T08:49:49Z</time>
      </trkpt>
      <trkpt lat="44.053" lon="5.32966">
        <ele>753.501</ele>
        <time>2019-04-28T08:49:59Z</time>
      </trkpt>
      <trkpt lat="44.05287" lon="5.32982">
        <ele>753.648</ele>
        <time>2019-04-28T08:50:10Z</time>
      </trkpt>
      <trkpt lat="44.05286" lon="5.32984">
        <ele>753.607</ele>
        <time>2019-04-28T08:50:21Z</time>
      </trkpt>
      <trkpt lat="44.05286" lon="5.32984">
        <ele>753.545</ele>
        <time>2019-04-28T08:50:31Z</time>
      </trkpt>
      <trkpt lat="44.05288" lon="5.32983">
        <ele>753.768</ele>
        <time>2019-04-28T08:50:42Z</time>
      </trkpt>
      <trkpt lat="44.05294" lon="5.32982">
        <ele>753.593</ele>
        <time>2019-04-28T08:50:52Z</time>
      </trkpt>
      <trkpt lat="44.05332" lon="5.3296">
        <ele>753.772</ele>
        <time>2019-04-28T08:51:03Z</time>
      </trkpt>
      <trkpt lat="44.05374" lon="5.32952">
        <ele>754.678</ele>
        <time>2019-04-28T08:51:13Z</time>
      </trkpt>
      <trkpt lat="44.05417" lon="5.32907">
        <ele>756.061</ele>
        <time>2019-04-28T08:51:24Z</time>
      </trkpt>
      <trkpt lat="44.05476" lon="5.32898">
        <ele>756.169</ele>
        <time>2019-04-28T08:51:34Z</time>
      </trkpt>
      <trkpt lat="44.05534" lon="5.32848">
        <ele>753.593</ele>
        <time>2019-04-28T08:51:44Z</time>
      </trkpt>
      <trkpt lat="44.05612" lon="5.32811">
        <ele>751.698</ele>
        <time>2019-04-28T08:51:55Z</time>
      </trkpt>
      <trkpt lat="44.05662" lon="5.32731">
        <ele>749.528</ele>
        <time>2019-04-28T08:52:05Z</time>
      </trkpt>
      <trkpt lat="44.05702" lon="5.32617">
        <ele>746.228</ele>
        <time>2019-04-28T08:52:16Z</time>
      </trkpt>
      <trkpt lat="44.05752" lon="5.32544">
        <ele>743.684</ele>
        <time>2019-04-28T08:52:26Z</time>
      </trkpt>
      <trkpt lat="44.05808" lon="5.32459">
        <ele>737.593</ele>
        <time>2019-04-28T08:52:36Z</time>
      </trkpt>
      <trkpt lat="44.05873" lon="5.32406">
        <ele>733.803</ele>
        <time>2019-04-28T08:52:46Z</time>
      </trkpt>
      <trkpt lat="44.05931" lon="5.32338">
        <ele>730.894</ele>
        <time>2019-04-28T08:52:56Z</time>
      </trkpt>
      <trkpt lat="44.05965" lon="5.32244">
        <ele>728.586</ele>
        <time>2019-04-28T08:53:07Z</time>
      </trkpt>
      <trkpt lat="44.05958" lon="5.32143">
        <ele>729.262</ele>
        <time>2019-04-28T08:53:17Z</time>
      </trkpt>
      <trkpt lat="44.06032" lon="5.32096">
        <ele>726.645</ele>
        <time>2019-04-28T08:53:28Z</time>
      </trkpt>
      <trkpt lat="44.06104" lon="5.32089">
        <ele>723.491</ele>
        <time>2019-04-28T08:53:38Z</time>
      </trkpt>
      <trkpt lat="44.06177" lon="5.32049">
        <ele>719.156</ele>
        <time>2019-04-28T08:53:48Z</time>
      </trkpt>
      <trkpt lat="44.0626" lon="5.32003">
        <ele>715.767</ele>
        <time>2019-04-28T08:53:59Z</time>
      </trkpt>
      <trkpt lat="44.06342" lon="5.31998">
        <ele>714.699</ele>
        <time>2019-04-28T08:54:09Z</time>
      </trkpt>
      <trkpt lat="44.06432" lon="5.3199">
        <ele>712.137</ele>
        <time>2019-04-28T08:54:20Z</time>
      </trkpt>
      <trkpt lat="44.06418" lon="5.32104">
        <ele>707.004</ele>
        <time>2019-04-28T08:54:31Z</time>
      </trkpt>
      <trkpt lat="44.06358" lon="5.32201">
        <ele>701.944</ele>
        <time>2019-04-28T08:54:42Z</time>
      </trkpt>
      <trkpt lat="44.06419" lon="5.32297">
        <ele>699.782</ele>
        <time>2019-04-28T08:54:53Z</time>
      </trkpt>
      <trkpt lat="44.06469" lon="5.3241">
        <ele>697.535</ele>
        <time>2019-04-28T08:55:04Z</time>
      </trkpt>
      <trkpt lat="44.06548" lon="5.32449">
        <ele>697.719</ele>
        <time>2019-04-28T08:55:14Z</time>
      </trkpt>
      <trkpt lat="44.06627" lon="5.32506">
        <ele>693.637</ele>
        <time>2019-04-28T08:55:24Z</time>
      </trkpt>
      <trkpt lat="44.06721" lon="5.32524">
        <ele>689.809</ele>
        <time>2019-04-28T08:55:35Z</time>
      </trkpt>
      <trkpt lat="44.06686" lon="5.32427">
        <ele>685.748</ele>
        <time>2019-04-28T08:55:46Z</time>
      </trkpt>
      <trkpt lat="44.06633" lon="5.32345">
        <ele>684.368</ele>
        <time>2019-04-28T08:55:56Z</time>
      </trkpt>
      <trkpt lat="44.06583" lon="5.3227">
        <ele>680.19</ele>
        <time>2019-04-28T08:56:06Z</time>
      </trkpt>
      <trkpt lat="44.06639" lon="5.32177">
        <ele>671.981</ele>
        <time>2019-04-28T08:56:17Z</time>
      </trkpt>
      <trkpt lat="44.06709" lon="5.3219">
        <ele>668.433</ele>
        <time>2019-04-28T08:56:27Z</time>
      </trkpt>
      <trkpt lat="44.06787" lon="5.32166">
        <ele>668.635</ele>
        <time>2019-04-28T08:56:38Z</time>
      </trkpt>
      <trkpt lat="44.06794" lon="5.32085">
        <ele>668.757</ele>
        <time>2019-04-28T08:56:48Z</time>
      </trkpt>
      <trkpt lat="44.06741" lon="5.32021">
        <ele>660.591</ele>
        <time>2019-04-28T08:56:59Z</time>
      </trkpt>
      <trkpt lat="44.0672" lon="5.31914">
        <ele>656.396</ele>
        <time>2019-04-28T08:57:10Z</time>
      </trkpt>
      <trkpt lat="44.06735" lon="5.318">
        <ele>651.751</ele>
        <time>2019-04-28T08:57:20Z</time>
      </trkpt>
      <trkpt lat="44.06755" lon="5.31662">
        <ele>648.659</ele>
        <time>2019-04-28T08:57:31Z</time>
      </trkpt>
      <trkpt lat="44.06719" lon="5.31549">
        <ele>648.978</ele>
        <time>2019-04-28T08:57:42Z</time>
      </trkpt>
      <trkpt lat="44.06651" lon="5.315">
        <ele>641.816</ele>
        <time>2019-04-28T08:57:52Z</time>
      </trkpt>
      <trkpt lat="44.06581" lon="5.31464">
        <ele>636.21</ele>
        <time>2019-04-28T08:58:02Z</time>
      </trkpt>
      <trkpt lat="44.06503" lon="5.31511">
        <ele>636.853</ele>
        <time>2019-04-28T08:58:13Z</time>
      </trkpt>
      <trkpt lat="44.06418" lon="5.31536">
        <ele>633.683</ele>
        <time>2019-04-28T08:58:24Z</time>
      </trkpt>
      <trkpt lat="44.06353" lon="5.31477">
        <ele>625.559</ele>
        <time>2019-04-28T08:58:35Z</time>
      </trkpt>
      <trkpt lat="44.06393" lon="5.31409">
        <ele>622.832</ele>
        <time>2019-04-28T08:58:46Z</time>
      </trkpt>
      <trkpt lat="44.06455" lon="5.31389">
        <ele>621.595</ele>
        <time>2019-04-28T08:58:57Z</time>
      </trkpt>
      <trkpt lat="44.06514" lon="5.3133">
        <ele>623.608</ele>
        <time>2019-04-28T08:59:08Z</time>
      </trkpt>
      <trkpt lat="44.06554" lon="5.31255">
        <ele>620.993</ele>
        <time>2019-04-28T08:59:18Z</time>
      </trkpt>
      <trkpt lat="44.06587" lon="5.31175">
        <ele>621.565</ele>
        <time>2019-04-28T08:59:29Z</time>
      </trkpt>
      <trkpt lat="44.0664" lon="5.31136">
        <ele>618.157</ele>
        <time>2019-04-28T08:59:40Z</time>
      </trkpt>
      <trkpt lat="44.06708" lon="5.31122">
        <ele>619.282</ele>
        <time>2019-04-28T08:59:50Z</time>
      </trkpt>
      <trkpt lat="44.06751" lon="5.31056">
        <ele>620.012</ele>
        <time>2019-04-28T09:00:01Z</time>
      </trkpt>
      <trkpt lat="44.06701" lon="5.30988">
        <ele>612.699</ele>
        <time>2019-04-28T09:00:11Z</time>
      </trkpt>
      <trkpt lat="44.06649" lon="5.30927">
        <ele>606.264</ele>
        <time>2019-04-28T09:00:21Z</time>
      </trkpt>
      <trkpt lat="44.06635" lon="5.30851">
        <ele>608.924</ele>
        <time>2019-04-28T09:00:32Z</time>
      </trkpt>
      <trkpt lat="44.06672" lon="5.30789">
        <ele>609.103</ele>
        <time>2019-04-28T09:00:42Z</time>
      </trkpt>
      <trkpt lat="44.06722" lon="5.30731">
        <ele>606.083</ele>
        <time>2019-04-28T09:00:53Z</time>
      </trkpt>
      <trkpt lat="44.06777" lon="5.30702">
        <ele>604.328</ele>
        <time>2019-04-28T09:01:03Z</time>
      </trkpt>
      <trkpt lat="44.06836" lon="5.30649">
        <ele>606.058</ele>
        <time>2019-04-28T09:01:14Z</time>
      </trkpt>
      <trkpt lat="44.06899" lon="5.30605">
        <ele>605.68</ele>
        <time>2019-04-28T09:01:24Z</time>
      </trkpt>
      <trkpt lat="44.06939" lon="5.30527">
        <ele>605.151</ele>
        <time>2019-04-28T09:01:34Z</time>
      </trkpt>
      <trkpt lat="44.06869" lon="5.30503">
        <ele>603.667</ele>
        <time>2019-04-28T09:01:44Z</time>
      </trkpt>
      <trkpt lat="44.06784" lon="5.30487">
        <ele>600.915</ele>
        <time>2019-04-28T09:01:54Z</time>
      </trkpt>
      <trkpt lat="44.06699" lon="5.30473">
        <ele>603.145</ele>
        <time>2019-04-28T09:02:04Z</time>
      </trkpt>
      <trkpt lat="44.06601" lon="5.30467">
        <ele>598.565</ele>
        <time>2019-04-28T09:02:15Z</time>
      </trkpt>
      <trkpt lat="44.06534" lon="5.30362">
        <ele>590.717</ele>
        <time>2019-04-28T09:02:26Z</time>
      </trkpt>
      <trkpt lat="44.06459" lon="5.30286">
        <ele>584.238</ele>
        <time>2019-04-28T09:02:37Z</time>
      </trkpt>
      <trkpt lat="44.06392" lon="5.30218">
        <ele>580.878</ele>
        <time>2019-04-28T09:02:48Z</time>
      </trkpt>
      <trkpt lat="44.06316" lon="5.30191">
        <ele>580.797</ele>
        <time>2019-04-28T09:02:58Z</time>
      </trkpt>
      <trkpt lat="44.06237" lon="5.30169">
        <ele>580.451</ele>
        <time>2019-04-28T09:03:09Z</time>
      </trkpt>
      <trkpt lat="44.06167" lon="5.30163">
        <ele>575.922</ele>
        <time>2019-04-28T09:03:19Z</time>
      </trkpt>
      <trkpt lat="44.06093" lon="5.30157">
        <ele>571.307</ele>
        <time>2019-04-28T09:03:30Z</time>
      </trkpt>
      <trkpt lat="44.06032" lon="5.30123">
        <ele>566.372</ele>
        <time>2019-04-28T09:03:40Z</time>
      </trkpt>
      <trkpt lat="44.05972" lon="5.30075">
        <ele>562.532</ele>
        <time>2019-04-28T09:03:51Z</time>
      </trkpt>
      <trkpt lat="44.05936" lon="5.29988">
        <ele>564.306</ele>
        <time>2019-04-28T09:04:01Z</time>
      </trkpt>
      <trkpt lat="44.05883" lon="5.29904">
        <ele>565.124</ele>
        <time>2019-04-28T09:04:12Z</time>
      </trkpt>
      <trkpt lat="44.0582" lon="5.29842">
        <ele>560.277</ele>
        <time>2019-04-28T09:04:23Z</time>
      </trkpt>
      <trkpt lat="44.05757" lon="5.29812">
        <ele>562.742</ele>
        <time>2019-04-28T09:04:33Z</time>
      </trkpt>
      <trkpt lat="44.0569" lon="5.29771">
        <ele>564.526</ele>
        <time>2019-04-28T09:04:44Z</time>
      </trkpt>
      <trkpt lat="44.05676" lon="5.29666">
        <ele>565.926</ele>
        <time>2019-04-28T09:04:55Z</time>
      </trkpt>
      <trkpt lat="44.05635" lon="5.29585">
        <ele>566.927</ele>
        <time>2019-04-28T09:05:06Z</time>
      </trkpt>
      <trkpt lat="44.05579" lon="5.29521">
        <ele>558.257</ele>
        <time>2019-04-28T09:05:16Z</time>
      </trkpt>
      <trkpt lat="44.05535" lon="5.29446">
        <ele>556.712</ele>
        <time>2019-04-28T09:05:26Z</time>
      </trkpt>
      <trkpt lat="44.05505" lon="5.29346">
        <ele>559.154</ele>
        <time>2019-04-28T09:05:37Z</time>
      </trkpt>
      <trkpt lat="44.05465" lon="5.29252">
        <ele>563.127</ele>
        <time>2019-04-28T09:05:48Z</time>
      </trkpt>
      <trkpt lat="44.05423" lon="5.29153">
        <ele>564.876</ele>
        <time>2019-04-28T09:05:59Z</time>
      </trkpt>
      <trkpt lat="44.0536" lon="5.29088">
        <ele>565.274</ele>
        <time>2019-04-28T09:06:10Z</time>
      </trkpt>
      <trkpt lat="44.05342" lon="5.2899">
        <ele>559.253</ele>
        <time>2019-04-28T09:06:21Z</time>
      </trkpt>
      <trkpt lat="44.05348" lon="5.28892">
        <ele>555.991</ele>
        <time>2019-04-28T09:06:32Z</time>
      </trkpt>
      <trkpt lat="44.05336" lon="5.28814">
        <ele>557.319</ele>
        <time>2019-04-28T09:06:42Z</time>
      </trkpt>
      <trkpt lat="44.05306" lon="5.28736">
        <ele>556.238</ele>
        <time>2019-04-28T09:06:53Z</time>
      </trkpt>
      <trkpt lat="44.05252" lon="5.28687">
        <ele>553.964</ele>
        <time>2019-04-28T09:07:03Z</time>
      </trkpt>
      <trkpt lat="44.0518" lon="5.28669">
        <ele>554.905</ele>
        <time>2019-04-28T09:07:13Z</time>
      </trkpt>
      <trkpt lat="44.05101" lon="5.28647">
        <ele>556.102</ele>
        <time>2019-04-28T09:07:24Z</time>
      </trkpt>
      <trkpt lat="44.05025" lon="5.28616">
        <ele>557.907</ele>
        <time>2019-04-28T09:07:35Z</time>
      </trkpt>
      <trkpt lat="44.04954" lon="5.28598">
        <ele>558.09</ele>
        <time>2019-04-28T09:07:45Z</time>
      </trkpt>
      <trkpt lat="44.04907" lon="5.28563">
        <ele>555.117</ele>
        <time>2019-04-28T09:07:56Z</time>
      </trkpt>
      <trkpt lat="44.04891" lon="5.285">
        <ele>551.421</ele>
        <time>2019-04-28T09:08:07Z</time>
      </trkpt>
      <trkpt lat="44.04907" lon="5.28431">
        <ele>547.477</ele>
        <time>2019-04-28T09:08:17Z</time>
      </trkpt>
      <trkpt lat="44.04926" lon="5.28363">
        <ele>545.392</ele>
        <time>2019-04-28T09:08:27Z</time>
      </trkpt>
      <trkpt lat="44.04944" lon="5.2828">
        <ele>544.494</ele>
        <time>2019-04-28T09:08:38Z</time>
      </trkpt>
      <trkpt lat="44.04957" lon="5.28208">
        <ele>543.352</ele>
        <time>2019-04-28T09:08:48Z</time>
      </trkpt>
      <trkpt lat="44.04949" lon="5.28124">
        <ele>544.199</ele>
        <time>2019-04-28T09:08:59Z</time>
      </trkpt>
      <trkpt lat="44.0493" lon="5.28045">
        <ele>545.749</ele>
        <time>2019-04-28T09:09:09Z</time>
      </trkpt>
      <trkpt lat="44.0489" lon="5.27973">
        <ele>547.216</ele>
        <time>2019-04-28T09:09:20Z</time>
      </trkpt>
      <trkpt lat="44.04856" lon="5.27924">
        <ele>545.378</ele>
        <time>2019-04-28T09:09:30Z</time>
      </trkpt>
      <trkpt lat="44.04805" lon="5.27872">
        <ele>543.427</ele>
        <time>2019-04-28T09:09:41Z</time>
      </trkpt>
      <trkpt lat="44.04747" lon="5.27824">
        <ele>541.142</ele>
        <time>2019-04-28T09:09:51Z</time>
      </trkpt>
      <trkpt lat="44.04713" lon="5.2774">
        <ele>534.053</ele>
        <time>2019-04-28T09:10:02Z</time>
      </trkpt>
      <trkpt lat="44.04713" lon="5.27655">
        <ele>534.726</ele>
        <time>2019-04-28T09:10:12Z</time>
      </trkpt>
      <trkpt lat="44.04719" lon="5.27567">
        <ele>535.993</ele>
        <time>2019-04-28T09:10:23Z</time>
      </trkpt>
      <trkpt lat="44.04704" lon="5.275">
        <ele>540.352</ele>
        <time>2019-04-28T09:10:33Z</time>
      </trkpt>
      <trkpt lat="44.04648" lon="5.27531">
        <ele>542.149</ele>
        <time>2019-04-28T09:10:44Z</time>
      </trkpt>
      <trkpt lat="44.04605" lon="5.27573">
        <ele>540.928</ele>
        <time>2019-04-28T09:10:54Z</time>
      </trkpt>
      <trkpt lat="44.04553" lon="5.27586">
        <ele>541.346</ele>
        <time>2019-04-28T09:11:04Z</time>
      </trkpt>
      <trkpt lat="44.04503" lon="5.27541">
        <ele>539.945</ele>
        <time>2019-04-28T09:11:15Z</time>
      </trkpt>
      <trkpt lat="44.04459" lon="5.27478">
        <ele>541.413</ele>
        <time>2019-04-28T09:11:26Z</time>
      </trkpt>
      <trkpt lat="44.04422" lon="5.27414">
        <ele>542.187</ele>
        <time>2019-04-28T09:11:36Z</time>
      </trkpt>
      <trkpt lat="44.04381" lon="5.27349">
        <ele>542.281</ele>
        <time>2019-04-28T09:11:47Z</time>
      </trkpt>
      <trkpt lat="44.04334" lon="5.27281">
        <ele>542.375</ele>
        <time>2019-04-28T09:11:58Z</time>
      </trkpt>
      <trkpt lat="44.0429" lon="5.27206">
        <ele>542.049</ele>
        <time>2019-04-28T09:12:09Z</time>
      </trkpt>
      <trkpt lat="44.04243" lon="5.27148">
        <ele>540.437</ele>
        <time>2019-04-28T09:12:20Z</time>
      </trkpt>
      <trkpt lat="44.04195" lon="5.27088">
        <ele>540.554</ele>
        <time>2019-04-28T09:12:31Z</time>
      </trkpt>
      <trkpt lat="44.04181" lon="5.27006">
        <ele>537.873</ele>
        <time>2019-04-28T09:12:41Z</time>
      </trkpt>
      <trkpt lat="44.04211" lon="5.26928">
        <ele>533.339</ele>
        <time>2019-04-28T09:12:52Z</time>
      </trkpt>
      <trkpt lat="44.04216" lon="5.26853">
        <ele>532.484</ele>
        <time>2019-04-28T09:13:02Z</time>
      </trkpt>
      <trkpt lat="44.04154" lon="5.26814">
        <ele>533.342</ele>
        <time>2019-04-28T09:13:13Z</time>
      </trkpt>
      <trkpt lat="44.04092" lon="5.26781">
        <ele>534.57</ele>
        <time>2019-04-28T09:13:24Z</time>
      </trkpt>
      <trkpt lat="44.04024" lon="5.26779">
        <ele>534.374</ele>
        <time>2019-04-28T09:13:35Z</time>
      </trkpt>
      <trkpt lat="44.03964" lon="5.26754">
        <ele>532.663</ele>
        <time>2019-04-28T09:13:46Z</time>
      </trkpt>
      <trkpt lat="44.03909" lon="5.26698">
        <ele>529.479</ele>
        <time>2019-04-28T09:13:57Z</time>
      </trkpt>
      <trkpt lat="44.03862" lon="5.26642">
        <ele>529.372</ele>
        <time>2019-04-28T09:14:07Z</time>
      </trkpt>
      <trkpt lat="44.03807" lon="5.26595">
        <ele>530.284</ele>
        <time>2019-04-28T09:14:18Z</time>
      </trkpt>
      <trkpt lat="44.03744" lon="5.26562">
        <ele>529.756</ele>
        <time>2019-04-28T09:14:28Z</time>
      </trkpt>
      <trkpt lat="44.03677" lon="5.26534">
        <ele>529.513</ele>
        <time>2019-04-28T09:14:38Z</time>
      </trkpt>
      <trkpt lat="44.03602" lon="5.26499">
        <ele>526.672</ele>
        <time>2019-04-28T09:14:49Z</time>
      </trkpt>
      <trkpt lat="44.03556" lon="5.26433">
        <ele>520.692</ele>
        <time>2019-04-28T09:15:00Z</time>
      </trkpt>
      <trkpt lat="44.03519" lon="5.26357">
        <ele>516.62</ele>
        <time>2019-04-28T09:15:11Z</time>
      </trkpt>
      <trkpt lat="44.03492" lon="5.26286">
        <ele>514.039</ele>
        <time>2019-04-28T09:15:21Z</time>
      </trkpt>
      <trkpt lat="44.03507" lon="5.2621">
        <ele>512.867</ele>
        <time>2019-04-28T09:15:32Z</time>
      </trkpt>
      <trkpt lat="44.03526" lon="5.26133">
        <ele>511.182</ele>
        <time>2019-04-28T09:15:43Z</time>
      </trkpt>
      <trkpt lat="44.03537" lon="5.26049">
        <ele>510.674</ele>
        <time>2019-04-28T09:15:54Z</time>
      </trkpt>
      <trkpt lat="44.03527" lon="5.25956">
        <ele>511.664</ele>
        <time>2019-04-28T09:16:05Z</time>
      </trkpt>
      <trkpt lat="44.03533" lon="5.25873">
        <ele>511.487</ele>
        <time>2019-04-28T09:16:16Z</time>
      </trkpt>
      <trkpt lat="44.03566" lon="5.25825">
        <ele>509.641</ele>
        <time>2019-04-28T09:16:26Z</time>
      </trkpt>
      <trkpt lat="44.03606" lon="5.25777">
        <ele>506.759</ele>
        <time>2019-04-28T09:16:37Z</time>
      </trkpt>
      <trkpt lat="44.0364" lon="5.25726">
        <ele>504.495</ele>
        <time>2019-04-28T09:16:47Z</time>
      </trkpt>
      <trkpt lat="44.03679" lon="5.25673">
        <ele>503.323</ele>
        <time>2019-04-28T09:16:58Z</time>
      </trkpt>
      <trkpt lat="44.03734" lon="5.2563">
        <ele>502.31</ele>
        <time>2019-04-28T09:17:09Z</time>
      </trkpt>
      <trkpt lat="44.0379" lon="5.25608">
        <ele>501.289</ele>
        <time>2019-04-28T09:17:19Z</time>
      </trkpt>
      <trkpt lat="44.03838" lon="5.25618">
        <ele>500.579</ele>
        <time>2019-04-28T09:17:30Z</time>
      </trkpt>
      <trkpt lat="44.03885" lon="5.25606">
        <ele>499.397</ele>
        <time>2019-04-28T09:17:40Z</time>
      </trkpt>
      <trkpt lat="44.03947" lon="5.25577">
        <ele>495.254</ele>
        <time>2019-04-28T09:17:51Z</time>
      </trkpt>
      <trkpt lat="44.04005" lon="5.25565">
        <ele>494.733</ele>
        <time>2019-04-28T09:18:02Z</time>
      </trkpt>
      <trkpt lat="44.0406" lon="5.25563">
        <ele>494.636</ele>
        <time>2019-04-28T09:18:12Z</time>
      </trkpt>
      <trkpt lat="44.04118" lon="5.25591">
        <ele>492.903</ele>
        <time>2019-04-28T09:18:23Z</time>
      </trkpt>
      <trkpt lat="44.04172" lon="5.25618">
        <ele>488.16</ele>
        <time>2019-04-28T09:18:33Z</time>
      </trkpt>
      <trkpt lat="44.04215" lon="5.25549">
        <ele>486.381</ele>
        <time>2019-04-28T09:18:44Z</time>
      </trkpt>
      <trkpt lat="44.04265" lon="5.25515">
        <ele>485.866</ele>
        <time>2019-04-28T09:18:54Z</time>
      </trkpt>
      <trkpt lat="44.04329" lon="5.25506">
        <ele>485.254</ele>
        <time>2019-04-28T09:19:05Z</time>
      </trkpt>
      <trkpt lat="44.04403" lon="5.25527">
        <ele>484.924</ele>
        <time>2019-04-28T09:19:16Z</time>
      </trkpt>
      <trkpt lat="44.04462" lon="5.25465">
        <ele>482.66</ele>
        <time>2019-04-28T09:19:26Z</time>
      </trkpt>
      <trkpt lat="44.04429" lon="5.25367">
        <ele>478.58</ele>
        <time>2019-04-28T09:19:37Z</time>
      </trkpt>
      <trkpt lat="44.04385" lon="5.25307">
        <ele>478.168</ele>
        <time>2019-04-28T09:19:47Z</time>
      </trkpt>
      <trkpt lat="44.04336" lon="5.25256">
        <ele>479.617</ele>
        <time>2019-04-28T09:19:58Z</time>
      </trkpt>
      <trkpt lat="44.04299" lon="5.25216">
        <ele>479.768</ele>
        <time>2019-04-28T09:20:08Z</time>
      </trkpt>
      <trkpt lat="44.04268" lon="5.25158">
        <ele>478.855</ele>
        <time>2019-04-28T09:20:19Z</time>
      </trkpt>
      <trkpt lat="44.04237" lon="5.25114">
        <ele>479.441</ele>
        <time>2019-04-28T09:20:30Z</time>
      </trkpt>
      <trkpt lat="44.04237" lon="5.25114">
        <ele>479.429</ele>
        <time>2019-04-28T09:20:41Z</time>
      </trkpt>
      <trkpt lat="44.04233" lon="5.25107">
        <ele>479.279</ele>
        <time>2019-04-28T09:20:52Z</time>
      </trkpt>
      <trkpt lat="44.0422" lon="5.25079">
        <ele>479.057</ele>
        <time>2019-04-28T09:21:02Z</time>
      </trkpt>
      <trkpt lat="44.04189" lon="5.25034">
        <ele>479.535</ele>
        <time>2019-04-28T09:21:13Z</time>
      </trkpt>
      <trkpt lat="44.0415" lon="5.2499">
        <ele>481.263</ele>
        <time>2019-04-28T09:21:24Z</time>
      </trkpt>
      <trkpt lat="44.04115" lon="5.24947">
        <ele>481.901</ele>
        <time>2019-04-28T09:21:34Z</time>
      </trkpt>
      <trkpt lat="44.04073" lon="5.24898">
        <ele>484.198</ele>
        <time>2019-04-28T09:21:45Z</time>
      </trkpt>
      <trkpt lat="44.04037" lon="5.24854">
        <ele>485.964</ele>
        <time>2019-04-28T09:21:55Z</time>
      </trkpt>
      <trkpt lat="44.04005" lon="5.24806">
        <ele>487.328</ele>
        <time>2019-04-28T09:22:06Z</time>
      </trkpt>
      <trkpt lat="44.04008" lon="5.24742">
        <ele>487.84</ele>
        <time>2019-04-28T09:22:17Z</time>
      </trkpt>
      <trkpt lat="44.04048" lon="5.24698">
        <ele>485.826</ele>
        <time>2019-04-28T09:22:28Z</time>
      </trkpt>
      <trkpt lat="44.04111" lon="5.24687">
        <ele>484.325</ele>
        <time>2019-04-28T09:22:38Z</time>
      </trkpt>
      <trkpt lat="44.04184" lon="5.24672">
        <ele>482.939</ele>
        <time>2019-04-28T09:22:49Z</time>
      </trkpt>
      <trkpt lat="44.04252" lon="5.24632">
        <ele>479.032</ele>
        <time>2019-04-28T09:23:00Z</time>
      </trkpt>
      <trkpt lat="44.04316" lon="5.24603">
        <ele>476.375</ele>
        <time>2019-04-28T09:23:10Z</time>
      </trkpt>
      <trkpt lat="44.04364" lon="5.24684">
        <ele>474.733</ele>
        <time>2019-04-28T09:23:20Z</time>
      </trkpt>
      <trkpt lat="44.04428" lon="5.24656">
        <ele>472.115</ele>
        <time>2019-04-28T09:23:31Z</time>
      </trkpt>
      <trkpt lat="44.04479" lon="5.2459">
        <ele>470.443</ele>
        <time>2019-04-28T09:23:42Z</time>
      </trkpt>
      <trkpt lat="44.04535" lon="5.2456">
        <ele>469.28</ele>
        <time>2019-04-28T09:23:52Z</time>
      </trkpt>
      <trkpt lat="44.04595" lon="5.24564">
        <ele>467.48</ele>
        <time>2019-04-28T09:24:02Z</time>
      </trkpt>
      <trkpt lat="44.04659" lon="5.24598">
        <ele>466.893</ele>
        <time>2019-04-28T09:24:13Z</time>
      </trkpt>
      <trkpt lat="44.04721" lon="5.24624">
        <ele>465.133</ele>
        <time>2019-04-28T09:24:23Z</time>
      </trkpt>
      <trkpt lat="44.04781" lon="5.24612">
        <ele>462.099</ele>
        <time>2019-04-28T09:24:34Z</time>
      </trkpt>
      <trkpt lat="44.04851" lon="5.24614">
        <ele>457.377</ele>
        <time>2019-04-28T09:24:45Z</time>
      </trkpt>
      <trkpt lat="44.04921" lon="5.24618">
        <ele>455.356</ele>
        <time>2019-04-28T09:24:56Z</time>
      </trkpt>
      <trkpt lat="44.04985" lon="5.24611">
        <ele>453.492</ele>
        <time>2019-04-28T09:25:06Z</time>
      </trkpt>
      <trkpt lat="44.05054" lon="5.24604">
        <ele>449.395</ele>
        <time>2019-04-28T09:25:17Z</time>
      </trkpt>
      <trkpt lat="44.05121" lon="5.24618">
        <ele>444.923</ele>
        <time>2019-04-28T09:25:27Z</time>
      </trkpt>
      <trkpt lat="44.05162" lon="5.24636">
        <ele>443.208</ele>
        <time>2019-04-28T09:25:38Z</time>
      </trkpt>
      <trkpt lat="44.05164" lon="5.24639">
        <ele>442.633</ele>
        <time>2019-04-28T09:25:48Z</time>
      </trkpt>
      <trkpt lat="44.05167" lon="5.24643">
        <ele>442.442</ele>
        <time>2019-04-28T09:25:59Z</time>
      </trkpt>
      <trkpt lat="44.05167" lon="5.24643">
        <ele>442.226</ele>
        <time>2019-04-28T09:26:09Z</time>
      </trkpt>
      <trkpt lat="44.05167" lon="5.24643">
        <ele>441.966</ele>
        <time>2019-04-28T09:26:20Z</time>
      </trkpt>
      <trkpt lat="44.05167" lon="5.24643">
        <ele>441.691</ele>
        <time>2019-04-28T09:26:31Z</time>
      </trkpt>
      <trkpt lat="44.05167" lon="5.24643">
        <ele>441.427</ele>
        <time>2019-04-28T09:26:42Z</time>
      </trkpt>
      <trkpt lat="44.05167" lon="5.24643">
        <ele>441.175</ele>
        <time>2019-04-28T09:26:53Z</time>
      </trkpt>
      <trkpt lat="44.05167" lon="5.24643">
        <ele>440.94</ele>
        <time>2019-04-28T09:27:04Z</time>
      </trkpt>
      <trkpt lat="44.05167" lon="5.24643">
        <ele>440.738</ele>
        <time>2019-04-28T09:27:14Z</time>
      </trkpt>
      <trkpt lat="44.05167" lon="5.24643">
        <ele>440.206</ele>
        <time>2019-04-28T09:27:25Z</time>
      </trkpt>
      <trkpt lat="44.05167" lon="5.24643">
        <ele>439.89</ele>
        <time>2019-04-28T09:27:35Z</time>
      </trkpt>
      <trkpt lat="44.05167" lon="5.24643">
        <ele>439.722</ele>
        <time>2019-04-28T09:27:46Z</time>
      </trkpt>
      <trkpt lat="44.05167" lon="5.24643">
        <ele>439.55</ele>
        <time>2019-04-28T09:27:56Z</time>
      </trkpt>
      <trkpt lat="44.05167" lon="5.24643">
        <ele>439.352</ele>
        <time>2019-04-28T09:28:07Z</time>
      </trkpt>
      <trkpt lat="44.05167" lon="5.24643">
        <ele>439.188</ele>
        <time>2019-04-28T09:28:17Z</time>
      </trkpt>
      <trkpt lat="44.05167" lon="5.24643">
        <ele>438.41</ele>
        <time>2019-04-28T09:28:28Z</time>
      </trkpt>
      <trkpt lat="44.05171" lon="5.24628">
        <ele>437.226</ele>
        <time>2019-04-28T09:28:38Z</time>
      </trkpt>
      <trkpt lat="44.05175" lon="5.24675">
        <ele>433.002</ele>
        <time>2019-04-28T09:28:48Z</time>
      </trkpt>
      <trkpt lat="44.05108" lon="5.24703">
        <ele>429.916</ele>
        <time>2019-04-28T09:28:59Z</time>
      </trkpt>
      <trkpt lat="44.05138" lon="5.24787">
        <ele>429.317</ele>
        <time>2019-04-28T09:29:10Z</time>
      </trkpt>
      <trkpt lat="44.05205" lon="5.24785">
        <ele>427.499</ele>
        <time>2019-04-28T09:29:20Z</time>
      </trkpt>
      <trkpt lat="44.0528" lon="5.24785">
        <ele>425.328</ele>
        <time>2019-04-28T09:29:31Z</time>
      </trkpt>
      <trkpt lat="44.05343" lon="5.24759">
        <ele>422.364</ele>
        <time>2019-04-28T09:29:41Z</time>
      </trkpt>
      <trkpt lat="44.0541" lon="5.24713">
        <ele>419.138</ele>
        <time>2019-04-28T09:29:51Z</time>
      </trkpt>
      <trkpt lat="44.05488" lon="5.24731">
        <ele>416.244</ele>
        <time>2019-04-28T09:30:02Z</time>
      </trkpt>
      <trkpt lat="44.05558" lon="5.24718">
        <ele>413.557</ele>
        <time>2019-04-28T09:30:12Z</time>
      </trkpt>
      <trkpt lat="44.05644" lon="5.24732">
        <ele>409.771</ele>
        <time>2019-04-28T09:30:22Z</time>
      </trkpt>
      <trkpt lat="44.05725" lon="5.24812">
        <ele>406.505</ele>
        <time>2019-04-28T09:30:33Z</time>
      </trkpt>
      <trkpt lat="44.05793" lon="5.24876">
        <ele>403.216</ele>
        <time>2019-04-28T09:30:44Z</time>
      </trkpt>
      <trkpt lat="44.05794" lon="5.24786">
        <ele>401.331</ele>
        <time>2019-04-28T09:30:54Z</time>
      </trkpt>
      <trkpt lat="44.05724" lon="5.24737">
        <ele>400.192</ele>
        <time>2019-04-28T09:31:05Z</time>
      </trkpt>
      <trkpt lat="44.05669" lon="5.24641">
        <ele>394.903</ele>
        <time>2019-04-28T09:31:15Z</time>
      </trkpt>
      <trkpt lat="44.05609" lon="5.24535">
        <ele>389.942</ele>
        <time>2019-04-28T09:31:26Z</time>
      </trkpt>
      <trkpt lat="44.05554" lon="5.24429">
        <ele>387.261</ele>
        <time>2019-04-28T09:31:37Z</time>
      </trkpt>
      <trkpt lat="44.05482" lon="5.24347">
        <ele>381.974</ele>
        <time>2019-04-28T09:31:48Z</time>
      </trkpt>
      <trkpt lat="44.05435" lon="5.24232">
        <ele>377.169</ele>
        <time>2019-04-28T09:31:59Z</time>
      </trkpt>
      <trkpt lat="44.05377" lon="5.24167">
        <ele>374.95</ele>
        <time>2019-04-28T09:32:09Z</time>
      </trkpt>
      <trkpt lat="44.05355" lon="5.24073">
        <ele>371.504</ele>
        <time>2019-04-28T09:32:20Z</time>
      </trkpt>
      <trkpt lat="44.05385" lon="5.23973">
        <ele>369.38</ele>
        <time>2019-04-28T09:32:31Z</time>
      </trkpt>
      <trkpt lat="44.05389" lon="5.23866">
        <ele>365.966</ele>
        <time>2019-04-28T09:32:41Z</time>
      </trkpt>
      <trkpt lat="44.05445" lon="5.23791">
        <ele>363.572</ele>
        <time>2019-04-28T09:32:52Z</time>
      </trkpt>
      <trkpt lat="44.05503" lon="5.2374">
        <ele>360.824</ele>
        <time>2019-04-28T09:33:03Z</time>
      </trkpt>
      <trkpt lat="44.05558" lon="5.2373">
        <ele>358.528</ele>
        <time>2019-04-28T09:33:13Z</time>
      </trkpt>
      <trkpt lat="44.05616" lon="5.23706">
        <ele>356.406</ele>
        <time>2019-04-28T09:33:24Z</time>
      </trkpt>
      <trkpt lat="44.05655" lon="5.23704">
        <ele>354.769</ele>
        <time>2019-04-28T09:33:34Z</time>
      </trkpt>
      <trkpt lat="44.05683" lon="5.23671">
        <ele>353.747</ele>
        <time>2019-04-28T09:33:44Z</time>
      </trkpt>
      <trkpt lat="44.05728" lon="5.23595">
        <ele>353.339</ele>
        <time>2019-04-28T09:33:55Z</time>
      </trkpt>
      <trkpt lat="44.05773" lon="5.23524">
        <ele>354.167</ele>
        <time>2019-04-28T09:34:06Z</time>
      </trkpt>
      <trkpt lat="44.05805" lon="5.2351">
        <ele>354.237</ele>
        <time>2019-04-28T09:34:17Z</time>
      </trkpt>
      <trkpt lat="44.05839" lon="5.23494">
        <ele>354.176</ele>
        <time>2019-04-28T09:34:28Z</time>
      </trkpt>
      <trkpt lat="44.05869" lon="5.23456">
        <ele>355.281</ele>
        <time>2019-04-28T09:34:38Z</time>
      </trkpt>
      <trkpt lat="44.05879" lon="5.23395">
        <ele>354.095</ele>
        <time>2019-04-28T09:34:49Z</time>
      </trkpt>
      <trkpt lat="44.05875" lon="5.23366">
        <ele>352.08</ele>
        <time>2019-04-28T09:35:00Z</time>
      </trkpt>
      <trkpt lat="44.05825" lon="5.23341">
        <ele>350.019</ele>
        <time>2019-04-28T09:35:10Z</time>
      </trkpt>
      <trkpt lat="44.05801" lon="5.23302">
        <ele>346.954</ele>
        <time>2019-04-28T09:35:21Z</time>
      </trkpt>
      <trkpt lat="44.05801" lon="5.23302">
        <ele>346.355</ele>
        <time>2019-04-28T09:35:32Z</time>
      </trkpt>
      <trkpt lat="44.05801" lon="5.23302">
        <ele>346.422</ele>
        <time>2019-04-28T09:35:43Z</time>
      </trkpt>
      <trkpt lat="44.05785" lon="5.2332">
        <ele>346.729</ele>
        <time>2019-04-28T09:35:53Z</time>
      </trkpt>
      <trkpt lat="44.05777" lon="5.23328">
        <ele>346.957</ele>
        <time>2019-04-28T09:36:04Z</time>
      </trkpt>
      <trkpt lat="44.05774" lon="5.23355">
        <ele>346.839</ele>
        <time>2019-04-28T09:36:14Z</time>
      </trkpt>
      <trkpt lat="44.0577" lon="5.23384">
        <ele>346.747</ele>
        <time>2019-04-28T09:36:25Z</time>
      </trkpt>
      <trkpt lat="44.05773" lon="5.23403">
        <ele>347.002</ele>
        <time>2019-04-28T09:36:35Z</time>
      </trkpt>
      <trkpt lat="44.05773" lon="5.23403">
        <ele>347.026</ele>
        <time>2019-04-28T09:36:46Z</time>
      </trkpt>
      <trkpt lat="44.05774" lon="5.23409">
        <ele>347.007</ele>
        <time>2019-04-28T09:36:56Z</time>
      </trkpt>
      <trkpt lat="44.05774" lon="5.23409">
        <ele>346.875</ele>
        <time>2019-04-28T09:37:07Z</time>
      </trkpt>
      <trkpt lat="44.05774" lon="5.23409">
        <ele>346.79</ele>
        <time>2019-04-28T09:37:17Z</time>
      </trkpt>
      <trkpt lat="44.05774" lon="5.23409">
        <ele>346.785</ele>
        <time>2019-04-28T09:37:28Z</time>
      </trkpt>
      <trkpt lat="44.05774" lon="5.23409">
        <ele>346.876</ele>
        <time>2019-04-28T09:37:38Z</time>
      </trkpt>
      <trkpt lat="44.05771" lon="5.23414">
        <ele>346.975</ele>
        <time>2019-04-28T09:37:48Z</time>
      </trkpt>
      <trkpt lat="44.05771" lon="5.23414">
        <ele>347.029</ele>
        <time>2019-04-28T09:37:59Z</time>
      </trkpt>
      <trkpt lat="44.05771" lon="5.23409">
        <ele>347.214</ele>
        <time>2019-04-28T09:38:09Z</time>
      </trkpt>
      <trkpt lat="44.05771" lon="5.234">
        <ele>347.378</ele>
        <time>2019-04-28T09:38:20Z</time>
      </trkpt>
      <trkpt lat="44.05771" lon="5.23394">
        <ele>347.445</ele>
        <time>2019-04-28T09:38:31Z</time>
      </trkpt>
      <trkpt lat="44.05771" lon="5.23394">
        <ele>347.696</ele>
        <time>2019-04-28T09:38:41Z</time>
      </trkpt>
      <trkpt lat="44.05771" lon="5.23389">
        <ele>348.326</ele>
        <time>2019-04-28T09:38:52Z</time>
      </trkpt>
      <trkpt lat="44.05779" lon="5.23388">
        <ele>348.403</ele>
        <time>2019-04-28T09:39:04Z</time>
      </trkpt>
      <trkpt lat="44.05788" lon="5.23385">
        <ele>347.789</ele>
        <time>2019-04-28T09:39:14Z</time>
      </trkpt>
      <trkpt lat="44.0579" lon="5.23392">
        <ele>346.459</ele>
        <time>2019-04-28T09:39:24Z</time>
      </trkpt>
      <trkpt lat="44.05788" lon="5.23391">
        <ele>343.401</ele>
        <time>2019-04-28T09:39:35Z</time>
      </trkpt>
      <trkpt lat="44.05789" lon="5.2339">
        <ele>342.875</ele>
        <time>2019-04-28T09:39:46Z</time>
      </trkpt>
      <trkpt lat="44.05788" lon="5.2339">
        <ele>341.906</ele>
        <time>2019-04-28T09:39:56Z</time>
      </trkpt>
      <trkpt lat="44.05804" lon="5.23376">
        <ele>331.933</ele>
        <time>2019-04-28T09:40:34Z</time>
      </trkpt>
      <trkpt lat="44.05819" lon="5.23374">
        <ele>199.038</ele>
        <time>2019-04-28T09:41:08Z</time>
      </trkpt>
      <trkpt lat="44.05822" lon="5.23369">
        <ele>201.514</ele>
        <time>2019-04-28T09:41:19Z</time>
      </trkpt>
      <trkpt lat="44.05818" lon="5.23361">
        <ele>202.268</ele>
        <time>2019-04-28T09:41:30Z</time>
      </trkpt>
      <trkpt lat="44.05816" lon="5.23354">
        <ele>202.749</ele>
        <time>2019-04-28T09:41:41Z</time>
      </trkpt>
      <trkpt lat="44.05814" lon="5.23356">
        <ele>203.846</ele>
        <time>2019-04-28T09:41:52Z</time>
      </trkpt>
      <trkpt lat="44.05814" lon="5.23367">
        <ele>209.906</ele>
        <time>2019-04-28T09:42:03Z</time>
      </trkpt>
      <trkpt lat="44.05817" lon="5.23372">
        <ele>215.167</ele>
        <time>2019-04-28T09:42:14Z</time>
      </trkpt>
      <trkpt lat="44.05817" lon="5.23371">
        <ele>219.153</ele>
        <time>2019-04-28T09:42:25Z</time>
      </trkpt>
      <trkpt lat="44.05814" lon="5.23366">
        <ele>234.373</ele>
        <time>2019-04-28T09:42:36Z</time>
      </trkpt>
      <trkpt lat="44.05818" lon="5.23364">
        <ele>236.887</ele>
        <time>2019-04-28T09:42:46Z</time>
      </trkpt>
      <trkpt lat="44.05817" lon="5.23362">
        <ele>239.731</ele>
        <time>2019-04-28T09:42:56Z</time>
      </trkpt>
      <trkpt lat="44.05815" lon="5.23364">
        <ele>239.179</ele>
        <time>2019-04-28T09:43:06Z</time>
      </trkpt>
      <trkpt lat="44.05818" lon="5.23374">
        <ele>239.296</ele>
        <time>2019-04-28T09:43:17Z</time>
      </trkpt>
      <trkpt lat="44.05818" lon="5.23375">
        <ele>239.953</ele>
        <time>2019-04-28T09:43:28Z</time>
      </trkpt>
      <trkpt lat="44.05819" lon="5.23382">
        <ele>239.762</ele>
        <time>2019-04-28T09:43:38Z</time>
      </trkpt>
      <trkpt lat="44.05821" lon="5.23387">
        <ele>238.269</ele>
        <time>2019-04-28T09:43:48Z</time>
      </trkpt>
      <trkpt lat="44.05799" lon="5.23409">
        <ele>239.266</ele>
        <time>2019-04-28T09:43:59Z</time>
      </trkpt>
      <trkpt lat="44.0578" lon="5.2339">
        <ele>241.675</ele>
        <time>2019-04-28T09:44:09Z</time>
      </trkpt>
      <trkpt lat="44.0578" lon="5.23389">
        <ele>243.829</ele>
        <time>2019-04-28T09:44:20Z</time>
      </trkpt>
      <trkpt lat="44.05778" lon="5.23388">
        <ele>246.006</ele>
        <time>2019-04-28T09:44:31Z</time>
      </trkpt>
      <trkpt lat="44.05777" lon="5.23387">
        <ele>248.152</ele>
        <time>2019-04-28T09:44:42Z</time>
      </trkpt>
      <trkpt lat="44.05777" lon="5.23387">
        <ele>250.064</ele>
        <time>2019-04-28T09:44:52Z</time>
      </trkpt>
      <trkpt lat="44.05775" lon="5.23386">
        <ele>251.954</ele>
        <time>2019-04-28T09:45:02Z</time>
      </trkpt>
      <trkpt lat="44.05774" lon="5.23384">
        <ele>255.489</ele>
        <time>2019-04-28T09:45:12Z</time>
      </trkpt>
      <trkpt lat="44.05774" lon="5.23383">
        <ele>260.629</ele>
        <time>2019-04-28T09:45:23Z</time>
      </trkpt>
      <trkpt lat="44.05775" lon="5.23381">
        <ele>268.422</ele>
        <time>2019-04-28T09:45:34Z</time>
      </trkpt>
      <trkpt lat="44.05774" lon="5.23381">
        <ele>274.427</ele>
        <time>2019-04-28T09:45:45Z</time>
      </trkpt>
      <trkpt lat="44.05767" lon="5.23378">
        <ele>299.119</ele>
        <time>2019-04-28T09:45:56Z</time>
      </trkpt>
      <trkpt lat="44.05769" lon="5.23384">
        <ele>307.572</ele>
        <time>2019-04-28T09:46:06Z</time>
      </trkpt>
      <trkpt lat="44.05769" lon="5.23384">
        <ele>308.654</ele>
        <time>2019-04-28T09:46:17Z</time>
      </trkpt>
      <trkpt lat="44.0577" lon="5.23384">
        <ele>309.624</ele>
        <time>2019-04-28T09:46:28Z</time>
      </trkpt>
      <trkpt lat="44.05771" lon="5.23383">
        <ele>312.686</ele>
        <time>2019-04-28T09:46:38Z</time>
      </trkpt>
      <trkpt lat="44.05773" lon="5.23382">
        <ele>314.88</ele>
        <time>2019-04-28T09:46:49Z</time>
      </trkpt>
      <trkpt lat="44.05776" lon="5.23381">
        <ele>317.255</ele>
        <time>2019-04-28T09:46:59Z</time>
      </trkpt>
      <trkpt lat="44.05774" lon="5.23379">
        <ele>318.916</ele>
        <time>2019-04-28T09:47:10Z</time>
      </trkpt>
      <trkpt lat="44.05774" lon="5.23378">
        <ele>319.508</ele>
        <time>2019-04-28T09:47:20Z</time>
      </trkpt>
      <trkpt lat="44.05774" lon="5.23379">
        <ele>320.158</ele>
        <time>2019-04-28T09:47:31Z</time>
      </trkpt>
      <trkpt lat="44.05775" lon="5.23378">
        <ele>320.779</ele>
        <time>2019-04-28T09:47:42Z</time>
      </trkpt>
      <trkpt lat="44.05775" lon="5.23378">
        <ele>321.389</ele>
        <time>2019-04-28T09:47:52Z</time>
      </trkpt>
      <trkpt lat="44.05775" lon="5.23379">
        <ele>322.094</ele>
        <time>2019-04-28T09:48:03Z</time>
      </trkpt>
      <trkpt lat="44.05775" lon="5.2338">
        <ele>322.787</ele>
        <time>2019-04-28T09:48:14Z</time>
      </trkpt>
      <trkpt lat="44.05775" lon="5.2338">
        <ele>323.486</ele>
        <time>2019-04-28T09:48:25Z</time>
      </trkpt>
      <trkpt lat="44.05775" lon="5.2338">
        <ele>324.207</ele>
        <time>2019-04-28T09:48:36Z</time>
      </trkpt>
      <trkpt lat="44.05775" lon="5.2338">
        <ele>324.795</ele>
        <time>2019-04-28T09:48:46Z</time>
      </trkpt>
      <trkpt lat="44.05776" lon="5.23379">
        <ele>325.245</ele>
        <time>2019-04-28T09:48:56Z</time>
      </trkpt>
      <trkpt lat="44.05776" lon="5.23379">
        <ele>325.717</ele>
        <time>2019-04-28T09:49:06Z</time>
      </trkpt>
      <trkpt lat="44.05776" lon="5.2338">
        <ele>326.324</ele>
        <time>2019-04-28T09:49:16Z</time>
      </trkpt>
      <trkpt lat="44.05776" lon="5.23378">
        <ele>326.996</ele>
        <time>2019-04-28T09:49:27Z</time>
      </trkpt>
      <trkpt lat="44.05776" lon="5.23379">
        <ele>327.663</ele>
        <time>2019-04-28T09:49:37Z</time>
      </trkpt>
      <trkpt lat="44.05776" lon="5.23378">
        <ele>328.714</ele>
        <time>2019-04-28T09:49:47Z</time>
      </trkpt>
      <trkpt lat="44.05777" lon="5.23379">
        <ele>331.549</ele>
        <time>2019-04-28T09:49:58Z</time>
      </trkpt>
      <trkpt lat="44.05776" lon="5.23376">
        <ele>332.837</ele>
        <time>2019-04-28T09:50:08Z</time>
      </trkpt>
      <trkpt lat="44.05776" lon="5.23377">
        <ele>333.433</ele>
        <time>2019-04-28T09:50:19Z</time>
      </trkpt>
      <trkpt lat="44.05776" lon="5.23377">
        <ele>333.739</ele>
        <time>2019-04-28T09:50:29Z</time>
      </trkpt>
      <trkpt lat="44.05775" lon="5.23378">
        <ele>334.078</ele>
        <time>2019-04-28T09:50:39Z</time>
      </trkpt>
      <trkpt lat="44.05769" lon="5.23381">
        <ele>336.317</ele>
        <time>2019-04-28T09:50:50Z</time>
      </trkpt>
      <trkpt lat="44.05776" lon="5.23418">
        <ele>339.894</ele>
        <time>2019-04-28T09:51:00Z</time>
      </trkpt>
      <trkpt lat="44.05788" lon="5.23464">
        <ele>342.232</ele>
        <time>2019-04-28T09:51:11Z</time>
      </trkpt>
      <trkpt lat="44.05809" lon="5.23496">
        <ele>344.11</ele>
        <time>2019-04-28T09:51:21Z</time>
      </trkpt>
      <trkpt lat="44.05841" lon="5.23497">
        <ele>346.249</ele>
        <time>2019-04-28T09:51:32Z</time>
      </trkpt>
      <trkpt lat="44.05872" lon="5.23458">
        <ele>346.489</ele>
        <time>2019-04-28T09:51:43Z</time>
      </trkpt>
      <trkpt lat="44.05881" lon="5.23405">
        <ele>346.605</ele>
        <time>2019-04-28T09:51:53Z</time>
      </trkpt>
      <trkpt lat="44.05857" lon="5.23333">
        <ele>351.061</ele>
        <time>2019-04-28T09:52:04Z</time>
      </trkpt>
      <trkpt lat="44.05811" lon="5.2331">
        <ele>350.107</ele>
        <time>2019-04-28T09:52:14Z</time>
      </trkpt>
      <trkpt lat="44.05793" lon="5.23231">
        <ele>344.842</ele>
        <time>2019-04-28T09:52:25Z</time>
      </trkpt>
      <trkpt lat="44.05767" lon="5.23151">
        <ele>339.602</ele>
        <time>2019-04-28T09:52:36Z</time>
      </trkpt>
      <trkpt lat="44.05755" lon="5.23069">
        <ele>337.113</ele>
        <time>2019-04-28T09:52:46Z</time>
      </trkpt>
      <trkpt lat="44.05741" lon="5.22984">
        <ele>337.678</ele>
        <time>2019-04-28T09:52:56Z</time>
      </trkpt>
      <trkpt lat="44.05735" lon="5.2289">
        <ele>335.945</ele>
        <time>2019-04-28T09:53:07Z</time>
      </trkpt>
      <trkpt lat="44.05728" lon="5.2281">
        <ele>334.619</ele>
        <time>2019-04-28T09:53:17Z</time>
      </trkpt>
      <trkpt lat="44.05724" lon="5.22715">
        <ele>331.202</ele>
        <time>2019-04-28T09:53:28Z</time>
      </trkpt>
      <trkpt lat="44.0571" lon="5.22623">
        <ele>330.939</ele>
        <time>2019-04-28T09:53:39Z</time>
      </trkpt>
      <trkpt lat="44.05704" lon="5.22526">
        <ele>330.508</ele>
        <time>2019-04-28T09:53:50Z</time>
      </trkpt>
      <trkpt lat="44.05687" lon="5.22446">
        <ele>328.314</ele>
        <time>2019-04-28T09:54:00Z</time>
      </trkpt>
      <trkpt lat="44.05635" lon="5.22374">
        <ele>327.926</ele>
        <time>2019-04-28T09:54:11Z</time>
      </trkpt>
      <trkpt lat="44.05586" lon="5.22315">
        <ele>326.891</ele>
        <time>2019-04-28T09:54:21Z</time>
      </trkpt>
      <trkpt lat="44.05535" lon="5.22237">
        <ele>324.192</ele>
        <time>2019-04-28T09:54:32Z</time>
      </trkpt>
      <trkpt lat="44.05463" lon="5.22177">
        <ele>320.119</ele>
        <time>2019-04-28T09:54:43Z</time>
      </trkpt>
      <trkpt lat="44.05404" lon="5.22111">
        <ele>319.137</ele>
        <time>2019-04-28T09:54:53Z</time>
      </trkpt>
      <trkpt lat="44.0533" lon="5.22033">
        <ele>318.541</ele>
        <time>2019-04-28T09:55:04Z</time>
      </trkpt>
      <trkpt lat="44.05265" lon="5.21959">
        <ele>316.874</ele>
        <time>2019-04-28T09:55:15Z</time>
      </trkpt>
      <trkpt lat="44.052" lon="5.21895">
        <ele>315.392</ele>
        <time>2019-04-28T09:55:26Z</time>
      </trkpt>
      <trkpt lat="44.05123" lon="5.21885">
        <ele>313.801</ele>
        <time>2019-04-28T09:55:36Z</time>
      </trkpt>
      <trkpt lat="44.0504" lon="5.21872">
        <ele>312.791</ele>
        <time>2019-04-28T09:55:47Z</time>
      </trkpt>
      <trkpt lat="44.04963" lon="5.21848">
        <ele>312.201</ele>
        <time>2019-04-28T09:55:58Z</time>
      </trkpt>
      <trkpt lat="44.04876" lon="5.21823">
        <ele>311.444</ele>
        <time>2019-04-28T09:56:08Z</time>
      </trkpt>
      <trkpt lat="44.04789" lon="5.21816">
        <ele>308.809</ele>
        <time>2019-04-28T09:56:19Z</time>
      </trkpt>
      <trkpt lat="44.04712" lon="5.21805">
        <ele>306.96</ele>
        <time>2019-04-28T09:56:30Z</time>
      </trkpt>
      <trkpt lat="44.04637" lon="5.21775">
        <ele>305.952</ele>
        <time>2019-04-28T09:56:41Z</time>
      </trkpt>
      <trkpt lat="44.04567" lon="5.21747">
        <ele>305.004</ele>
        <time>2019-04-28T09:56:51Z</time>
      </trkpt>
      <trkpt lat="44.04493" lon="5.21741">
        <ele>303.648</ele>
        <time>2019-04-28T09:57:02Z</time>
      </trkpt>
      <trkpt lat="44.04431" lon="5.21739">
        <ele>303.28</ele>
        <time>2019-04-28T09:57:13Z</time>
      </trkpt>
      <trkpt lat="44.04377" lon="5.21736">
        <ele>303.039</ele>
        <time>2019-04-28T09:57:24Z</time>
      </trkpt>
      <trkpt lat="44.04326" lon="5.21734">
        <ele>303.058</ele>
        <time>2019-04-28T09:57:35Z</time>
      </trkpt>
      <trkpt lat="44.04292" lon="5.21731">
        <ele>303.992</ele>
        <time>2019-04-28T09:57:45Z</time>
      </trkpt>
      <trkpt lat="44.04243" lon="5.21727">
        <ele>303.958</ele>
        <time>2019-04-28T09:57:56Z</time>
      </trkpt>
      <trkpt lat="44.04194" lon="5.21725">
        <ele>304.514</ele>
        <time>2019-04-28T09:58:07Z</time>
      </trkpt>
      <trkpt lat="44.04143" lon="5.21723">
        <ele>305.551</ele>
        <time>2019-04-28T09:58:18Z</time>
      </trkpt>
      <trkpt lat="44.04101" lon="5.21718">
        <ele>305.929</ele>
        <time>2019-04-28T09:58:28Z</time>
      </trkpt>
      <trkpt lat="44.04052" lon="5.21722">
        <ele>307.611</ele>
        <time>2019-04-28T09:58:38Z</time>
      </trkpt>
      <trkpt lat="44.04" lon="5.21725">
        <ele>308.518</ele>
        <time>2019-04-28T09:58:49Z</time>
      </trkpt>
      <trkpt lat="44.03932" lon="5.2173">
        <ele>307.113</ele>
        <time>2019-04-28T09:59:00Z</time>
      </trkpt>
      <trkpt lat="44.03862" lon="5.21727">
        <ele>306.06</ele>
        <time>2019-04-28T09:59:10Z</time>
      </trkpt>
      <trkpt lat="44.03781" lon="5.21733">
        <ele>305.17</ele>
        <time>2019-04-28T09:59:20Z</time>
      </trkpt>
      <trkpt lat="44.03696" lon="5.21735">
        <ele>303.82</ele>
        <time>2019-04-28T09:59:31Z</time>
      </trkpt>
      <trkpt lat="44.03628" lon="5.21736">
        <ele>303.194</ele>
        <time>2019-04-28T09:59:41Z</time>
      </trkpt>
      <trkpt lat="44.03586" lon="5.21735">
        <ele>303.243</ele>
        <time>2019-04-28T09:59:52Z</time>
      </trkpt>
      <trkpt lat="44.03554" lon="5.21734">
        <ele>303.369</ele>
        <time>2019-04-28T10:00:03Z</time>
      </trkpt>
      <trkpt lat="44.03526" lon="5.21743">
        <ele>303.641</ele>
        <time>2019-04-28T10:00:14Z</time>
      </trkpt>
      <trkpt lat="44.03504" lon="5.21778">
        <ele>304.381</ele>
        <time>2019-04-28T10:00:25Z</time>
      </trkpt>
      <trkpt lat="44.0348" lon="5.21821">
        <ele>306</ele>
        <time>2019-04-28T10:00:36Z</time>
      </trkpt>
      <trkpt lat="44.03444" lon="5.21856">
        <ele>307.454</ele>
        <time>2019-04-28T10:00:47Z</time>
      </trkpt>
      <trkpt lat="44.03393" lon="5.21851">
        <ele>309.662</ele>
        <time>2019-04-28T10:00:58Z</time>
      </trkpt>
      <trkpt lat="44.03348" lon="5.21839">
        <ele>311.438</ele>
        <time>2019-04-28T10:01:09Z</time>
      </trkpt>
      <trkpt lat="44.03298" lon="5.2182">
        <ele>312.026</ele>
        <time>2019-04-28T10:01:19Z</time>
      </trkpt>
      <trkpt lat="44.03234" lon="5.21797">
        <ele>312.632</ele>
        <time>2019-04-28T10:01:29Z</time>
      </trkpt>
      <trkpt lat="44.03159" lon="5.21764">
        <ele>311</ele>
        <time>2019-04-28T10:01:39Z</time>
      </trkpt>
      <trkpt lat="44.03081" lon="5.21727">
        <ele>309.502</ele>
        <time>2019-04-28T10:01:50Z</time>
      </trkpt>
      <trkpt lat="44.03026" lon="5.21691">
        <ele>308.796</ele>
        <time>2019-04-28T10:02:00Z</time>
      </trkpt>
      <trkpt lat="44.02968" lon="5.21662">
        <ele>308.665</ele>
        <time>2019-04-28T10:02:11Z</time>
      </trkpt>
      <trkpt lat="44.02907" lon="5.21643">
        <ele>307.52</ele>
        <time>2019-04-28T10:02:22Z</time>
      </trkpt>
      <trkpt lat="44.02855" lon="5.21636">
        <ele>306.525</ele>
        <time>2019-04-28T10:02:32Z</time>
      </trkpt>
      <trkpt lat="44.02796" lon="5.2162">
        <ele>306.148</ele>
        <time>2019-04-28T10:02:43Z</time>
      </trkpt>
      <trkpt lat="44.02739" lon="5.21608">
        <ele>306.832</ele>
        <time>2019-04-28T10:02:54Z</time>
      </trkpt>
      <trkpt lat="44.02681" lon="5.21599">
        <ele>308.529</ele>
        <time>2019-04-28T10:03:05Z</time>
      </trkpt>
      <trkpt lat="44.02626" lon="5.21584">
        <ele>308.953</ele>
        <time>2019-04-28T10:03:16Z</time>
      </trkpt>
      <trkpt lat="44.02566" lon="5.21561">
        <ele>311.394</ele>
        <time>2019-04-28T10:03:28Z</time>
      </trkpt>
      <trkpt lat="44.02511" lon="5.2154">
        <ele>312.487</ele>
        <time>2019-04-28T10:03:39Z</time>
      </trkpt>
      <trkpt lat="44.0246" lon="5.21521">
        <ele>313.256</ele>
        <time>2019-04-28T10:03:50Z</time>
      </trkpt>
      <trkpt lat="44.02414" lon="5.21503">
        <ele>314.159</ele>
        <time>2019-04-28T10:04:01Z</time>
      </trkpt>
      <trkpt lat="44.02377" lon="5.2149">
        <ele>314.755</ele>
        <time>2019-04-28T10:04:11Z</time>
      </trkpt>
      <trkpt lat="44.02336" lon="5.21476">
        <ele>315.639</ele>
        <time>2019-04-28T10:04:22Z</time>
      </trkpt>
      <trkpt lat="44.0229" lon="5.21459">
        <ele>316.302</ele>
        <time>2019-04-28T10:04:33Z</time>
      </trkpt>
      <trkpt lat="44.02245" lon="5.2144">
        <ele>316.908</ele>
        <time>2019-04-28T10:04:44Z</time>
      </trkpt>
      <trkpt lat="44.022" lon="5.21424">
        <ele>317.458</ele>
        <time>2019-04-28T10:04:55Z</time>
      </trkpt>
      <trkpt lat="44.02144" lon="5.21402">
        <ele>317.804</ele>
        <time>2019-04-28T10:05:05Z</time>
      </trkpt>
      <trkpt lat="44.02073" lon="5.21388">
        <ele>317.502</ele>
        <time>2019-04-28T10:05:15Z</time>
      </trkpt>
      <trkpt lat="44.01999" lon="5.21433">
        <ele>316.848</ele>
        <time>2019-04-28T10:05:25Z</time>
      </trkpt>
      <trkpt lat="44.01921" lon="5.21518">
        <ele>315.933</ele>
        <time>2019-04-28T10:05:36Z</time>
      </trkpt>
      <trkpt lat="44.01849" lon="5.21596">
        <ele>315.25</ele>
        <time>2019-04-28T10:05:46Z</time>
      </trkpt>
      <trkpt lat="44.01774" lon="5.21623">
        <ele>314.544</ele>
        <time>2019-04-28T10:05:56Z</time>
      </trkpt>
      <trkpt lat="44.01702" lon="5.21637">
        <ele>314.077</ele>
        <time>2019-04-28T10:06:07Z</time>
      </trkpt>
      <trkpt lat="44.01665" lon="5.21675">
        <ele>314.14</ele>
        <time>2019-04-28T10:06:18Z</time>
      </trkpt>
      <trkpt lat="44.01633" lon="5.21696">
        <ele>314.282</ele>
        <time>2019-04-28T10:06:29Z</time>
      </trkpt>
      <trkpt lat="44.01594" lon="5.21703">
        <ele>314.896</ele>
        <time>2019-04-28T10:06:40Z</time>
      </trkpt>
      <trkpt lat="44.01559" lon="5.21714">
        <ele>315.599</ele>
        <time>2019-04-28T10:06:50Z</time>
      </trkpt>
      <trkpt lat="44.0152" lon="5.21744">
        <ele>317.369</ele>
        <time>2019-04-28T10:07:01Z</time>
      </trkpt>
      <trkpt lat="44.01479" lon="5.21776">
        <ele>318.292</ele>
        <time>2019-04-28T10:07:12Z</time>
      </trkpt>
      <trkpt lat="44.01441" lon="5.21808">
        <ele>319.146</ele>
        <time>2019-04-28T10:07:22Z</time>
      </trkpt>
      <trkpt lat="44.01407" lon="5.21842">
        <ele>319.648</ele>
        <time>2019-04-28T10:07:33Z</time>
      </trkpt>
      <trkpt lat="44.0139" lon="5.21872">
        <ele>319.875</ele>
        <time>2019-04-28T10:07:44Z</time>
      </trkpt>
      <trkpt lat="44.01373" lon="5.21901">
        <ele>320.353</ele>
        <time>2019-04-28T10:07:55Z</time>
      </trkpt>
      <trkpt lat="44.01357" lon="5.2193">
        <ele>321.038</ele>
        <time>2019-04-28T10:08:06Z</time>
      </trkpt>
      <trkpt lat="44.01344" lon="5.21956">
        <ele>321.789</ele>
        <time>2019-04-28T10:08:16Z</time>
      </trkpt>
      <trkpt lat="44.01329" lon="5.21976">
        <ele>322.634</ele>
        <time>2019-04-28T10:08:26Z</time>
      </trkpt>
      <trkpt lat="44.01311" lon="5.21982">
        <ele>323.691</ele>
        <time>2019-04-28T10:08:37Z</time>
      </trkpt>
      <trkpt lat="44.01294" lon="5.21971">
        <ele>324.787</ele>
        <time>2019-04-28T10:08:47Z</time>
      </trkpt>
      <trkpt lat="44.01279" lon="5.21946">
        <ele>326.131</ele>
        <time>2019-04-28T10:08:58Z</time>
      </trkpt>
      <trkpt lat="44.01268" lon="5.21914">
        <ele>327.493</ele>
        <time>2019-04-28T10:09:09Z</time>
      </trkpt>
      <trkpt lat="44.01253" lon="5.21882">
        <ele>328.68</ele>
        <time>2019-04-28T10:09:19Z</time>
      </trkpt>
      <trkpt lat="44.0123" lon="5.21811">
        <ele>333.189</ele>
        <time>2019-04-28T10:09:30Z</time>
      </trkpt>
      <trkpt lat="44.01253" lon="5.21715">
        <ele>332.392</ele>
        <time>2019-04-28T10:09:40Z</time>
      </trkpt>
      <trkpt lat="44.01253" lon="5.2161">
        <ele>330.867</ele>
        <time>2019-04-28T10:09:51Z</time>
      </trkpt>
      <trkpt lat="44.01217" lon="5.21518">
        <ele>328.651</ele>
        <time>2019-04-28T10:10:02Z</time>
      </trkpt>
      <trkpt lat="44.01196" lon="5.21406">
        <ele>326.38</ele>
        <time>2019-04-28T10:10:13Z</time>
      </trkpt>
      <trkpt lat="44.01179" lon="5.21297">
        <ele>322.583</ele>
        <time>2019-04-28T10:10:23Z</time>
      </trkpt>
      <trkpt lat="44.0117" lon="5.21163">
        <ele>319.659</ele>
        <time>2019-04-28T10:10:34Z</time>
      </trkpt>
      <trkpt lat="44.01169" lon="5.21147">
        <ele>319.119</ele>
        <time>2019-04-28T10:10:45Z</time>
      </trkpt>
      <trkpt lat="44.0117" lon="5.21154">
        <ele>318.455</ele>
        <time>2019-04-28T10:10:55Z</time>
      </trkpt>
      <trkpt lat="44.0117" lon="5.21154">
        <ele>318.346</ele>
        <time>2019-04-28T10:11:05Z</time>
      </trkpt>
      <trkpt lat="44.0117" lon="5.21154">
        <ele>318.206</ele>
        <time>2019-04-28T10:11:16Z</time>
      </trkpt>
      <trkpt lat="44.0117" lon="5.21154">
        <ele>318.072</ele>
        <time>2019-04-28T10:11:26Z</time>
      </trkpt>
      <trkpt lat="44.0117" lon="5.21154">
        <ele>317.915</ele>
        <time>2019-04-28T10:11:37Z</time>
      </trkpt>
      <trkpt lat="44.0117" lon="5.21154">
        <ele>317.745</ele>
        <time>2019-04-28T10:11:48Z</time>
      </trkpt>
      <trkpt lat="44.0117" lon="5.21154">
        <ele>317.411</ele>
        <time>2019-04-28T10:11:58Z</time>
      </trkpt>
      <trkpt lat="44.0117" lon="5.21154">
        <ele>316.825</ele>
        <time>2019-04-28T10:12:09Z</time>
      </trkpt>
      <trkpt lat="44.0117" lon="5.21154">
        <ele>316.668</ele>
        <time>2019-04-28T10:12:20Z</time>
      </trkpt>
      <trkpt lat="44.0117" lon="5.21154">
        <ele>316.52</ele>
        <time>2019-04-28T10:12:31Z</time>
      </trkpt>
      <trkpt lat="44.0117" lon="5.21154">
        <ele>316.384</ele>
        <time>2019-04-28T10:12:42Z</time>
      </trkpt>
      <trkpt lat="44.0117" lon="5.21154">
        <ele>316.259</ele>
        <time>2019-04-28T10:12:53Z</time>
      </trkpt>
      <trkpt lat="44.01174" lon="5.21152">
        <ele>315.705</ele>
        <time>2019-04-28T10:13:04Z</time>
      </trkpt>
      <trkpt lat="44.01171" lon="5.21125">
        <ele>314.903</ele>
        <time>2019-04-28T10:13:14Z</time>
      </trkpt>
      <trkpt lat="44.0117" lon="5.21063">
        <ele>311.45</ele>
        <time>2019-04-28T10:13:24Z</time>
      </trkpt>
      <trkpt lat="44.01172" lon="5.20991">
        <ele>310.088</ele>
        <time>2019-04-28T10:13:35Z</time>
      </trkpt>
      <trkpt lat="44.01169" lon="5.2091">
        <ele>308.82</ele>
        <time>2019-04-28T10:13:45Z</time>
      </trkpt>
      <trkpt lat="44.01153" lon="5.20817">
        <ele>307.606</ele>
        <time>2019-04-28T10:13:56Z</time>
      </trkpt>
      <trkpt lat="44.01137" lon="5.20732">
        <ele>306.61</ele>
        <time>2019-04-28T10:14:07Z</time>
      </trkpt>
      <trkpt lat="44.01101" lon="5.2064">
        <ele>304.384</ele>
        <time>2019-04-28T10:14:17Z</time>
      </trkpt>
      <trkpt lat="44.01092" lon="5.20536">
        <ele>302.477</ele>
        <time>2019-04-28T10:14:28Z</time>
      </trkpt>
      <trkpt lat="44.01094" lon="5.20466">
        <ele>301.31</ele>
        <time>2019-04-28T10:14:39Z</time>
      </trkpt>
      <trkpt lat="44.01078" lon="5.20415">
        <ele>300.575</ele>
        <time>2019-04-28T10:14:49Z</time>
      </trkpt>
      <trkpt lat="44.01057" lon="5.20368">
        <ele>300.283</ele>
        <time>2019-04-28T10:15:00Z</time>
      </trkpt>
      <trkpt lat="44.01042" lon="5.20324">
        <ele>300.196</ele>
        <time>2019-04-28T10:15:10Z</time>
      </trkpt>
      <trkpt lat="44.01026" lon="5.20277">
        <ele>300.149</ele>
        <time>2019-04-28T10:15:21Z</time>
      </trkpt>
      <trkpt lat="44.01017" lon="5.20226">
        <ele>300.22</ele>
        <time>2019-04-28T10:15:31Z</time>
      </trkpt>
      <trkpt lat="44.0098" lon="5.20168">
        <ele>300.872</ele>
        <time>2019-04-28T10:15:42Z</time>
      </trkpt>
      <trkpt lat="44.00944" lon="5.20106">
        <ele>300.545</ele>
        <time>2019-04-28T10:15:52Z</time>
      </trkpt>
      <trkpt lat="44.00916" lon="5.20021">
        <ele>299.441</ele>
        <time>2019-04-28T10:16:03Z</time>
      </trkpt>
      <trkpt lat="44.00901" lon="5.1994">
        <ele>298.151</ele>
        <time>2019-04-28T10:16:13Z</time>
      </trkpt>
      <trkpt lat="44.00892" lon="5.19858">
        <ele>296.852</ele>
        <time>2019-04-28T10:16:24Z</time>
      </trkpt>
      <trkpt lat="44.00889" lon="5.19795">
        <ele>295.221</ele>
        <time>2019-04-28T10:16:35Z</time>
      </trkpt>
      <trkpt lat="44.00887" lon="5.19737">
        <ele>293.974</ele>
        <time>2019-04-28T10:16:45Z</time>
      </trkpt>
      <trkpt lat="44.0088" lon="5.19663">
        <ele>292.982</ele>
        <time>2019-04-28T10:16:56Z</time>
      </trkpt>
      <trkpt lat="44.00868" lon="5.19586">
        <ele>291.855</ele>
        <time>2019-04-28T10:17:06Z</time>
      </trkpt>
      <trkpt lat="44.00855" lon="5.19493">
        <ele>290.344</ele>
        <time>2019-04-28T10:17:17Z</time>
      </trkpt>
      <trkpt lat="44.00845" lon="5.19406">
        <ele>288.979</ele>
        <time>2019-04-28T10:17:28Z</time>
      </trkpt>
      <trkpt lat="44.00836" lon="5.19329">
        <ele>288.219</ele>
        <time>2019-04-28T10:17:39Z</time>
      </trkpt>
      <trkpt lat="44.00824" lon="5.19245">
        <ele>287.421</ele>
        <time>2019-04-28T10:17:50Z</time>
      </trkpt>
      <trkpt lat="44.00811" lon="5.19171">
        <ele>286.525</ele>
        <time>2019-04-28T10:18:00Z</time>
      </trkpt>
      <trkpt lat="44.00793" lon="5.1909">
        <ele>285.736</ele>
        <time>2019-04-28T10:18:11Z</time>
      </trkpt>
      <trkpt lat="44.00775" lon="5.19005">
        <ele>284.737</ele>
        <time>2019-04-28T10:18:22Z</time>
      </trkpt>
      <trkpt lat="44.00763" lon="5.18919">
        <ele>284.46</ele>
        <time>2019-04-28T10:18:33Z</time>
      </trkpt>
      <trkpt lat="44.00767" lon="5.18837">
        <ele>284.386</ele>
        <time>2019-04-28T10:18:44Z</time>
      </trkpt>
      <trkpt lat="44.0077" lon="5.18751">
        <ele>283.496</ele>
        <time>2019-04-28T10:18:55Z</time>
      </trkpt>
      <trkpt lat="44.00773" lon="5.18665">
        <ele>282.875</ele>
        <time>2019-04-28T10:19:06Z</time>
      </trkpt>
      <trkpt lat="44.00773" lon="5.18586">
        <ele>282.862</ele>
        <time>2019-04-28T10:19:17Z</time>
      </trkpt>
      <trkpt lat="44.00752" lon="5.18514">
        <ele>283.076</ele>
        <time>2019-04-28T10:19:28Z</time>
      </trkpt>
      <trkpt lat="44.00738" lon="5.18454">
        <ele>283.693</ele>
        <time>2019-04-28T10:19:38Z</time>
      </trkpt>
      <trkpt lat="44.00735" lon="5.18387">
        <ele>284.334</ele>
        <time>2019-04-28T10:19:49Z</time>
      </trkpt>
      <trkpt lat="44.00725" lon="5.18329">
        <ele>283.989</ele>
        <time>2019-04-28T10:19:59Z</time>
      </trkpt>
      <trkpt lat="44.00706" lon="5.18271">
        <ele>283.628</ele>
        <time>2019-04-28T10:20:10Z</time>
      </trkpt>
      <trkpt lat="44.00689" lon="5.18214">
        <ele>283.547</ele>
        <time>2019-04-28T10:20:21Z</time>
      </trkpt>
      <trkpt lat="44.0067" lon="5.18157">
        <ele>283.637</ele>
        <time>2019-04-28T10:20:31Z</time>
      </trkpt>
      <trkpt lat="44.0065" lon="5.18106">
        <ele>284.008</ele>
        <time>2019-04-28T10:20:41Z</time>
      </trkpt>
      <trkpt lat="44.00626" lon="5.18049">
        <ele>284.61</ele>
        <time>2019-04-28T10:20:52Z</time>
      </trkpt>
      <trkpt lat="44.00613" lon="5.17989">
        <ele>285.087</ele>
        <time>2019-04-28T10:21:03Z</time>
      </trkpt>
      <trkpt lat="44.00626" lon="5.17941">
        <ele>285.062</ele>
        <time>2019-04-28T10:21:14Z</time>
      </trkpt>
      <trkpt lat="44.00661" lon="5.17911">
        <ele>284.475</ele>
        <time>2019-04-28T10:21:25Z</time>
      </trkpt>
      <trkpt lat="44.00695" lon="5.1788">
        <ele>283.736</ele>
        <time>2019-04-28T10:21:36Z</time>
      </trkpt>
      <trkpt lat="44.00729" lon="5.17847">
        <ele>281.754</ele>
        <time>2019-04-28T10:21:46Z</time>
      </trkpt>
      <trkpt lat="44.00762" lon="5.17811">
        <ele>281.28</ele>
        <time>2019-04-28T10:21:57Z</time>
      </trkpt>
      <trkpt lat="44.00791" lon="5.17787">
        <ele>281.105</ele>
        <time>2019-04-28T10:22:07Z</time>
      </trkpt>
      <trkpt lat="44.00819" lon="5.17793">
        <ele>281.015</ele>
        <time>2019-04-28T10:22:18Z</time>
      </trkpt>
      <trkpt lat="44.00856" lon="5.17788">
        <ele>282.061</ele>
        <time>2019-04-28T10:22:29Z</time>
      </trkpt>
      <trkpt lat="44.00897" lon="5.1777">
        <ele>284.089</ele>
        <time>2019-04-28T10:22:40Z</time>
      </trkpt>
      <trkpt lat="44.00933" lon="5.17794">
        <ele>285.549</ele>
        <time>2019-04-28T10:22:51Z</time>
      </trkpt>
      <trkpt lat="44.00957" lon="5.17813">
        <ele>285.929</ele>
        <time>2019-04-28T10:23:01Z</time>
      </trkpt>
      <trkpt lat="44.00987" lon="5.1778">
        <ele>286.278</ele>
        <time>2019-04-28T10:23:11Z</time>
      </trkpt>
      <trkpt lat="44.00994" lon="5.17735">
        <ele>287.109</ele>
        <time>2019-04-28T10:23:22Z</time>
      </trkpt>
      <trkpt lat="44.00975" lon="5.17696">
        <ele>288.455</ele>
        <time>2019-04-28T10:23:33Z</time>
      </trkpt>
      <trkpt lat="44.00965" lon="5.17664">
        <ele>289.929</ele>
        <time>2019-04-28T10:23:43Z</time>
      </trkpt>
      <trkpt lat="44.00975" lon="5.17636">
        <ele>291.67</ele>
        <time>2019-04-28T10:23:54Z</time>
      </trkpt>
      <trkpt lat="44.0099" lon="5.17605">
        <ele>293.48</ele>
        <time>2019-04-28T10:24:05Z</time>
      </trkpt>
      <trkpt lat="44.00999" lon="5.17572">
        <ele>295.25</ele>
        <time>2019-04-28T10:24:16Z</time>
      </trkpt>
      <trkpt lat="44.01005" lon="5.17543">
        <ele>297.11</ele>
        <time>2019-04-28T10:24:26Z</time>
      </trkpt>
      <trkpt lat="44.01013" lon="5.17507">
        <ele>299.136</ele>
        <time>2019-04-28T10:24:37Z</time>
      </trkpt>
      <trkpt lat="44.01017" lon="5.17476">
        <ele>299.848</ele>
        <time>2019-04-28T10:24:47Z</time>
      </trkpt>
      <trkpt lat="44.01021" lon="5.17442">
        <ele>300.768</ele>
        <time>2019-04-28T10:24:58Z</time>
      </trkpt>
      <trkpt lat="44.01024" lon="5.17409">
        <ele>301.745</ele>
        <time>2019-04-28T10:25:09Z</time>
      </trkpt>
      <trkpt lat="44.01027" lon="5.17378">
        <ele>302.678</ele>
        <time>2019-04-28T10:25:20Z</time>
      </trkpt>
      <trkpt lat="44.0103" lon="5.17348">
        <ele>303.916</ele>
        <time>2019-04-28T10:25:30Z</time>
      </trkpt>
      <trkpt lat="44.0103" lon="5.17317">
        <ele>305.39</ele>
        <time>2019-04-28T10:25:42Z</time>
      </trkpt>
      <trkpt lat="44.01034" lon="5.17282">
        <ele>306.145</ele>
        <time>2019-04-28T10:25:52Z</time>
      </trkpt>
      <trkpt lat="44.01038" lon="5.17245">
        <ele>306.954</ele>
        <time>2019-04-28T10:26:02Z</time>
      </trkpt>
      <trkpt lat="44.01041" lon="5.17204">
        <ele>307.729</ele>
        <time>2019-04-28T10:26:12Z</time>
      </trkpt>
      <trkpt lat="44.01048" lon="5.17153">
        <ele>308.943</ele>
        <time>2019-04-28T10:26:23Z</time>
      </trkpt>
      <trkpt lat="44.01081" lon="5.17079">
        <ele>305.853</ele>
        <time>2019-04-28T10:26:34Z</time>
      </trkpt>
      <trkpt lat="44.01141" lon="5.17021">
        <ele>301.575</ele>
        <time>2019-04-28T10:26:45Z</time>
      </trkpt>
      <trkpt lat="44.01216" lon="5.16979">
        <ele>299.401</ele>
        <time>2019-04-28T10:26:56Z</time>
      </trkpt>
      <trkpt lat="44.01289" lon="5.16951">
        <ele>297.744</ele>
        <time>2019-04-28T10:27:06Z</time>
      </trkpt>
      <trkpt lat="44.01367" lon="5.16883">
        <ele>293.875</ele>
        <time>2019-04-28T10:27:17Z</time>
      </trkpt>
      <trkpt lat="44.01423" lon="5.16802">
        <ele>290.61</ele>
        <time>2019-04-28T10:27:27Z</time>
      </trkpt>
      <trkpt lat="44.01473" lon="5.16723">
        <ele>287.863</ele>
        <time>2019-04-28T10:27:37Z</time>
      </trkpt>
      <trkpt lat="44.01495" lon="5.16609">
        <ele>285.547</ele>
        <time>2019-04-28T10:27:48Z</time>
      </trkpt>
      <trkpt lat="44.01558" lon="5.16522">
        <ele>282.466</ele>
        <time>2019-04-28T10:27:59Z</time>
      </trkpt>
      <trkpt lat="44.01622" lon="5.16445">
        <ele>278.749</ele>
        <time>2019-04-28T10:28:09Z</time>
      </trkpt>
      <trkpt lat="44.0168" lon="5.16368">
        <ele>273.484</ele>
        <time>2019-04-28T10:28:19Z</time>
      </trkpt>
      <trkpt lat="44.01741" lon="5.16296">
        <ele>268.828</ele>
        <time>2019-04-28T10:28:30Z</time>
      </trkpt>
      <trkpt lat="44.01789" lon="5.16234">
        <ele>265.366</ele>
        <time>2019-04-28T10:28:40Z</time>
      </trkpt>
      <trkpt lat="44.01822" lon="5.16189">
        <ele>262.805</ele>
        <time>2019-04-28T10:28:51Z</time>
      </trkpt>
      <trkpt lat="44.01858" lon="5.16142">
        <ele>258.782</ele>
        <time>2019-04-28T10:29:01Z</time>
      </trkpt>
      <trkpt lat="44.01889" lon="5.16101">
        <ele>258.329</ele>
        <time>2019-04-28T10:29:13Z</time>
      </trkpt>
      <trkpt lat="44.01924" lon="5.16055">
        <ele>255.014</ele>
        <time>2019-04-28T10:29:23Z</time>
      </trkpt>
      <trkpt lat="44.01961" lon="5.16004">
        <ele>251.016</ele>
        <time>2019-04-28T10:29:35Z</time>
      </trkpt>
      <trkpt lat="44.01998" lon="5.15962">
        <ele>250.736</ele>
        <time>2019-04-28T10:29:46Z</time>
      </trkpt>
      <trkpt lat="44.02036" lon="5.15921">
        <ele>249.086</ele>
        <time>2019-04-28T10:29:57Z</time>
      </trkpt>
      <trkpt lat="44.02066" lon="5.15894">
        <ele>247.015</ele>
        <time>2019-04-28T10:30:08Z</time>
      </trkpt>
      <trkpt lat="44.02118" lon="5.15871">
        <ele>244.691</ele>
        <time>2019-04-28T10:30:19Z</time>
      </trkpt>
      <trkpt lat="44.02139" lon="5.15862">
        <ele>244.191</ele>
        <time>2019-04-28T10:30:30Z</time>
      </trkpt>
      <trkpt lat="44.02156" lon="5.15861">
        <ele>246.183</ele>
        <time>2019-04-28T10:30:41Z</time>
      </trkpt>
      <trkpt lat="44.02156" lon="5.15861">
        <ele>247.014</ele>
        <time>2019-04-28T10:30:51Z</time>
      </trkpt>
      <trkpt lat="44.02156" lon="5.15861">
        <ele>247.654</ele>
        <time>2019-04-28T10:31:01Z</time>
      </trkpt>
      <trkpt lat="44.02156" lon="5.15861">
        <ele>248.365</ele>
        <time>2019-04-28T10:31:12Z</time>
      </trkpt>
      <trkpt lat="44.02156" lon="5.15861">
        <ele>248.99</ele>
        <time>2019-04-28T10:31:22Z</time>
      </trkpt>
      <trkpt lat="44.02156" lon="5.15861">
        <ele>249.609</ele>
        <time>2019-04-28T10:31:32Z</time>
      </trkpt>
      <trkpt lat="44.02156" lon="5.15861">
        <ele>250.274</ele>
        <time>2019-04-28T10:31:43Z</time>
      </trkpt>
      <trkpt lat="44.02156" lon="5.15861">
        <ele>250.939</ele>
        <time>2019-04-28T10:31:54Z</time>
      </trkpt>
      <trkpt lat="44.02156" lon="5.15861">
        <ele>251.562</ele>
        <time>2019-04-28T10:32:04Z</time>
      </trkpt>
      <trkpt lat="44.02156" lon="5.15861">
        <ele>252.876</ele>
        <time>2019-04-28T10:32:15Z</time>
      </trkpt>
      <trkpt lat="44.02146" lon="5.15848">
        <ele>263.244</ele>
        <time>2019-04-28T10:32:27Z</time>
      </trkpt>
      <trkpt lat="44.02143" lon="5.15849">
        <ele>266.144</ele>
        <time>2019-04-28T10:32:38Z</time>
      </trkpt>
      <trkpt lat="44.02143" lon="5.15849">
        <ele>266.997</ele>
        <time>2019-04-28T10:32:48Z</time>
      </trkpt>
      <trkpt lat="44.02156" lon="5.15847">
        <ele>268.414</ele>
        <time>2019-04-28T10:32:58Z</time>
      </trkpt>
      <trkpt lat="44.02156" lon="5.15847">
        <ele>268.591</ele>
        <time>2019-04-28T10:33:09Z</time>
      </trkpt>
      <trkpt lat="44.02156" lon="5.15851">
        <ele>268.887</ele>
        <time>2019-04-28T10:33:20Z</time>
      </trkpt>
      <trkpt lat="44.02156" lon="5.15851">
        <ele>268.935</ele>
        <time>2019-04-28T10:33:30Z</time>
      </trkpt>
      <trkpt lat="44.02157" lon="5.15862">
        <ele>269.003</ele>
        <time>2019-04-28T10:33:40Z</time>
      </trkpt>
      <trkpt lat="44.02157" lon="5.15863">
        <ele>269.063</ele>
        <time>2019-04-28T10:33:50Z</time>
      </trkpt>
      <trkpt lat="44.02157" lon="5.15863">
        <ele>269.095</ele>
        <time>2019-04-28T10:34:00Z</time>
      </trkpt>
      <trkpt lat="44.02158" lon="5.15862">
        <ele>269.132</ele>
        <time>2019-04-28T10:34:10Z</time>
      </trkpt>
      <trkpt lat="44.02158" lon="5.15862">
        <ele>269.206</ele>
        <time>2019-04-28T10:34:21Z</time>
      </trkpt>
      <trkpt lat="44.02158" lon="5.15862">
        <ele>269.262</ele>
        <time>2019-04-28T10:34:32Z</time>
      </trkpt>
      <trkpt lat="44.02159" lon="5.15862">
        <ele>269.262</ele>
        <time>2019-04-28T10:34:44Z</time>
      </trkpt>
      <trkpt lat="44.02159" lon="5.15862">
        <ele>269.137</ele>
        <time>2019-04-28T10:34:54Z</time>
      </trkpt>
      <trkpt lat="44.0216" lon="5.15863">
        <ele>268.746</ele>
        <time>2019-04-28T10:35:05Z</time>
      </trkpt>
      <trkpt lat="44.02161" lon="5.15862">
        <ele>268.701</ele>
        <time>2019-04-28T10:35:15Z</time>
      </trkpt>
      <trkpt lat="44.02161" lon="5.15862">
        <ele>268.62</ele>
        <time>2019-04-28T10:35:25Z</time>
      </trkpt>
      <trkpt lat="44.02162" lon="5.15862">
        <ele>268.52</ele>
        <time>2019-04-28T10:35:36Z</time>
      </trkpt>
      <trkpt lat="44.02161" lon="5.15863">
        <ele>268.398</ele>
        <time>2019-04-28T10:35:46Z</time>
      </trkpt>
      <trkpt lat="44.02161" lon="5.15863">
        <ele>268.233</ele>
        <time>2019-04-28T10:35:57Z</time>
      </trkpt>
      <trkpt lat="44.02161" lon="5.15864">
        <ele>268.07</ele>
        <time>2019-04-28T10:36:09Z</time>
      </trkpt>
      <trkpt lat="44.02161" lon="5.15864">
        <ele>267.934</ele>
        <time>2019-04-28T10:36:19Z</time>
      </trkpt>
      <trkpt lat="44.02161" lon="5.15864">
        <ele>267.832</ele>
        <time>2019-04-28T10:36:29Z</time>
      </trkpt>
      <trkpt lat="44.02161" lon="5.15864">
        <ele>267.767</ele>
        <time>2019-04-28T10:36:40Z</time>
      </trkpt>
      <trkpt lat="44.02161" lon="5.15864">
        <ele>267.749</ele>
        <time>2019-04-28T10:36:51Z</time>
      </trkpt>
      <trkpt lat="44.02161" lon="5.15863">
        <ele>267.769</ele>
        <time>2019-04-28T10:37:02Z</time>
      </trkpt>
      <trkpt lat="44.0216" lon="5.15863">
        <ele>267.792</ele>
        <time>2019-04-28T10:37:13Z</time>
      </trkpt>
      <trkpt lat="44.0216" lon="5.15863">
        <ele>267.812</ele>
        <time>2019-04-28T10:37:23Z</time>
      </trkpt>
      <trkpt lat="44.0216" lon="5.15863">
        <ele>267.836</ele>
        <time>2019-04-28T10:37:34Z</time>
      </trkpt>
      <trkpt lat="44.0216" lon="5.15863">
        <ele>267.87</ele>
        <time>2019-04-28T10:37:44Z</time>
      </trkpt>
      <trkpt lat="44.0216" lon="5.15863">
        <ele>267.932</ele>
        <time>2019-04-28T10:37:54Z</time>
      </trkpt>
      <trkpt lat="44.02159" lon="5.15862">
        <ele>268.071</ele>
        <time>2019-04-28T10:38:05Z</time>
      </trkpt>
      <trkpt lat="44.02159" lon="5.15862">
        <ele>268.246</ele>
        <time>2019-04-28T10:38:16Z</time>
      </trkpt>
      <trkpt lat="44.02159" lon="5.15861">
        <ele>268.408</ele>
        <time>2019-04-28T10:38:26Z</time>
      </trkpt>
      <trkpt lat="44.02159" lon="5.15861">
        <ele>268.547</ele>
        <time>2019-04-28T10:38:37Z</time>
      </trkpt>
      <trkpt lat="44.02159" lon="5.15861">
        <ele>268.603</ele>
        <time>2019-04-28T10:38:47Z</time>
      </trkpt>
      <trkpt lat="44.02158" lon="5.1586">
        <ele>268.621</ele>
        <time>2019-04-28T10:38:58Z</time>
      </trkpt>
      <trkpt lat="44.02158" lon="5.1586">
        <ele>268.622</ele>
        <time>2019-04-28T10:39:10Z</time>
      </trkpt>
      <trkpt lat="44.02158" lon="5.1586">
        <ele>268.622</ele>
        <time>2019-04-28T10:39:21Z</time>
      </trkpt>
      <trkpt lat="44.02158" lon="5.1586">
        <ele>268.644</ele>
        <time>2019-04-28T10:39:31Z</time>
      </trkpt>
      <trkpt lat="44.02155" lon="5.15855">
        <ele>269.096</ele>
        <time>2019-04-28T10:39:42Z</time>
      </trkpt>
      <trkpt lat="44.02163" lon="5.15853">
        <ele>269.749</ele>
        <time>2019-04-28T10:39:53Z</time>
      </trkpt>
      <trkpt lat="44.02162" lon="5.15858">
        <ele>268.997</ele>
        <time>2019-04-28T10:40:04Z</time>
      </trkpt>
      <trkpt lat="44.02163" lon="5.15861">
        <ele>268.038</ele>
        <time>2019-04-28T10:40:15Z</time>
      </trkpt>
      <trkpt lat="44.02159" lon="5.15861">
        <ele>267.852</ele>
        <time>2019-04-28T10:40:25Z</time>
      </trkpt>
      <trkpt lat="44.02163" lon="5.15842">
        <ele>268.396</ele>
        <time>2019-04-28T10:40:36Z</time>
      </trkpt>
      <trkpt lat="44.02182" lon="5.15801">
        <ele>268.042</ele>
        <time>2019-04-28T10:40:46Z</time>
      </trkpt>
      <trkpt lat="44.02197" lon="5.15709">
        <ele>258.5</ele>
        <time>2019-04-28T10:40:56Z</time>
      </trkpt>
      <trkpt lat="44.02216" lon="5.15622">
        <ele>252.926</ele>
        <time>2019-04-28T10:41:07Z</time>
      </trkpt>
      <trkpt lat="44.02231" lon="5.15556">
        <ele>251.68</ele>
        <time>2019-04-28T10:41:17Z</time>
      </trkpt>
      <trkpt lat="44.02251" lon="5.15482">
        <ele>249.157</ele>
        <time>2019-04-28T10:41:27Z</time>
      </trkpt>
      <trkpt lat="44.02269" lon="5.15424">
        <ele>245.707</ele>
        <time>2019-04-28T10:41:37Z</time>
      </trkpt>
      <trkpt lat="44.02279" lon="5.15353">
        <ele>247.833</ele>
        <time>2019-04-28T10:41:49Z</time>
      </trkpt>
      <trkpt lat="44.02297" lon="5.15288">
        <ele>249.557</ele>
        <time>2019-04-28T10:41:59Z</time>
      </trkpt>
      <trkpt lat="44.02305" lon="5.15231">
        <ele>248.406</ele>
        <time>2019-04-28T10:42:11Z</time>
      </trkpt>
      <trkpt lat="44.02322" lon="5.15175">
        <ele>247.023</ele>
        <time>2019-04-28T10:42:22Z</time>
      </trkpt>
      <trkpt lat="44.02331" lon="5.15121">
        <ele>247.735</ele>
        <time>2019-04-28T10:42:32Z</time>
      </trkpt>
      <trkpt lat="44.02335" lon="5.1506">
        <ele>249.612</ele>
        <time>2019-04-28T10:42:43Z</time>
      </trkpt>
      <trkpt lat="44.02333" lon="5.14987">
        <ele>249.638</ele>
        <time>2019-04-28T10:42:53Z</time>
      </trkpt>
      <trkpt lat="44.02303" lon="5.14938">
        <ele>249.088</ele>
        <time>2019-04-28T10:43:03Z</time>
      </trkpt>
      <trkpt lat="44.02271" lon="5.14892">
        <ele>248.417</ele>
        <time>2019-04-28T10:43:14Z</time>
      </trkpt>
      <trkpt lat="44.02237" lon="5.14854">
        <ele>248.27</ele>
        <time>2019-04-28T10:43:24Z</time>
      </trkpt>
      <trkpt lat="44.02191" lon="5.14822">
        <ele>247.783</ele>
        <time>2019-04-28T10:43:36Z</time>
      </trkpt>
      <trkpt lat="44.02146" lon="5.1479">
        <ele>247.317</ele>
        <time>2019-04-28T10:43:46Z</time>
      </trkpt>
      <trkpt lat="44.02101" lon="5.1476">
        <ele>247.54</ele>
        <time>2019-04-28T10:43:57Z</time>
      </trkpt>
      <trkpt lat="44.02055" lon="5.14728">
        <ele>247.95</ele>
        <time>2019-04-28T10:44:08Z</time>
      </trkpt>
      <trkpt lat="44.02007" lon="5.14694">
        <ele>248.491</ele>
        <time>2019-04-28T10:44:19Z</time>
      </trkpt>
      <trkpt lat="44.01957" lon="5.14649">
        <ele>248.744</ele>
        <time>2019-04-28T10:44:29Z</time>
      </trkpt>
      <trkpt lat="44.01891" lon="5.14591">
        <ele>248.273</ele>
        <time>2019-04-28T10:44:40Z</time>
      </trkpt>
      <trkpt lat="44.01829" lon="5.14534">
        <ele>247.518</ele>
        <time>2019-04-28T10:44:50Z</time>
      </trkpt>
      <trkpt lat="44.01761" lon="5.14502">
        <ele>246.803</ele>
        <time>2019-04-28T10:45:01Z</time>
      </trkpt>
      <trkpt lat="44.017" lon="5.14494">
        <ele>246.579</ele>
        <time>2019-04-28T10:45:12Z</time>
      </trkpt>
      <trkpt lat="44.01652" lon="5.14486">
        <ele>246.903</ele>
        <time>2019-04-28T10:45:22Z</time>
      </trkpt>
      <trkpt lat="44.01601" lon="5.14484">
        <ele>247.357</ele>
        <time>2019-04-28T10:45:33Z</time>
      </trkpt>
      <trkpt lat="44.01517" lon="5.14489">
        <ele>246.61</ele>
        <time>2019-04-28T10:45:43Z</time>
      </trkpt>
      <trkpt lat="44.01427" lon="5.14471">
        <ele>244.69</ele>
        <time>2019-04-28T10:45:53Z</time>
      </trkpt>
      <trkpt lat="44.01318" lon="5.14446">
        <ele>239.771</ele>
        <time>2019-04-28T10:46:04Z</time>
      </trkpt>
      <trkpt lat="44.01215" lon="5.14411">
        <ele>237.942</ele>
        <time>2019-04-28T10:46:15Z</time>
      </trkpt>
      <trkpt lat="44.01112" lon="5.14375">
        <ele>234.789</ele>
        <time>2019-04-28T10:46:27Z</time>
      </trkpt>
      <trkpt lat="44.01012" lon="5.14364">
        <ele>230.357</ele>
        <time>2019-04-28T10:46:37Z</time>
      </trkpt>
      <trkpt lat="44.00925" lon="5.14367">
        <ele>226.447</ele>
        <time>2019-04-28T10:46:48Z</time>
      </trkpt>
      <trkpt lat="44.00849" lon="5.14374">
        <ele>223.744</ele>
        <time>2019-04-28T10:46:59Z</time>
      </trkpt>
      <trkpt lat="44.00778" lon="5.14377">
        <ele>220.902</ele>
        <time>2019-04-28T10:47:10Z</time>
      </trkpt>
      <trkpt lat="44.0071" lon="5.1438">
        <ele>219.205</ele>
        <time>2019-04-28T10:47:21Z</time>
      </trkpt>
      <trkpt lat="44.00648" lon="5.14362">
        <ele>218.135</ele>
        <time>2019-04-28T10:47:31Z</time>
      </trkpt>
      <trkpt lat="44.00586" lon="5.14349">
        <ele>217.889</ele>
        <time>2019-04-28T10:47:42Z</time>
      </trkpt>
      <trkpt lat="44.00528" lon="5.14362">
        <ele>217.976</ele>
        <time>2019-04-28T10:47:53Z</time>
      </trkpt>
      <trkpt lat="44.00522" lon="5.14362">
        <ele>217.98</ele>
        <time>2019-04-28T10:48:03Z</time>
      </trkpt>
      <trkpt lat="44.00519" lon="5.14356">
        <ele>217.903</ele>
        <time>2019-04-28T10:48:14Z</time>
      </trkpt>
      <trkpt lat="44.00519" lon="5.14356">
        <ele>217.884</ele>
        <time>2019-04-28T10:48:25Z</time>
      </trkpt>
      <trkpt lat="44.00519" lon="5.14356">
        <ele>217.861</ele>
        <time>2019-04-28T10:48:36Z</time>
      </trkpt>
      <trkpt lat="44.00519" lon="5.14356">
        <ele>217.844</ele>
        <time>2019-04-28T10:48:46Z</time>
      </trkpt>
      <trkpt lat="44.00519" lon="5.14356">
        <ele>217.83</ele>
        <time>2019-04-28T10:48:56Z</time>
      </trkpt>
      <trkpt lat="44.00519" lon="5.14356">
        <ele>217.8</ele>
        <time>2019-04-28T10:49:07Z</time>
      </trkpt>
      <trkpt lat="44.00516" lon="5.14363">
        <ele>217.708</ele>
        <time>2019-04-28T10:49:18Z</time>
      </trkpt>
      <trkpt lat="44.00511" lon="5.14365">
        <ele>217.785</ele>
        <time>2019-04-28T10:49:29Z</time>
      </trkpt>
      <trkpt lat="44.00476" lon="5.14373">
        <ele>217.978</ele>
        <time>2019-04-28T10:49:40Z</time>
      </trkpt>
      <trkpt lat="44.00436" lon="5.14383">
        <ele>218.901</ele>
        <time>2019-04-28T10:49:51Z</time>
      </trkpt>
      <trkpt lat="44.00391" lon="5.14396">
        <ele>219.83</ele>
        <time>2019-04-28T10:50:02Z</time>
      </trkpt>
      <trkpt lat="44.00353" lon="5.14405">
        <ele>220.238</ele>
        <time>2019-04-28T10:50:12Z</time>
      </trkpt>
      <trkpt lat="44.00316" lon="5.14412">
        <ele>220.544</ele>
        <time>2019-04-28T10:50:22Z</time>
      </trkpt>
      <trkpt lat="44.00277" lon="5.14424">
        <ele>221.377</ele>
        <time>2019-04-28T10:50:33Z</time>
      </trkpt>
      <trkpt lat="44.00238" lon="5.1443">
        <ele>222.675</ele>
        <time>2019-04-28T10:50:43Z</time>
      </trkpt>
      <trkpt lat="44.00201" lon="5.14438">
        <ele>222.872</ele>
        <time>2019-04-28T10:50:54Z</time>
      </trkpt>
      <trkpt lat="44.00169" lon="5.14442">
        <ele>223.229</ele>
        <time>2019-04-28T10:51:04Z</time>
      </trkpt>
      <trkpt lat="44.00128" lon="5.14442">
        <ele>225.125</ele>
        <time>2019-04-28T10:51:15Z</time>
      </trkpt>
      <trkpt lat="44.00126" lon="5.14442">
        <ele>225.188</ele>
        <time>2019-04-28T10:51:26Z</time>
      </trkpt>
      <trkpt lat="44.00126" lon="5.14442">
        <ele>225.255</ele>
        <time>2019-04-28T10:51:37Z</time>
      </trkpt>
      <trkpt lat="44.00126" lon="5.14442">
        <ele>225.327</ele>
        <time>2019-04-28T10:51:47Z</time>
      </trkpt>
      <trkpt lat="44.00126" lon="5.14442">
        <ele>225.635</ele>
        <time>2019-04-28T10:51:58Z</time>
      </trkpt>
      <trkpt lat="44.00126" lon="5.14442">
        <ele>225.683</ele>
        <time>2019-04-28T10:52:09Z</time>
      </trkpt>
      <trkpt lat="44.00115" lon="5.1444">
        <ele>226.726</ele>
        <time>2019-04-28T10:52:19Z</time>
      </trkpt>
      <trkpt lat="44.00118" lon="5.14435">
        <ele>226.757</ele>
        <time>2019-04-28T10:52:29Z</time>
      </trkpt>
      <trkpt lat="44.00115" lon="5.14441">
        <ele>227.013</ele>
        <time>2019-04-28T10:52:39Z</time>
      </trkpt>
      <trkpt lat="44.00078" lon="5.14443">
        <ele>227.722</ele>
        <time>2019-04-28T10:52:50Z</time>
      </trkpt>
      <trkpt lat="44.00047" lon="5.14431">
        <ele>227.231</ele>
        <time>2019-04-28T10:53:00Z</time>
      </trkpt>
      <trkpt lat="44.00024" lon="5.14398">
        <ele>227.078</ele>
        <time>2019-04-28T10:53:10Z</time>
      </trkpt>
      <trkpt lat="44.00004" lon="5.14373">
        <ele>227.024</ele>
        <time>2019-04-28T10:53:21Z</time>
      </trkpt>
      <trkpt lat="43.99988" lon="5.14354">
        <ele>228.336</ele>
        <time>2019-04-28T10:53:31Z</time>
      </trkpt>
      <trkpt lat="43.99973" lon="5.14339">
        <ele>230.315</ele>
        <time>2019-04-28T10:53:41Z</time>
      </trkpt>
      <trkpt lat="43.99951" lon="5.14322">
        <ele>232.117</ele>
        <time>2019-04-28T10:53:51Z</time>
      </trkpt>
      <trkpt lat="43.99934" lon="5.14307">
        <ele>234.05</ele>
        <time>2019-04-28T10:54:01Z</time>
      </trkpt>
      <trkpt lat="43.99913" lon="5.14294">
        <ele>235.83</ele>
        <time>2019-04-28T10:54:11Z</time>
      </trkpt>
      <trkpt lat="43.99896" lon="5.1428">
        <ele>237.283</ele>
        <time>2019-04-28T10:54:22Z</time>
      </trkpt>
      <trkpt lat="43.99878" lon="5.1427">
        <ele>239.213</ele>
        <time>2019-04-28T10:54:33Z</time>
      </trkpt>
      <trkpt lat="43.99858" lon="5.14259">
        <ele>240.957</ele>
        <time>2019-04-28T10:54:44Z</time>
      </trkpt>
      <trkpt lat="43.99837" lon="5.1425">
        <ele>242.522</ele>
        <time>2019-04-28T10:54:55Z</time>
      </trkpt>
      <trkpt lat="43.99819" lon="5.14247">
        <ele>243.557</ele>
        <time>2019-04-28T10:55:05Z</time>
      </trkpt>
      <trkpt lat="43.99797" lon="5.14238">
        <ele>245.121</ele>
        <time>2019-04-28T10:55:16Z</time>
      </trkpt>
      <trkpt lat="43.99779" lon="5.14234">
        <ele>246.965</ele>
        <time>2019-04-28T10:55:27Z</time>
      </trkpt>
      <trkpt lat="43.99761" lon="5.14246">
        <ele>248.807</ele>
        <time>2019-04-28T10:55:37Z</time>
      </trkpt>
      <trkpt lat="43.99745" lon="5.14261">
        <ele>250.839</ele>
        <time>2019-04-28T10:55:48Z</time>
      </trkpt>
      <trkpt lat="43.99726" lon="5.14277">
        <ele>252.643</ele>
        <time>2019-04-28T10:55:59Z</time>
      </trkpt>
      <trkpt lat="43.99712" lon="5.14295">
        <ele>254.52</ele>
        <time>2019-04-28T10:56:09Z</time>
      </trkpt>
      <trkpt lat="43.99705" lon="5.14317">
        <ele>256.232</ele>
        <time>2019-04-28T10:56:20Z</time>
      </trkpt>
      <trkpt lat="43.99693" lon="5.14335">
        <ele>257.528</ele>
        <time>2019-04-28T10:56:31Z</time>
      </trkpt>
      <trkpt lat="43.99684" lon="5.14353">
        <ele>258.596</ele>
        <time>2019-04-28T10:56:41Z</time>
      </trkpt>
      <trkpt lat="43.99672" lon="5.14378">
        <ele>259.761</ele>
        <time>2019-04-28T10:56:52Z</time>
      </trkpt>
      <trkpt lat="43.99658" lon="5.14395">
        <ele>261.473</ele>
        <time>2019-04-28T10:57:03Z</time>
      </trkpt>
      <trkpt lat="43.99645" lon="5.14413">
        <ele>263.103</ele>
        <time>2019-04-28T10:57:13Z</time>
      </trkpt>
      <trkpt lat="43.99632" lon="5.14426">
        <ele>265.678</ele>
        <time>2019-04-28T10:57:24Z</time>
      </trkpt>
      <trkpt lat="43.9962" lon="5.14441">
        <ele>268.101</ele>
        <time>2019-04-28T10:57:35Z</time>
      </trkpt>
      <trkpt lat="43.99633" lon="5.14442">
        <ele>271.155</ele>
        <time>2019-04-28T10:57:46Z</time>
      </trkpt>
      <trkpt lat="43.9965" lon="5.14435">
        <ele>273.068</ele>
        <time>2019-04-28T10:57:57Z</time>
      </trkpt>
      <trkpt lat="43.99667" lon="5.14425">
        <ele>274.348</ele>
        <time>2019-04-28T10:58:07Z</time>
      </trkpt>
      <trkpt lat="43.99687" lon="5.14412">
        <ele>275.827</ele>
        <time>2019-04-28T10:58:17Z</time>
      </trkpt>
      <trkpt lat="43.99709" lon="5.14398">
        <ele>277.595</ele>
        <time>2019-04-28T10:58:28Z</time>
      </trkpt>
      <trkpt lat="43.99729" lon="5.14381">
        <ele>279.242</ele>
        <time>2019-04-28T10:58:39Z</time>
      </trkpt>
      <trkpt lat="43.99747" lon="5.14358">
        <ele>281.174</ele>
        <time>2019-04-28T10:58:50Z</time>
      </trkpt>
      <trkpt lat="43.99749" lon="5.14369">
        <ele>285.373</ele>
        <time>2019-04-28T10:59:01Z</time>
      </trkpt>
      <trkpt lat="43.99732" lon="5.14385">
        <ele>287.453</ele>
        <time>2019-04-28T10:59:11Z</time>
      </trkpt>
      <trkpt lat="43.99717" lon="5.14403">
        <ele>288.972</ele>
        <time>2019-04-28T10:59:21Z</time>
      </trkpt>
      <trkpt lat="43.99701" lon="5.14424">
        <ele>291.035</ele>
        <time>2019-04-28T10:59:32Z</time>
      </trkpt>
      <trkpt lat="43.99684" lon="5.14446">
        <ele>292.756</ele>
        <time>2019-04-28T10:59:42Z</time>
      </trkpt>
      <trkpt lat="43.99667" lon="5.14472">
        <ele>294.035</ele>
        <time>2019-04-28T10:59:53Z</time>
      </trkpt>
      <trkpt lat="43.99648" lon="5.14497">
        <ele>294.955</ele>
        <time>2019-04-28T11:00:03Z</time>
      </trkpt>
      <trkpt lat="43.99628" lon="5.1452">
        <ele>296.606</ele>
        <time>2019-04-28T11:00:14Z</time>
      </trkpt>
      <trkpt lat="43.99609" lon="5.14539">
        <ele>298.507</ele>
        <time>2019-04-28T11:00:24Z</time>
      </trkpt>
      <trkpt lat="43.99587" lon="5.14561">
        <ele>300.419</ele>
        <time>2019-04-28T11:00:35Z</time>
      </trkpt>
      <trkpt lat="43.99565" lon="5.14581">
        <ele>302.289</ele>
        <time>2019-04-28T11:00:46Z</time>
      </trkpt>
      <trkpt lat="43.99547" lon="5.146">
        <ele>304.51</ele>
        <time>2019-04-28T11:00:56Z</time>
      </trkpt>
      <trkpt lat="43.99525" lon="5.14621">
        <ele>306.65</ele>
        <time>2019-04-28T11:01:07Z</time>
      </trkpt>
      <trkpt lat="43.99504" lon="5.1463">
        <ele>310.325</ele>
        <time>2019-04-28T11:01:17Z</time>
      </trkpt>
      <trkpt lat="43.99482" lon="5.14647">
        <ele>312.253</ele>
        <time>2019-04-28T11:01:28Z</time>
      </trkpt>
      <trkpt lat="43.99463" lon="5.14655">
        <ele>314.129</ele>
        <time>2019-04-28T11:01:39Z</time>
      </trkpt>
      <trkpt lat="43.99443" lon="5.14663">
        <ele>315.589</ele>
        <time>2019-04-28T11:01:50Z</time>
      </trkpt>
      <trkpt lat="43.99423" lon="5.14669">
        <ele>316.821</ele>
        <time>2019-04-28T11:02:01Z</time>
      </trkpt>
      <trkpt lat="43.99401" lon="5.14678">
        <ele>318.206</ele>
        <time>2019-04-28T11:02:11Z</time>
      </trkpt>
      <trkpt lat="43.99377" lon="5.14683">
        <ele>319.433</ele>
        <time>2019-04-28T11:02:22Z</time>
      </trkpt>
      <trkpt lat="43.99357" lon="5.14689">
        <ele>320.599</ele>
        <time>2019-04-28T11:02:32Z</time>
      </trkpt>
      <trkpt lat="43.99335" lon="5.14697">
        <ele>322.039</ele>
        <time>2019-04-28T11:02:43Z</time>
      </trkpt>
      <trkpt lat="43.99314" lon="5.14702">
        <ele>323.435</ele>
        <time>2019-04-28T11:02:54Z</time>
      </trkpt>
      <trkpt lat="43.99294" lon="5.14719">
        <ele>324.492</ele>
        <time>2019-04-28T11:03:05Z</time>
      </trkpt>
      <trkpt lat="43.99299" lon="5.14737">
        <ele>325.655</ele>
        <time>2019-04-28T11:03:15Z</time>
      </trkpt>
      <trkpt lat="43.99316" lon="5.14739">
        <ele>327.737</ele>
        <time>2019-04-28T11:03:25Z</time>
      </trkpt>
      <trkpt lat="43.9934" lon="5.14734">
        <ele>329.818</ele>
        <time>2019-04-28T11:03:36Z</time>
      </trkpt>
      <trkpt lat="43.99367" lon="5.14736">
        <ele>331.352</ele>
        <time>2019-04-28T11:03:46Z</time>
      </trkpt>
      <trkpt lat="43.99394" lon="5.14736">
        <ele>332.677</ele>
        <time>2019-04-28T11:03:57Z</time>
      </trkpt>
      <trkpt lat="43.99415" lon="5.14735">
        <ele>333.542</ele>
        <time>2019-04-28T11:04:07Z</time>
      </trkpt>
      <trkpt lat="43.99438" lon="5.1473">
        <ele>334.094</ele>
        <time>2019-04-28T11:04:18Z</time>
      </trkpt>
      <trkpt lat="43.99458" lon="5.1473">
        <ele>334.82</ele>
        <time>2019-04-28T11:04:28Z</time>
      </trkpt>
      <trkpt lat="43.99478" lon="5.14724">
        <ele>335.197</ele>
        <time>2019-04-28T11:04:39Z</time>
      </trkpt>
      <trkpt lat="43.99498" lon="5.14711">
        <ele>336.041</ele>
        <time>2019-04-28T11:04:49Z</time>
      </trkpt>
      <trkpt lat="43.99503" lon="5.14706">
        <ele>336.615</ele>
        <time>2019-04-28T11:04:59Z</time>
      </trkpt>
      <trkpt lat="43.99502" lon="5.14698">
        <ele>338.296</ele>
        <time>2019-04-28T11:05:10Z</time>
      </trkpt>
      <trkpt lat="43.99502" lon="5.14701">
        <ele>338.659</ele>
        <time>2019-04-28T11:05:21Z</time>
      </trkpt>
      <trkpt lat="43.99502" lon="5.14698">
        <ele>339.228</ele>
        <time>2019-04-28T11:05:33Z</time>
      </trkpt>
      <trkpt lat="43.99513" lon="5.14694">
        <ele>340.242</ele>
        <time>2019-04-28T11:05:43Z</time>
      </trkpt>
      <trkpt lat="43.99537" lon="5.147">
        <ele>341.525</ele>
        <time>2019-04-28T11:05:53Z</time>
      </trkpt>
      <trkpt lat="43.9955" lon="5.14698">
        <ele>342.632</ele>
        <time>2019-04-28T11:06:04Z</time>
      </trkpt>
      <trkpt lat="43.99554" lon="5.14696">
        <ele>343.214</ele>
        <time>2019-04-28T11:06:15Z</time>
      </trkpt>
      <trkpt lat="43.99559" lon="5.14692">
        <ele>344.053</ele>
        <time>2019-04-28T11:06:26Z</time>
      </trkpt>
      <trkpt lat="43.99571" lon="5.14682">
        <ele>344.177</ele>
        <time>2019-04-28T11:06:37Z</time>
      </trkpt>
      <trkpt lat="43.99582" lon="5.14673">
        <ele>344.827</ele>
        <time>2019-04-28T11:06:48Z</time>
      </trkpt>
      <trkpt lat="43.99599" lon="5.14661">
        <ele>346.277</ele>
        <time>2019-04-28T11:06:58Z</time>
      </trkpt>
      <trkpt lat="43.99621" lon="5.14651">
        <ele>347.636</ele>
        <time>2019-04-28T11:07:09Z</time>
      </trkpt>
      <trkpt lat="43.99632" lon="5.14636">
        <ele>348.182</ele>
        <time>2019-04-28T11:07:20Z</time>
      </trkpt>
      <trkpt lat="43.99647" lon="5.14615">
        <ele>345.316</ele>
        <time>2019-04-28T11:07:31Z</time>
      </trkpt>
      <trkpt lat="43.99658" lon="5.14614">
        <ele>337.792</ele>
        <time>2019-04-28T11:07:41Z</time>
      </trkpt>
      <trkpt lat="43.99668" lon="5.14618">
        <ele>338.563</ele>
        <time>2019-04-28T11:07:52Z</time>
      </trkpt>
      <trkpt lat="43.99682" lon="5.14586">
        <ele>338.057</ele>
        <time>2019-04-28T11:08:02Z</time>
      </trkpt>
      <trkpt lat="43.99682" lon="5.1458">
        <ele>336.533</ele>
        <time>2019-04-28T11:08:13Z</time>
      </trkpt>
      <trkpt lat="43.9968" lon="5.14579">
        <ele>335.404</ele>
        <time>2019-04-28T11:08:25Z</time>
      </trkpt>
      <trkpt lat="43.9968" lon="5.14581">
        <ele>334.82</ele>
        <time>2019-04-28T11:08:35Z</time>
      </trkpt>
      <trkpt lat="43.9968" lon="5.14581">
        <ele>332.781</ele>
        <time>2019-04-28T11:08:46Z</time>
      </trkpt>
      <trkpt lat="43.99679" lon="5.14562">
        <ele>331.972</ele>
        <time>2019-04-28T11:08:56Z</time>
      </trkpt>
      <trkpt lat="43.99689" lon="5.14546">
        <ele>330.908</ele>
        <time>2019-04-28T11:09:06Z</time>
      </trkpt>
      <trkpt lat="43.997" lon="5.14534">
        <ele>329.851</ele>
        <time>2019-04-28T11:09:17Z</time>
      </trkpt>
      <trkpt lat="43.99706" lon="5.14534">
        <ele>330.22</ele>
        <time>2019-04-28T11:09:27Z</time>
      </trkpt>
      <trkpt lat="43.99701" lon="5.14529">
        <ele>331.71</ele>
        <time>2019-04-28T11:09:38Z</time>
      </trkpt>
      <trkpt lat="43.9969" lon="5.14551">
        <ele>331.414</ele>
        <time>2019-04-28T11:09:49Z</time>
      </trkpt>
      <trkpt lat="43.99685" lon="5.14558">
        <ele>330.863</ele>
        <time>2019-04-28T11:10:00Z</time>
      </trkpt>
      <trkpt lat="43.99684" lon="5.14561">
        <ele>331.039</ele>
        <time>2019-04-28T11:10:10Z</time>
      </trkpt>
      <trkpt lat="43.99685" lon="5.14562">
        <ele>331.34</ele>
        <time>2019-04-28T11:10:21Z</time>
      </trkpt>
      <trkpt lat="43.99685" lon="5.14561">
        <ele>331.555</ele>
        <time>2019-04-28T11:10:31Z</time>
      </trkpt>
      <trkpt lat="43.99685" lon="5.14561">
        <ele>331.783</ele>
        <time>2019-04-28T11:10:41Z</time>
      </trkpt>
      <trkpt lat="43.99685" lon="5.14561">
        <ele>332.014</ele>
        <time>2019-04-28T11:10:52Z</time>
      </trkpt>
      <trkpt lat="43.99685" lon="5.14561">
        <ele>332.222</ele>
        <time>2019-04-28T11:11:03Z</time>
      </trkpt>
      <trkpt lat="43.99685" lon="5.14562">
        <ele>332.451</ele>
        <time>2019-04-28T11:11:13Z</time>
      </trkpt>
      <trkpt lat="43.99685" lon="5.14561">
        <ele>332.629</ele>
        <time>2019-04-28T11:11:23Z</time>
      </trkpt>
      <trkpt lat="43.99684" lon="5.14564">
        <ele>333.94</ele>
        <time>2019-04-28T11:11:34Z</time>
      </trkpt>
      <trkpt lat="43.99685" lon="5.14573">
        <ele>334.663</ele>
        <time>2019-04-28T11:11:45Z</time>
      </trkpt>
      <trkpt lat="43.99671" lon="5.14592">
        <ele>334.388</ele>
        <time>2019-04-28T11:11:55Z</time>
      </trkpt>
      <trkpt lat="43.99658" lon="5.14615">
        <ele>328.897</ele>
        <time>2019-04-28T11:12:05Z</time>
      </trkpt>
      <trkpt lat="43.99645" lon="5.14633">
        <ele>329.5</ele>
        <time>2019-04-28T11:12:16Z</time>
      </trkpt>
      <trkpt lat="43.99631" lon="5.14649">
        <ele>331.735</ele>
        <time>2019-04-28T11:12:26Z</time>
      </trkpt>
      <trkpt lat="43.99614" lon="5.14661">
        <ele>332.999</ele>
        <time>2019-04-28T11:12:37Z</time>
      </trkpt>
      <trkpt lat="43.99595" lon="5.1467">
        <ele>334.305</ele>
        <time>2019-04-28T11:12:48Z</time>
      </trkpt>
      <trkpt lat="43.99585" lon="5.1468">
        <ele>338.613</ele>
        <time>2019-04-28T11:12:58Z</time>
      </trkpt>
      <trkpt lat="43.99566" lon="5.14695">
        <ele>339.781</ele>
        <time>2019-04-28T11:13:09Z</time>
      </trkpt>
      <trkpt lat="43.99561" lon="5.14695">
        <ele>339.928</ele>
        <time>2019-04-28T11:13:19Z</time>
      </trkpt>
      <trkpt lat="43.99555" lon="5.14694">
        <ele>339.211</ele>
        <time>2019-04-28T11:13:30Z</time>
      </trkpt>
      <trkpt lat="43.99557" lon="5.14697">
        <ele>337.134</ele>
        <time>2019-04-28T11:13:40Z</time>
      </trkpt>
      <trkpt lat="43.99556" lon="5.14694">
        <ele>336.122</ele>
        <time>2019-04-28T11:13:51Z</time>
      </trkpt>
      <trkpt lat="43.99562" lon="5.14698">
        <ele>335.345</ele>
        <time>2019-04-28T11:14:01Z</time>
      </trkpt>
      <trkpt lat="43.99554" lon="5.14703">
        <ele>334.96</ele>
        <time>2019-04-28T11:14:11Z</time>
      </trkpt>
      <trkpt lat="43.9954" lon="5.14706">
        <ele>336.944</ele>
        <time>2019-04-28T11:14:21Z</time>
      </trkpt>
      <trkpt lat="43.99536" lon="5.14708">
        <ele>339.376</ele>
        <time>2019-04-28T11:14:32Z</time>
      </trkpt>
      <trkpt lat="43.99535" lon="5.14709">
        <ele>341.218</ele>
        <time>2019-04-28T11:14:43Z</time>
      </trkpt>
      <trkpt lat="43.99535" lon="5.14709">
        <ele>341.299</ele>
        <time>2019-04-28T11:14:53Z</time>
      </trkpt>
      <trkpt lat="43.99541" lon="5.14712">
        <ele>341.724</ele>
        <time>2019-04-28T11:15:04Z</time>
      </trkpt>
      <trkpt lat="43.99536" lon="5.14701">
        <ele>343.895</ele>
        <time>2019-04-28T11:15:14Z</time>
      </trkpt>
      <trkpt lat="43.99545" lon="5.1471">
        <ele>344.185</ele>
        <time>2019-04-28T11:15:24Z</time>
      </trkpt>
      <trkpt lat="43.99545" lon="5.1471">
        <ele>344.189</ele>
        <time>2019-04-28T11:15:35Z</time>
      </trkpt>
      <trkpt lat="43.99544" lon="5.14711">
        <ele>344.153</ele>
        <time>2019-04-28T11:15:46Z</time>
      </trkpt>
      <trkpt lat="43.99543" lon="5.14708">
        <ele>346.812</ele>
        <time>2019-04-28T11:15:56Z</time>
      </trkpt>
      <trkpt lat="43.99542" lon="5.14708">
        <ele>346.841</ele>
        <time>2019-04-28T11:16:07Z</time>
      </trkpt>
      <trkpt lat="43.9954" lon="5.14708">
        <ele>346.883</ele>
        <time>2019-04-28T11:16:17Z</time>
      </trkpt>
      <trkpt lat="43.99539" lon="5.14707">
        <ele>346.927</ele>
        <time>2019-04-28T11:16:28Z</time>
      </trkpt>
      <trkpt lat="43.99539" lon="5.14707">
        <ele>346.885</ele>
        <time>2019-04-28T11:16:39Z</time>
      </trkpt>
      <trkpt lat="43.99539" lon="5.14707">
        <ele>346.808</ele>
        <time>2019-04-28T11:16:49Z</time>
      </trkpt>
      <trkpt lat="43.99539" lon="5.14708">
        <ele>346.699</ele>
        <time>2019-04-28T11:17:00Z</time>
      </trkpt>
      <trkpt lat="43.9954" lon="5.14708">
        <ele>346.616</ele>
        <time>2019-04-28T11:17:11Z</time>
      </trkpt>
      <trkpt lat="43.9954" lon="5.14708">
        <ele>346.552</ele>
        <time>2019-04-28T11:17:21Z</time>
      </trkpt>
      <trkpt lat="43.9954" lon="5.14708">
        <ele>346.493</ele>
        <time>2019-04-28T11:17:31Z</time>
      </trkpt>
      <trkpt lat="43.99539" lon="5.14708">
        <ele>346.58</ele>
        <time>2019-04-28T11:17:42Z</time>
      </trkpt>
      <trkpt lat="43.99538" lon="5.14708">
        <ele>346.815</ele>
        <time>2019-04-28T11:17:53Z</time>
      </trkpt>
      <trkpt lat="43.99537" lon="5.14708">
        <ele>346.992</ele>
        <time>2019-04-28T11:18:03Z</time>
      </trkpt>
      <trkpt lat="43.99537" lon="5.14707">
        <ele>347.482</ele>
        <time>2019-04-28T11:18:13Z</time>
      </trkpt>
      <trkpt lat="43.99537" lon="5.14707">
        <ele>347.656</ele>
        <time>2019-04-28T11:18:24Z</time>
      </trkpt>
      <trkpt lat="43.99537" lon="5.14707">
        <ele>347.836</ele>
        <time>2019-04-28T11:18:34Z</time>
      </trkpt>
      <trkpt lat="43.99538" lon="5.14707">
        <ele>347.991</ele>
        <time>2019-04-28T11:18:44Z</time>
      </trkpt>
      <trkpt lat="43.99537" lon="5.14703">
        <ele>348.758</ele>
        <time>2019-04-28T11:18:55Z</time>
      </trkpt>
      <trkpt lat="43.99524" lon="5.14731">
        <ele>346.131</ele>
        <time>2019-04-28T11:19:05Z</time>
      </trkpt>
      <trkpt lat="43.99534" lon="5.14725">
        <ele>346.226</ele>
        <time>2019-04-28T11:19:15Z</time>
      </trkpt>
      <trkpt lat="43.99535" lon="5.14722">
        <ele>346.474</ele>
        <time>2019-04-28T11:19:25Z</time>
      </trkpt>
      <trkpt lat="43.99537" lon="5.14716">
        <ele>346.989</ele>
        <time>2019-04-28T11:19:36Z</time>
      </trkpt>
      <trkpt lat="43.99538" lon="5.14709">
        <ele>354.224</ele>
        <time>2019-04-28T11:19:46Z</time>
      </trkpt>
      <trkpt lat="43.99536" lon="5.14708">
        <ele>355.433</ele>
        <time>2019-04-28T11:19:57Z</time>
      </trkpt>
      <trkpt lat="43.99535" lon="5.14706">
        <ele>354.145</ele>
        <time>2019-04-28T11:20:08Z</time>
      </trkpt>
      <trkpt lat="43.99537" lon="5.14705">
        <ele>354.047</ele>
        <time>2019-04-28T11:20:18Z</time>
      </trkpt>
      <trkpt lat="43.99537" lon="5.14705">
        <ele>354.053</ele>
        <time>2019-04-28T11:20:28Z</time>
      </trkpt>
      <trkpt lat="43.99537" lon="5.14706">
        <ele>354.077</ele>
        <time>2019-04-28T11:20:39Z</time>
      </trkpt>
      <trkpt lat="43.9954" lon="5.14703">
        <ele>353.997</ele>
        <time>2019-04-28T11:20:50Z</time>
      </trkpt>
      <trkpt lat="43.99541" lon="5.14705">
        <ele>363.156</ele>
        <time>2019-04-28T11:21:00Z</time>
      </trkpt>
      <trkpt lat="43.9954" lon="5.14707">
        <ele>362.595</ele>
        <time>2019-04-28T11:21:11Z</time>
      </trkpt>
      <trkpt lat="43.99539" lon="5.14708">
        <ele>361.934</ele>
        <time>2019-04-28T11:21:21Z</time>
      </trkpt>
      <trkpt lat="43.99539" lon="5.14708">
        <ele>361.383</ele>
        <time>2019-04-28T11:21:31Z</time>
      </trkpt>
      <trkpt lat="43.99539" lon="5.14708">
        <ele>361.158</ele>
        <time>2019-04-28T11:21:41Z</time>
      </trkpt>
      <trkpt lat="43.99539" lon="5.14708">
        <ele>360.932</ele>
        <time>2019-04-28T11:21:52Z</time>
      </trkpt>
      <trkpt lat="43.99521" lon="5.14695">
        <ele>364.093</ele>
        <time>2019-04-28T11:22:03Z</time>
      </trkpt>
      <trkpt lat="43.99521" lon="5.14695">
        <ele>384.442</ele>
        <time>2019-04-28T11:22:13Z</time>
      </trkpt>
      <trkpt lat="43.99525" lon="5.14695">
        <ele>384.614</ele>
        <time>2019-04-28T11:22:24Z</time>
      </trkpt>
      <trkpt lat="43.99526" lon="5.14695">
        <ele>384.036</ele>
        <time>2019-04-28T11:22:35Z</time>
      </trkpt>
      <trkpt lat="43.99531" lon="5.14695">
        <ele>383.502</ele>
        <time>2019-04-28T11:22:46Z</time>
      </trkpt>
      <trkpt lat="43.99535" lon="5.147">
        <ele>381.695</ele>
        <time>2019-04-28T11:22:56Z</time>
      </trkpt>
      <trkpt lat="43.99536" lon="5.147">
        <ele>376.209</ele>
        <time>2019-04-28T11:23:08Z</time>
      </trkpt>
      <trkpt lat="43.99538" lon="5.14694">
        <ele>374.312</ele>
        <time>2019-04-28T11:23:20Z</time>
      </trkpt>
      <trkpt lat="43.99538" lon="5.14697">
        <ele>372.583</ele>
        <time>2019-04-28T11:23:31Z</time>
      </trkpt>
      <trkpt lat="43.9954" lon="5.14697">
        <ele>371.657</ele>
        <time>2019-04-28T11:23:41Z</time>
      </trkpt>
      <trkpt lat="43.9954" lon="5.14697">
        <ele>371.33</ele>
        <time>2019-04-28T11:23:51Z</time>
      </trkpt>
      <trkpt lat="43.9954" lon="5.14697">
        <ele>370.936</ele>
        <time>2019-04-28T11:24:02Z</time>
      </trkpt>
      <trkpt lat="43.9954" lon="5.14698">
        <ele>370</ele>
        <time>2019-04-28T11:24:13Z</time>
      </trkpt>
      <trkpt lat="43.99537" lon="5.14703">
        <ele>368.127</ele>
        <time>2019-04-28T11:24:23Z</time>
      </trkpt>
      <trkpt lat="43.99537" lon="5.14705">
        <ele>366.589</ele>
        <time>2019-04-28T11:24:34Z</time>
      </trkpt>
      <trkpt lat="43.99537" lon="5.14705">
        <ele>366.054</ele>
        <time>2019-04-28T11:24:44Z</time>
      </trkpt>
      <trkpt lat="43.99537" lon="5.14704">
        <ele>365.051</ele>
        <time>2019-04-28T11:24:55Z</time>
      </trkpt>
      <trkpt lat="43.99538" lon="5.14702">
        <ele>363.986</ele>
        <time>2019-04-28T11:25:05Z</time>
      </trkpt>
      <trkpt lat="43.99536" lon="5.14703">
        <ele>363.015</ele>
        <time>2019-04-28T11:25:15Z</time>
      </trkpt>
      <trkpt lat="43.99535" lon="5.14704">
        <ele>362.835</ele>
        <time>2019-04-28T11:25:26Z</time>
      </trkpt>
      <trkpt lat="43.99534" lon="5.14705">
        <ele>362.472</ele>
        <time>2019-04-28T11:25:37Z</time>
      </trkpt>
      <trkpt lat="43.99534" lon="5.14706">
        <ele>362.106</ele>
        <time>2019-04-28T11:25:47Z</time>
      </trkpt>
      <trkpt lat="43.99534" lon="5.14706">
        <ele>361.997</ele>
        <time>2019-04-28T11:25:58Z</time>
      </trkpt>
      <trkpt lat="43.99534" lon="5.14705">
        <ele>361.961</ele>
        <time>2019-04-28T11:26:09Z</time>
      </trkpt>
      <trkpt lat="43.99534" lon="5.14705">
        <ele>361.996</ele>
        <time>2019-04-28T11:26:19Z</time>
      </trkpt>
      <trkpt lat="43.99535" lon="5.14704">
        <ele>361.797</ele>
        <time>2019-04-28T11:26:30Z</time>
      </trkpt>
      <trkpt lat="43.99537" lon="5.14701">
        <ele>361.01</ele>
        <time>2019-04-28T11:26:40Z</time>
      </trkpt>
      <trkpt lat="43.99538" lon="5.14701">
        <ele>359.77</ele>
        <time>2019-04-28T11:26:51Z</time>
      </trkpt>
      <trkpt lat="43.99538" lon="5.14706">
        <ele>358.671</ele>
        <time>2019-04-28T11:27:01Z</time>
      </trkpt>
      <trkpt lat="43.99538" lon="5.14706">
        <ele>358.525</ele>
        <time>2019-04-28T11:27:12Z</time>
      </trkpt>
      <trkpt lat="43.99537" lon="5.14707">
        <ele>358.001</ele>
        <time>2019-04-28T11:27:23Z</time>
      </trkpt>
      <trkpt lat="43.99537" lon="5.14708">
        <ele>357.17</ele>
        <time>2019-04-28T11:27:34Z</time>
      </trkpt>
      <trkpt lat="43.99537" lon="5.14708">
        <ele>356.259</ele>
        <time>2019-04-28T11:27:44Z</time>
      </trkpt>
      <trkpt lat="43.99538" lon="5.14708">
        <ele>354.455</ele>
        <time>2019-04-28T11:27:55Z</time>
      </trkpt>
      <trkpt lat="43.99536" lon="5.14707">
        <ele>354.217</ele>
        <time>2019-04-28T11:28:05Z</time>
      </trkpt>
      <trkpt lat="43.99537" lon="5.14707">
        <ele>354.166</ele>
        <time>2019-04-28T11:28:15Z</time>
      </trkpt>
      <trkpt lat="43.99538" lon="5.14704">
        <ele>353.864</ele>
        <time>2019-04-28T11:28:26Z</time>
      </trkpt>
      <trkpt lat="43.9954" lon="5.14704">
        <ele>353.729</ele>
        <time>2019-04-28T11:28:37Z</time>
      </trkpt>
      <trkpt lat="43.9954" lon="5.14704">
        <ele>353.586</ele>
        <time>2019-04-28T11:28:47Z</time>
      </trkpt>
      <trkpt lat="43.99542" lon="5.14703">
        <ele>353.138</ele>
        <time>2019-04-28T11:28:58Z</time>
      </trkpt>
      <trkpt lat="43.99541" lon="5.14703">
        <ele>352.992</ele>
        <time>2019-04-28T11:29:09Z</time>
      </trkpt>
      <trkpt lat="43.99539" lon="5.14705">
        <ele>352.276</ele>
        <time>2019-04-28T11:29:20Z</time>
      </trkpt>
      <trkpt lat="43.99539" lon="5.14705">
        <ele>351.6</ele>
        <time>2019-04-28T11:29:30Z</time>
      </trkpt>
      <trkpt lat="43.99538" lon="5.14709">
        <ele>350.627</ele>
        <time>2019-04-28T11:29:41Z</time>
      </trkpt>
      <trkpt lat="43.99538" lon="5.14708">
        <ele>350.143</ele>
        <time>2019-04-28T11:29:52Z</time>
      </trkpt>
      <trkpt lat="43.99538" lon="5.14707">
        <ele>349.817</ele>
        <time>2019-04-28T11:30:04Z</time>
      </trkpt>
      <trkpt lat="43.99538" lon="5.14706">
        <ele>349.579</ele>
        <time>2019-04-28T11:30:14Z</time>
      </trkpt>
      <trkpt lat="43.99539" lon="5.14707">
        <ele>349.427</ele>
        <time>2019-04-28T11:30:24Z</time>
      </trkpt>
      <trkpt lat="43.99539" lon="5.14707">
        <ele>349.522</ele>
        <time>2019-04-28T11:30:34Z</time>
      </trkpt>
      <trkpt lat="43.9954" lon="5.14707">
        <ele>349.341</ele>
        <time>2019-04-28T11:30:44Z</time>
      </trkpt>
      <trkpt lat="43.9954" lon="5.14708">
        <ele>348.448</ele>
        <time>2019-04-28T11:30:55Z</time>
      </trkpt>
      <trkpt lat="43.99543" lon="5.14711">
        <ele>347.065</ele>
        <time>2019-04-28T11:31:05Z</time>
      </trkpt>
      <trkpt lat="43.99544" lon="5.14708">
        <ele>345.606</ele>
        <time>2019-04-28T11:31:15Z</time>
      </trkpt>
      <trkpt lat="43.99544" lon="5.14707">
        <ele>343.449</ele>
        <time>2019-04-28T11:31:26Z</time>
      </trkpt>
      <trkpt lat="43.99543" lon="5.14703">
        <ele>341.371</ele>
        <time>2019-04-28T11:31:37Z</time>
      </trkpt>
      <trkpt lat="43.99543" lon="5.14702">
        <ele>340.284</ele>
        <time>2019-04-28T11:31:48Z</time>
      </trkpt>
      <trkpt lat="43.99542" lon="5.14701">
        <ele>338.976</ele>
        <time>2019-04-28T11:31:58Z</time>
      </trkpt>
      <trkpt lat="43.99542" lon="5.14702">
        <ele>338.613</ele>
        <time>2019-04-28T11:32:08Z</time>
      </trkpt>
      <trkpt lat="43.99542" lon="5.14703">
        <ele>338.598</ele>
        <time>2019-04-28T11:32:19Z</time>
      </trkpt>
      <trkpt lat="43.99542" lon="5.14704">
        <ele>338.979</ele>
        <time>2019-04-28T11:32:31Z</time>
      </trkpt>
      <trkpt lat="43.9954" lon="5.14706">
        <ele>339.469</ele>
        <time>2019-04-28T11:32:41Z</time>
      </trkpt>
      <trkpt lat="43.99539" lon="5.14707">
        <ele>339.809</ele>
        <time>2019-04-28T11:32:51Z</time>
      </trkpt>
      <trkpt lat="43.99538" lon="5.14707">
        <ele>340.17</ele>
        <time>2019-04-28T11:33:02Z</time>
      </trkpt>
      <trkpt lat="43.99536" lon="5.14708">
        <ele>341</ele>
        <time>2019-04-28T11:33:13Z</time>
      </trkpt>
      <trkpt lat="43.99537" lon="5.14707">
        <ele>341.702</ele>
        <time>2019-04-28T11:33:23Z</time>
      </trkpt>
      <trkpt lat="43.99535" lon="5.14707">
        <ele>342.966</ele>
        <time>2019-04-28T11:33:34Z</time>
      </trkpt>
      <trkpt lat="43.99537" lon="5.14704">
        <ele>343.9</ele>
        <time>2019-04-28T11:33:44Z</time>
      </trkpt>
      <trkpt lat="43.99534" lon="5.14705">
        <ele>344.741</ele>
        <time>2019-04-28T11:33:55Z</time>
      </trkpt>
      <trkpt lat="43.99536" lon="5.14705">
        <ele>345.577</ele>
        <time>2019-04-28T11:34:06Z</time>
      </trkpt>
      <trkpt lat="43.99537" lon="5.14704">
        <ele>345.592</ele>
        <time>2019-04-28T11:34:16Z</time>
      </trkpt>
      <trkpt lat="43.99538" lon="5.14705">
        <ele>345.542</ele>
        <time>2019-04-28T11:34:26Z</time>
      </trkpt>
      <trkpt lat="43.99538" lon="5.14705">
        <ele>345.417</ele>
        <time>2019-04-28T11:34:37Z</time>
      </trkpt>
      <trkpt lat="43.99538" lon="5.14706">
        <ele>345.256</ele>
        <time>2019-04-28T11:34:48Z</time>
      </trkpt>
      <trkpt lat="43.99538" lon="5.14706">
        <ele>345.408</ele>
        <time>2019-04-28T11:34:59Z</time>
      </trkpt>
      <trkpt lat="43.99538" lon="5.14706">
        <ele>345.562</ele>
        <time>2019-04-28T11:35:11Z</time>
      </trkpt>
      <trkpt lat="43.99537" lon="5.14707">
        <ele>345.868</ele>
        <time>2019-04-28T11:35:21Z</time>
      </trkpt>
      <trkpt lat="43.99537" lon="5.14708">
        <ele>346.125</ele>
        <time>2019-04-28T11:35:31Z</time>
      </trkpt>
      <trkpt lat="43.99536" lon="5.14707">
        <ele>346.332</ele>
        <time>2019-04-28T11:35:42Z</time>
      </trkpt>
      <trkpt lat="43.99536" lon="5.14707">
        <ele>346.787</ele>
        <time>2019-04-28T11:35:52Z</time>
      </trkpt>
      <trkpt lat="43.99537" lon="5.14706">
        <ele>347.101</ele>
        <time>2019-04-28T11:36:03Z</time>
      </trkpt>
      <trkpt lat="43.99538" lon="5.14705">
        <ele>347.093</ele>
        <time>2019-04-28T11:36:14Z</time>
      </trkpt>
      <trkpt lat="43.99539" lon="5.14704">
        <ele>347.076</ele>
        <time>2019-04-28T11:36:24Z</time>
      </trkpt>
      <trkpt lat="43.99539" lon="5.14705">
        <ele>347.12</ele>
        <time>2019-04-28T11:36:35Z</time>
      </trkpt>
      <trkpt lat="43.9954" lon="5.14705">
        <ele>347.118</ele>
        <time>2019-04-28T11:36:45Z</time>
      </trkpt>
      <trkpt lat="43.99539" lon="5.14704">
        <ele>347.14</ele>
        <time>2019-04-28T11:36:56Z</time>
      </trkpt>
      <trkpt lat="43.99539" lon="5.14704">
        <ele>347.204</ele>
        <time>2019-04-28T11:37:06Z</time>
      </trkpt>
      <trkpt lat="43.99539" lon="5.14702">
        <ele>347.312</ele>
        <time>2019-04-28T11:37:17Z</time>
      </trkpt>
      <trkpt lat="43.99539" lon="5.14703">
        <ele>347.357</ele>
        <time>2019-04-28T11:37:28Z</time>
      </trkpt>
      <trkpt lat="43.99539" lon="5.14703">
        <ele>347.406</ele>
        <time>2019-04-28T11:37:38Z</time>
      </trkpt>
      <trkpt lat="43.99539" lon="5.14703">
        <ele>347.489</ele>
        <time>2019-04-28T11:37:49Z</time>
      </trkpt>
      <trkpt lat="43.99539" lon="5.14703">
        <ele>347.578</ele>
        <time>2019-04-28T11:38:00Z</time>
      </trkpt>
      <trkpt lat="43.99539" lon="5.14703">
        <ele>347.66</ele>
        <time>2019-04-28T11:38:10Z</time>
      </trkpt>
      <trkpt lat="43.99539" lon="5.14702">
        <ele>347.808</ele>
        <time>2019-04-28T11:38:21Z</time>
      </trkpt>
      <trkpt lat="43.99539" lon="5.14701">
        <ele>347.946</ele>
        <time>2019-04-28T11:38:31Z</time>
      </trkpt>
      <trkpt lat="43.99539" lon="5.14701">
        <ele>348.059</ele>
        <time>2019-04-28T11:38:41Z</time>
      </trkpt>
      <trkpt lat="43.99539" lon="5.147">
        <ele>348.133</ele>
        <time>2019-04-28T11:38:52Z</time>
      </trkpt>
      <trkpt lat="43.9954" lon="5.147">
        <ele>348.185</ele>
        <time>2019-04-28T11:39:02Z</time>
      </trkpt>
      <trkpt lat="43.9954" lon="5.147">
        <ele>348.162</ele>
        <time>2019-04-28T11:39:13Z</time>
      </trkpt>
      <trkpt lat="43.9954" lon="5.147">
        <ele>348.124</ele>
        <time>2019-04-28T11:39:23Z</time>
      </trkpt>
      <trkpt lat="43.99541" lon="5.14701">
        <ele>348.076</ele>
        <time>2019-04-28T11:39:34Z</time>
      </trkpt>
      <trkpt lat="43.99541" lon="5.14702">
        <ele>348.045</ele>
        <time>2019-04-28T11:39:45Z</time>
      </trkpt>
      <trkpt lat="43.99541" lon="5.14703">
        <ele>347.959</ele>
        <time>2019-04-28T11:39:55Z</time>
      </trkpt>
      <trkpt lat="43.99541" lon="5.14703">
        <ele>347.883</ele>
        <time>2019-04-28T11:40:06Z</time>
      </trkpt>
      <trkpt lat="43.9954" lon="5.14704">
        <ele>348.193</ele>
        <time>2019-04-28T11:40:16Z</time>
      </trkpt>
      <trkpt lat="43.99538" lon="5.14705">
        <ele>348.372</ele>
        <time>2019-04-28T11:40:27Z</time>
      </trkpt>
      <trkpt lat="43.99538" lon="5.14705">
        <ele>348.44</ele>
        <time>2019-04-28T11:40:37Z</time>
      </trkpt>
      <trkpt lat="43.99537" lon="5.14708">
        <ele>348.601</ele>
        <time>2019-04-28T11:40:48Z</time>
      </trkpt>
      <trkpt lat="43.99536" lon="5.14709">
        <ele>348.575</ele>
        <time>2019-04-28T11:40:58Z</time>
      </trkpt>
      <trkpt lat="43.99536" lon="5.1471">
        <ele>348.509</ele>
        <time>2019-04-28T11:41:08Z</time>
      </trkpt>
      <trkpt lat="43.99536" lon="5.1471">
        <ele>348.514</ele>
        <time>2019-04-28T11:41:19Z</time>
      </trkpt>
      <trkpt lat="43.99536" lon="5.1471">
        <ele>348.578</ele>
        <time>2019-04-28T11:41:30Z</time>
      </trkpt>
      <trkpt lat="43.99536" lon="5.14711">
        <ele>348.66</ele>
        <time>2019-04-28T11:41:41Z</time>
      </trkpt>
      <trkpt lat="43.99536" lon="5.14713">
        <ele>348.727</ele>
        <time>2019-04-28T11:41:52Z</time>
      </trkpt>
      <trkpt lat="43.99538" lon="5.14713">
        <ele>348.577</ele>
        <time>2019-04-28T11:42:02Z</time>
      </trkpt>
      <trkpt lat="43.99535" lon="5.14711">
        <ele>347.95</ele>
        <time>2019-04-28T11:42:13Z</time>
      </trkpt>
      <trkpt lat="43.99532" lon="5.14714">
        <ele>347.235</ele>
        <time>2019-04-28T11:42:24Z</time>
      </trkpt>
      <trkpt lat="43.99534" lon="5.14714">
        <ele>347.068</ele>
        <time>2019-04-28T11:42:34Z</time>
      </trkpt>
      <trkpt lat="43.99535" lon="5.14713">
        <ele>346.782</ele>
        <time>2019-04-28T11:42:45Z</time>
      </trkpt>
      <trkpt lat="43.99536" lon="5.14713">
        <ele>346.533</ele>
        <time>2019-04-28T11:42:55Z</time>
      </trkpt>
      <trkpt lat="43.99536" lon="5.14718">
        <ele>345.87</ele>
        <time>2019-04-28T11:43:06Z</time>
      </trkpt>
      <trkpt lat="43.99524" lon="5.1473">
        <ele>345.757</ele>
        <time>2019-04-28T11:43:17Z</time>
      </trkpt>
      <trkpt lat="43.99512" lon="5.14739">
        <ele>346.309</ele>
        <time>2019-04-28T11:43:28Z</time>
      </trkpt>
      <trkpt lat="43.995" lon="5.14754">
        <ele>346.903</ele>
        <time>2019-04-28T11:43:39Z</time>
      </trkpt>
      <trkpt lat="43.99497" lon="5.14767">
        <ele>346.812</ele>
        <time>2019-04-28T11:43:49Z</time>
      </trkpt>
      <trkpt lat="43.99479" lon="5.1478">
        <ele>347.462</ele>
        <time>2019-04-28T11:43:59Z</time>
      </trkpt>
      <trkpt lat="43.9947" lon="5.1479">
        <ele>347.69</ele>
        <time>2019-04-28T11:44:10Z</time>
      </trkpt>
      <trkpt lat="43.99469" lon="5.14791">
        <ele>347.674</ele>
        <time>2019-04-28T11:44:21Z</time>
      </trkpt>
      <trkpt lat="43.9946" lon="5.14786">
        <ele>347.199</ele>
        <time>2019-04-28T11:44:31Z</time>
      </trkpt>
      <trkpt lat="43.99445" lon="5.14796">
        <ele>346.672</ele>
        <time>2019-04-28T11:44:42Z</time>
      </trkpt>
      <trkpt lat="43.99435" lon="5.14811">
        <ele>346.431</ele>
        <time>2019-04-28T11:44:53Z</time>
      </trkpt>
      <trkpt lat="43.99437" lon="5.14825">
        <ele>346.102</ele>
        <time>2019-04-28T11:45:04Z</time>
      </trkpt>
      <trkpt lat="43.99439" lon="5.14825">
        <ele>346.057</ele>
        <time>2019-04-28T11:45:15Z</time>
      </trkpt>
      <trkpt lat="43.99439" lon="5.14825">
        <ele>346.079</ele>
        <time>2019-04-28T11:45:25Z</time>
      </trkpt>
      <trkpt lat="43.99437" lon="5.14822">
        <ele>346.171</ele>
        <time>2019-04-28T11:45:36Z</time>
      </trkpt>
      <trkpt lat="43.99424" lon="5.14837">
        <ele>346.928</ele>
        <time>2019-04-28T11:45:47Z</time>
      </trkpt>
      <trkpt lat="43.99414" lon="5.14861">
        <ele>347.504</ele>
        <time>2019-04-28T11:45:58Z</time>
      </trkpt>
      <trkpt lat="43.99399" lon="5.14888">
        <ele>347.694</ele>
        <time>2019-04-28T11:46:08Z</time>
      </trkpt>
      <trkpt lat="43.99385" lon="5.14915">
        <ele>348.146</ele>
        <time>2019-04-28T11:46:19Z</time>
      </trkpt>
      <trkpt lat="43.9937" lon="5.14938">
        <ele>348.667</ele>
        <time>2019-04-28T11:46:29Z</time>
      </trkpt>
      <trkpt lat="43.99354" lon="5.14959">
        <ele>349.315</ele>
        <time>2019-04-28T11:46:39Z</time>
      </trkpt>
      <trkpt lat="43.99344" lon="5.14984">
        <ele>350.261</ele>
        <time>2019-04-28T11:46:49Z</time>
      </trkpt>
      <trkpt lat="43.99326" lon="5.15009">
        <ele>351.696</ele>
        <time>2019-04-28T11:47:00Z</time>
      </trkpt>
      <trkpt lat="43.99311" lon="5.15034">
        <ele>352.851</ele>
        <time>2019-04-28T11:47:10Z</time>
      </trkpt>
      <trkpt lat="43.99295" lon="5.15062">
        <ele>354.03</ele>
        <time>2019-04-28T11:47:21Z</time>
      </trkpt>
      <trkpt lat="43.99282" lon="5.15083">
        <ele>355.011</ele>
        <time>2019-04-28T11:47:32Z</time>
      </trkpt>
      <trkpt lat="43.99274" lon="5.15105">
        <ele>356.012</ele>
        <time>2019-04-28T11:47:42Z</time>
      </trkpt>
      <trkpt lat="43.99259" lon="5.15126">
        <ele>357.553</ele>
        <time>2019-04-28T11:47:53Z</time>
      </trkpt>
      <trkpt lat="43.99246" lon="5.15145">
        <ele>358.861</ele>
        <time>2019-04-28T11:48:04Z</time>
      </trkpt>
      <trkpt lat="43.99237" lon="5.15165">
        <ele>360.125</ele>
        <time>2019-04-28T11:48:15Z</time>
      </trkpt>
      <trkpt lat="43.9923" lon="5.15183">
        <ele>361.949</ele>
        <time>2019-04-28T11:48:25Z</time>
      </trkpt>
      <trkpt lat="43.99227" lon="5.15202">
        <ele>363.593</ele>
        <time>2019-04-28T11:48:35Z</time>
      </trkpt>
      <trkpt lat="43.99226" lon="5.15222">
        <ele>365.781</ele>
        <time>2019-04-28T11:48:46Z</time>
      </trkpt>
      <trkpt lat="43.99227" lon="5.15241">
        <ele>367.894</ele>
        <time>2019-04-28T11:48:56Z</time>
      </trkpt>
      <trkpt lat="43.99227" lon="5.15263">
        <ele>369.845</ele>
        <time>2019-04-28T11:49:07Z</time>
      </trkpt>
      <trkpt lat="43.99223" lon="5.15284">
        <ele>370.942</ele>
        <time>2019-04-28T11:49:17Z</time>
      </trkpt>
      <trkpt lat="43.9922" lon="5.15305">
        <ele>372.453</ele>
        <time>2019-04-28T11:49:28Z</time>
      </trkpt>
      <trkpt lat="43.99217" lon="5.15324">
        <ele>373.846</ele>
        <time>2019-04-28T11:49:38Z</time>
      </trkpt>
      <trkpt lat="43.99216" lon="5.15331">
        <ele>374.4</ele>
        <time>2019-04-28T11:49:49Z</time>
      </trkpt>
      <trkpt lat="43.99216" lon="5.15331">
        <ele>374.54</ele>
        <time>2019-04-28T11:50:00Z</time>
      </trkpt>
      <trkpt lat="43.99216" lon="5.15332">
        <ele>374.672</ele>
        <time>2019-04-28T11:50:11Z</time>
      </trkpt>
      <trkpt lat="43.99215" lon="5.15345">
        <ele>375.912</ele>
        <time>2019-04-28T11:50:21Z</time>
      </trkpt>
      <trkpt lat="43.99212" lon="5.15368">
        <ele>377.377</ele>
        <time>2019-04-28T11:50:32Z</time>
      </trkpt>
      <trkpt lat="43.99205" lon="5.15388">
        <ele>378.434</ele>
        <time>2019-04-28T11:50:42Z</time>
      </trkpt>
      <trkpt lat="43.99197" lon="5.1541">
        <ele>379.578</ele>
        <time>2019-04-28T11:50:52Z</time>
      </trkpt>
      <trkpt lat="43.9919" lon="5.15434">
        <ele>380.752</ele>
        <time>2019-04-28T11:51:03Z</time>
      </trkpt>
      <trkpt lat="43.99185" lon="5.15461">
        <ele>382.21</ele>
        <time>2019-04-28T11:51:14Z</time>
      </trkpt>
      <trkpt lat="43.99171" lon="5.15498">
        <ele>384.765</ele>
        <time>2019-04-28T11:51:25Z</time>
      </trkpt>
      <trkpt lat="43.99149" lon="5.15561">
        <ele>386.596</ele>
        <time>2019-04-28T11:51:36Z</time>
      </trkpt>
      <trkpt lat="43.99145" lon="5.1557">
        <ele>386.568</ele>
        <time>2019-04-28T11:51:46Z</time>
      </trkpt>
      <trkpt lat="43.99145" lon="5.15571">
        <ele>386.285</ele>
        <time>2019-04-28T11:51:59Z</time>
      </trkpt>
      <trkpt lat="43.99142" lon="5.1557">
        <ele>386.104</ele>
        <time>2019-04-28T11:52:09Z</time>
      </trkpt>
      <trkpt lat="43.99129" lon="5.15603">
        <ele>385.721</ele>
        <time>2019-04-28T11:52:20Z</time>
      </trkpt>
      <trkpt lat="43.99119" lon="5.1569">
        <ele>382.902</ele>
        <time>2019-04-28T11:52:31Z</time>
      </trkpt>
      <trkpt lat="43.99075" lon="5.15809">
        <ele>377.536</ele>
        <time>2019-04-28T11:52:42Z</time>
      </trkpt>
      <trkpt lat="43.99018" lon="5.15958">
        <ele>371.714</ele>
        <time>2019-04-28T11:52:53Z</time>
      </trkpt>
      <trkpt lat="43.98948" lon="5.16045">
        <ele>367.737</ele>
        <time>2019-04-28T11:53:04Z</time>
      </trkpt>
      <trkpt lat="43.98872" lon="5.16105">
        <ele>364.874</ele>
        <time>2019-04-28T11:53:14Z</time>
      </trkpt>
      <trkpt lat="43.98862" lon="5.16245">
        <ele>360.655</ele>
        <time>2019-04-28T11:53:24Z</time>
      </trkpt>
      <trkpt lat="43.98885" lon="5.1641">
        <ele>352.984</ele>
        <time>2019-04-28T11:53:34Z</time>
      </trkpt>
      <trkpt lat="43.98891" lon="5.1652">
        <ele>348.52</ele>
        <time>2019-04-28T11:53:45Z</time>
      </trkpt>
      <trkpt lat="43.98889" lon="5.16563">
        <ele>348.109</ele>
        <time>2019-04-28T11:53:55Z</time>
      </trkpt>
      <trkpt lat="43.98898" lon="5.16586">
        <ele>348.463</ele>
        <time>2019-04-28T11:54:06Z</time>
      </trkpt>
      <trkpt lat="43.98913" lon="5.16601">
        <ele>349.171</ele>
        <time>2019-04-28T11:54:17Z</time>
      </trkpt>
      <trkpt lat="43.98931" lon="5.16609">
        <ele>350.028</ele>
        <time>2019-04-28T11:54:27Z</time>
      </trkpt>
      <trkpt lat="43.98952" lon="5.16617">
        <ele>351.21</ele>
        <time>2019-04-28T11:54:38Z</time>
      </trkpt>
      <trkpt lat="43.98975" lon="5.16633">
        <ele>352.369</ele>
        <time>2019-04-28T11:54:48Z</time>
      </trkpt>
      <trkpt lat="43.99016" lon="5.16696">
        <ele>356.023</ele>
        <time>2019-04-28T11:54:59Z</time>
      </trkpt>
      <trkpt lat="43.9901" lon="5.16761">
        <ele>355.835</ele>
        <time>2019-04-28T11:55:09Z</time>
      </trkpt>
      <trkpt lat="43.98988" lon="5.16798">
        <ele>355.58</ele>
        <time>2019-04-28T11:55:20Z</time>
      </trkpt>
      <trkpt lat="43.98969" lon="5.16832">
        <ele>355.327</ele>
        <time>2019-04-28T11:55:30Z</time>
      </trkpt>
      <trkpt lat="43.98948" lon="5.1687">
        <ele>355.089</ele>
        <time>2019-04-28T11:55:41Z</time>
      </trkpt>
      <trkpt lat="43.98928" lon="5.16906">
        <ele>355.018</ele>
        <time>2019-04-28T11:55:52Z</time>
      </trkpt>
      <trkpt lat="43.98911" lon="5.16936">
        <ele>355.09</ele>
        <time>2019-04-28T11:56:02Z</time>
      </trkpt>
      <trkpt lat="43.98892" lon="5.16969">
        <ele>355.345</ele>
        <time>2019-04-28T11:56:13Z</time>
      </trkpt>
      <trkpt lat="43.98875" lon="5.17002">
        <ele>355.799</ele>
        <time>2019-04-28T11:56:24Z</time>
      </trkpt>
      <trkpt lat="43.98857" lon="5.17033">
        <ele>356.39</ele>
        <time>2019-04-28T11:56:35Z</time>
      </trkpt>
      <trkpt lat="43.98838" lon="5.17067">
        <ele>357.16</ele>
        <time>2019-04-28T11:56:46Z</time>
      </trkpt>
      <trkpt lat="43.98814" lon="5.17097">
        <ele>358.064</ele>
        <time>2019-04-28T11:56:57Z</time>
      </trkpt>
      <trkpt lat="43.98792" lon="5.17123">
        <ele>358.986</ele>
        <time>2019-04-28T11:57:07Z</time>
      </trkpt>
      <trkpt lat="43.9877" lon="5.1715">
        <ele>360.001</ele>
        <time>2019-04-28T11:57:17Z</time>
      </trkpt>
      <trkpt lat="43.98747" lon="5.17179">
        <ele>361.146</ele>
        <time>2019-04-28T11:57:28Z</time>
      </trkpt>
      <trkpt lat="43.98747" lon="5.17176">
        <ele>362.435</ele>
        <time>2019-04-28T11:57:39Z</time>
      </trkpt>
      <trkpt lat="43.98747" lon="5.17176">
        <ele>362.795</ele>
        <time>2019-04-28T11:57:51Z</time>
      </trkpt>
      <trkpt lat="43.98747" lon="5.17176">
        <ele>362.94</ele>
        <time>2019-04-28T11:58:02Z</time>
      </trkpt>
      <trkpt lat="43.98747" lon="5.17182">
        <ele>363.52</ele>
        <time>2019-04-28T11:58:12Z</time>
      </trkpt>
      <trkpt lat="43.98738" lon="5.17194">
        <ele>364.789</ele>
        <time>2019-04-28T11:58:22Z</time>
      </trkpt>
      <trkpt lat="43.98714" lon="5.17222">
        <ele>366.145</ele>
        <time>2019-04-28T11:58:33Z</time>
      </trkpt>
      <trkpt lat="43.98691" lon="5.17252">
        <ele>367.226</ele>
        <time>2019-04-28T11:58:43Z</time>
      </trkpt>
      <trkpt lat="43.98665" lon="5.17286">
        <ele>368.301</ele>
        <time>2019-04-28T11:58:54Z</time>
      </trkpt>
      <trkpt lat="43.98643" lon="5.17314">
        <ele>369.291</ele>
        <time>2019-04-28T11:59:04Z</time>
      </trkpt>
      <trkpt lat="43.9862" lon="5.17344">
        <ele>370.382</ele>
        <time>2019-04-28T11:59:15Z</time>
      </trkpt>
      <trkpt lat="43.98598" lon="5.17374">
        <ele>371.934</ele>
        <time>2019-04-28T11:59:26Z</time>
      </trkpt>
      <trkpt lat="43.98571" lon="5.17407">
        <ele>373</ele>
        <time>2019-04-28T11:59:37Z</time>
      </trkpt>
      <trkpt lat="43.98547" lon="5.17438">
        <ele>374.238</ele>
        <time>2019-04-28T11:59:48Z</time>
      </trkpt>
      <trkpt lat="43.98521" lon="5.17469">
        <ele>375.513</ele>
        <time>2019-04-28T11:59:59Z</time>
      </trkpt>
      <trkpt lat="43.98497" lon="5.17496">
        <ele>377.009</ele>
        <time>2019-04-28T12:00:09Z</time>
      </trkpt>
      <trkpt lat="43.98474" lon="5.17528">
        <ele>379.276</ele>
        <time>2019-04-28T12:00:20Z</time>
      </trkpt>
      <trkpt lat="43.98468" lon="5.17566">
        <ele>381.228</ele>
        <time>2019-04-28T12:00:30Z</time>
      </trkpt>
      <trkpt lat="43.98488" lon="5.17603">
        <ele>383.333</ele>
        <time>2019-04-28T12:00:41Z</time>
      </trkpt>
      <trkpt lat="43.98509" lon="5.17629">
        <ele>385.006</ele>
        <time>2019-04-28T12:00:51Z</time>
      </trkpt>
      <trkpt lat="43.98531" lon="5.17656">
        <ele>386.845</ele>
        <time>2019-04-28T12:01:02Z</time>
      </trkpt>
      <trkpt lat="43.98549" lon="5.17677">
        <ele>388.469</ele>
        <time>2019-04-28T12:01:12Z</time>
      </trkpt>
      <trkpt lat="43.98564" lon="5.17697">
        <ele>389.648</ele>
        <time>2019-04-28T12:01:22Z</time>
      </trkpt>
      <trkpt lat="43.98583" lon="5.17718">
        <ele>390.796</ele>
        <time>2019-04-28T12:01:33Z</time>
      </trkpt>
      <trkpt lat="43.98602" lon="5.1774">
        <ele>391.759</ele>
        <time>2019-04-28T12:01:43Z</time>
      </trkpt>
      <trkpt lat="43.9862" lon="5.17776">
        <ele>392.541</ele>
        <time>2019-04-28T12:01:54Z</time>
      </trkpt>
      <trkpt lat="43.98628" lon="5.17818">
        <ele>393.17</ele>
        <time>2019-04-28T12:02:04Z</time>
      </trkpt>
      <trkpt lat="43.98628" lon="5.17862">
        <ele>393.751</ele>
        <time>2019-04-28T12:02:14Z</time>
      </trkpt>
      <trkpt lat="43.9862" lon="5.17912">
        <ele>394.773</ele>
        <time>2019-04-28T12:02:25Z</time>
      </trkpt>
      <trkpt lat="43.98611" lon="5.17959">
        <ele>396.244</ele>
        <time>2019-04-28T12:02:36Z</time>
      </trkpt>
      <trkpt lat="43.98598" lon="5.17995">
        <ele>397.885</ele>
        <time>2019-04-28T12:02:47Z</time>
      </trkpt>
      <trkpt lat="43.9857" lon="5.18003">
        <ele>399.075</ele>
        <time>2019-04-28T12:02:58Z</time>
      </trkpt>
      <trkpt lat="43.98543" lon="5.18007">
        <ele>400.739</ele>
        <time>2019-04-28T12:03:08Z</time>
      </trkpt>
      <trkpt lat="43.98515" lon="5.18009">
        <ele>402.845</ele>
        <time>2019-04-28T12:03:19Z</time>
      </trkpt>
      <trkpt lat="43.98492" lon="5.18009">
        <ele>404.196</ele>
        <time>2019-04-28T12:03:29Z</time>
      </trkpt>
      <trkpt lat="43.98463" lon="5.18012">
        <ele>405.758</ele>
        <time>2019-04-28T12:03:40Z</time>
      </trkpt>
      <trkpt lat="43.9844" lon="5.1804">
        <ele>407.065</ele>
        <time>2019-04-28T12:03:51Z</time>
      </trkpt>
      <trkpt lat="43.98398" lon="5.18079">
        <ele>406.68</ele>
        <time>2019-04-28T12:04:01Z</time>
      </trkpt>
      <trkpt lat="43.98369" lon="5.18065">
        <ele>406.778</ele>
        <time>2019-04-28T12:04:11Z</time>
      </trkpt>
      <trkpt lat="43.98357" lon="5.18052">
        <ele>409.479</ele>
        <time>2019-04-28T12:04:22Z</time>
      </trkpt>
      <trkpt lat="43.98332" lon="5.18049">
        <ele>410.578</ele>
        <time>2019-04-28T12:04:33Z</time>
      </trkpt>
      <trkpt lat="43.98311" lon="5.18055">
        <ele>412.125</ele>
        <time>2019-04-28T12:04:44Z</time>
      </trkpt>
      <trkpt lat="43.98292" lon="5.18059">
        <ele>413.828</ele>
        <time>2019-04-28T12:04:54Z</time>
      </trkpt>
      <trkpt lat="43.98274" lon="5.1804">
        <ele>415.369</ele>
        <time>2019-04-28T12:05:05Z</time>
      </trkpt>
      <trkpt lat="43.98268" lon="5.18031">
        <ele>416.26</ele>
        <time>2019-04-28T12:05:16Z</time>
      </trkpt>
      <trkpt lat="43.98268" lon="5.18032">
        <ele>416.313</ele>
        <time>2019-04-28T12:05:26Z</time>
      </trkpt>
      <trkpt lat="43.98268" lon="5.18032">
        <ele>416.346</ele>
        <time>2019-04-28T12:05:37Z</time>
      </trkpt>
      <trkpt lat="43.98268" lon="5.18033">
        <ele>416.403</ele>
        <time>2019-04-28T12:05:48Z</time>
      </trkpt>
      <trkpt lat="43.98268" lon="5.18033">
        <ele>416.467</ele>
        <time>2019-04-28T12:05:59Z</time>
      </trkpt>
      <trkpt lat="43.98268" lon="5.18033">
        <ele>416.497</ele>
        <time>2019-04-28T12:06:09Z</time>
      </trkpt>
      <trkpt lat="43.98268" lon="5.18033">
        <ele>416.504</ele>
        <time>2019-04-28T12:06:20Z</time>
      </trkpt>
      <trkpt lat="43.98267" lon="5.18033">
        <ele>416.54</ele>
        <time>2019-04-28T12:06:30Z</time>
      </trkpt>
      <trkpt lat="43.98258" lon="5.18021">
        <ele>416.75</ele>
        <time>2019-04-28T12:06:41Z</time>
      </trkpt>
      <trkpt lat="43.98242" lon="5.17998">
        <ele>417.422</ele>
        <time>2019-04-28T12:06:52Z</time>
      </trkpt>
      <trkpt lat="43.98225" lon="5.17979">
        <ele>418.297</ele>
        <time>2019-04-28T12:07:03Z</time>
      </trkpt>
      <trkpt lat="43.98204" lon="5.17979">
        <ele>419.284</ele>
        <time>2019-04-28T12:07:14Z</time>
      </trkpt>
      <trkpt lat="43.98183" lon="5.17988">
        <ele>420.514</ele>
        <time>2019-04-28T12:07:25Z</time>
      </trkpt>
      <trkpt lat="43.98164" lon="5.17996">
        <ele>422.007</ele>
        <time>2019-04-28T12:07:35Z</time>
      </trkpt>
      <trkpt lat="43.98144" lon="5.17993">
        <ele>423.77</ele>
        <time>2019-04-28T12:07:45Z</time>
      </trkpt>
      <trkpt lat="43.98124" lon="5.1798">
        <ele>425.556</ele>
        <time>2019-04-28T12:07:56Z</time>
      </trkpt>
      <trkpt lat="43.98106" lon="5.17967">
        <ele>427.361</ele>
        <time>2019-04-28T12:08:07Z</time>
      </trkpt>
      <trkpt lat="43.98093" lon="5.17947">
        <ele>428.817</ele>
        <time>2019-04-28T12:08:17Z</time>
      </trkpt>
      <trkpt lat="43.98084" lon="5.17919">
        <ele>430.306</ele>
        <time>2019-04-28T12:08:28Z</time>
      </trkpt>
      <trkpt lat="43.98074" lon="5.17898">
        <ele>431.722</ele>
        <time>2019-04-28T12:08:38Z</time>
      </trkpt>
      <trkpt lat="43.98055" lon="5.17892">
        <ele>433.003</ele>
        <time>2019-04-28T12:08:48Z</time>
      </trkpt>
      <trkpt lat="43.98032" lon="5.17888">
        <ele>434.675</ele>
        <time>2019-04-28T12:08:59Z</time>
      </trkpt>
      <trkpt lat="43.98014" lon="5.17898">
        <ele>436.18</ele>
        <time>2019-04-28T12:09:09Z</time>
      </trkpt>
      <trkpt lat="43.97996" lon="5.17919">
        <ele>437.655</ele>
        <time>2019-04-28T12:09:20Z</time>
      </trkpt>
      <trkpt lat="43.9798" lon="5.1794">
        <ele>439.144</ele>
        <time>2019-04-28T12:09:31Z</time>
      </trkpt>
      <trkpt lat="43.97964" lon="5.17959">
        <ele>440.436</ele>
        <time>2019-04-28T12:09:41Z</time>
      </trkpt>
      <trkpt lat="43.97937" lon="5.17982">
        <ele>441.504</ele>
        <time>2019-04-28T12:09:52Z</time>
      </trkpt>
      <trkpt lat="43.97936" lon="5.18039">
        <ele>444.777</ele>
        <time>2019-04-28T12:10:03Z</time>
      </trkpt>
      <trkpt lat="43.97956" lon="5.18104">
        <ele>441.348</ele>
        <time>2019-04-28T12:10:13Z</time>
      </trkpt>
      <trkpt lat="43.97941" lon="5.18172">
        <ele>439.159</ele>
        <time>2019-04-28T12:10:24Z</time>
      </trkpt>
      <trkpt lat="43.97902" lon="5.18197">
        <ele>439.56</ele>
        <time>2019-04-28T12:10:34Z</time>
      </trkpt>
      <trkpt lat="43.9786" lon="5.18203">
        <ele>440.459</ele>
        <time>2019-04-28T12:10:44Z</time>
      </trkpt>
      <trkpt lat="43.97825" lon="5.18203">
        <ele>440.854</ele>
        <time>2019-04-28T12:10:55Z</time>
      </trkpt>
      <trkpt lat="43.97789" lon="5.182">
        <ele>443.026</ele>
        <time>2019-04-28T12:11:05Z</time>
      </trkpt>
      <trkpt lat="43.97753" lon="5.18189">
        <ele>444.254</ele>
        <time>2019-04-28T12:11:16Z</time>
      </trkpt>
      <trkpt lat="43.97723" lon="5.18168">
        <ele>445.422</ele>
        <time>2019-04-28T12:11:27Z</time>
      </trkpt>
      <trkpt lat="43.977" lon="5.18148">
        <ele>447.034</ele>
        <time>2019-04-28T12:11:37Z</time>
      </trkpt>
      <trkpt lat="43.97664" lon="5.1814">
        <ele>450.276</ele>
        <time>2019-04-28T12:11:48Z</time>
      </trkpt>
      <trkpt lat="43.97643" lon="5.18135">
        <ele>453.794</ele>
        <time>2019-04-28T12:11:58Z</time>
      </trkpt>
      <trkpt lat="43.97625" lon="5.18125">
        <ele>457.277</ele>
        <time>2019-04-28T12:12:09Z</time>
      </trkpt>
      <trkpt lat="43.97612" lon="5.18119">
        <ele>459.127</ele>
        <time>2019-04-28T12:12:20Z</time>
      </trkpt>
      <trkpt lat="43.97602" lon="5.18136">
        <ele>459.585</ele>
        <time>2019-04-28T12:12:31Z</time>
      </trkpt>
      <trkpt lat="43.97597" lon="5.18163">
        <ele>459.773</ele>
        <time>2019-04-28T12:12:41Z</time>
      </trkpt>
      <trkpt lat="43.97599" lon="5.18189">
        <ele>460.325</ele>
        <time>2019-04-28T12:12:52Z</time>
      </trkpt>
      <trkpt lat="43.97589" lon="5.18213">
        <ele>461.332</ele>
        <time>2019-04-28T12:13:03Z</time>
      </trkpt>
      <trkpt lat="43.97572" lon="5.18227">
        <ele>462.928</ele>
        <time>2019-04-28T12:13:14Z</time>
      </trkpt>
      <trkpt lat="43.97552" lon="5.18241">
        <ele>464.867</ele>
        <time>2019-04-28T12:13:25Z</time>
      </trkpt>
      <trkpt lat="43.97535" lon="5.18251">
        <ele>467.319</ele>
        <time>2019-04-28T12:13:36Z</time>
      </trkpt>
      <trkpt lat="43.97514" lon="5.18256">
        <ele>468.146</ele>
        <time>2019-04-28T12:13:46Z</time>
      </trkpt>
      <trkpt lat="43.97492" lon="5.1826">
        <ele>469.027</ele>
        <time>2019-04-28T12:13:57Z</time>
      </trkpt>
      <trkpt lat="43.9747" lon="5.18261">
        <ele>470.1</ele>
        <time>2019-04-28T12:14:08Z</time>
      </trkpt>
      <trkpt lat="43.97453" lon="5.18262">
        <ele>471.138</ele>
        <time>2019-04-28T12:14:18Z</time>
      </trkpt>
      <trkpt lat="43.97436" lon="5.18271">
        <ele>471.915</ele>
        <time>2019-04-28T12:14:28Z</time>
      </trkpt>
      <trkpt lat="43.97418" lon="5.18283">
        <ele>472.666</ele>
        <time>2019-04-28T12:14:39Z</time>
      </trkpt>
      <trkpt lat="43.97397" lon="5.18294">
        <ele>473.467</ele>
        <time>2019-04-28T12:14:50Z</time>
      </trkpt>
      <trkpt lat="43.97381" lon="5.18306">
        <ele>474.489</ele>
        <time>2019-04-28T12:15:00Z</time>
      </trkpt>
      <trkpt lat="43.97364" lon="5.18319">
        <ele>475.689</ele>
        <time>2019-04-28T12:15:11Z</time>
      </trkpt>
      <trkpt lat="43.97346" lon="5.18331">
        <ele>476.603</ele>
        <time>2019-04-28T12:15:22Z</time>
      </trkpt>
      <trkpt lat="43.97329" lon="5.18341">
        <ele>477.593</ele>
        <time>2019-04-28T12:15:32Z</time>
      </trkpt>
      <trkpt lat="43.97315" lon="5.18348">
        <ele>478.766</ele>
        <time>2019-04-28T12:15:42Z</time>
      </trkpt>
      <trkpt lat="43.97298" lon="5.18348">
        <ele>480.138</ele>
        <time>2019-04-28T12:15:53Z</time>
      </trkpt>
      <trkpt lat="43.97282" lon="5.18344">
        <ele>481.466</ele>
        <time>2019-04-28T12:16:03Z</time>
      </trkpt>
      <trkpt lat="43.97264" lon="5.1834">
        <ele>483.288</ele>
        <time>2019-04-28T12:16:14Z</time>
      </trkpt>
      <trkpt lat="43.97248" lon="5.18338">
        <ele>486.269</ele>
        <time>2019-04-28T12:16:25Z</time>
      </trkpt>
      <trkpt lat="43.97233" lon="5.18341">
        <ele>488.923</ele>
        <time>2019-04-28T12:16:35Z</time>
      </trkpt>
      <trkpt lat="43.97212" lon="5.18351">
        <ele>492.965</ele>
        <time>2019-04-28T12:16:46Z</time>
      </trkpt>
      <trkpt lat="43.97195" lon="5.18355">
        <ele>497.582</ele>
        <time>2019-04-28T12:16:57Z</time>
      </trkpt>
      <trkpt lat="43.9718" lon="5.1836">
        <ele>500.512</ele>
        <time>2019-04-28T12:17:07Z</time>
      </trkpt>
      <trkpt lat="43.97163" lon="5.18363">
        <ele>501.996</ele>
        <time>2019-04-28T12:17:17Z</time>
      </trkpt>
      <trkpt lat="43.97141" lon="5.18371">
        <ele>502.827</ele>
        <time>2019-04-28T12:17:28Z</time>
      </trkpt>
      <trkpt lat="43.9712" lon="5.18383">
        <ele>503.44</ele>
        <time>2019-04-28T12:17:39Z</time>
      </trkpt>
      <trkpt lat="43.97107" lon="5.18399">
        <ele>504.191</ele>
        <time>2019-04-28T12:17:49Z</time>
      </trkpt>
      <trkpt lat="43.97098" lon="5.1842">
        <ele>504.931</ele>
        <time>2019-04-28T12:17:59Z</time>
      </trkpt>
      <trkpt lat="43.9709" lon="5.18446">
        <ele>505.784</ele>
        <time>2019-04-28T12:18:10Z</time>
      </trkpt>
      <trkpt lat="43.97083" lon="5.18473">
        <ele>506.502</ele>
        <time>2019-04-28T12:18:21Z</time>
      </trkpt>
      <trkpt lat="43.9708" lon="5.18502">
        <ele>507.508</ele>
        <time>2019-04-28T12:18:31Z</time>
      </trkpt>
      <trkpt lat="43.97077" lon="5.18524">
        <ele>508.985</ele>
        <time>2019-04-28T12:18:41Z</time>
      </trkpt>
      <trkpt lat="43.97069" lon="5.1855">
        <ele>510.889</ele>
        <time>2019-04-28T12:18:52Z</time>
      </trkpt>
      <trkpt lat="43.97063" lon="5.1857">
        <ele>512.677</ele>
        <time>2019-04-28T12:19:02Z</time>
      </trkpt>
      <trkpt lat="43.97047" lon="5.18585">
        <ele>514.525</ele>
        <time>2019-04-28T12:19:13Z</time>
      </trkpt>
      <trkpt lat="43.97028" lon="5.18586">
        <ele>516.286</ele>
        <time>2019-04-28T12:19:24Z</time>
      </trkpt>
      <trkpt lat="43.97007" lon="5.18587">
        <ele>518.132</ele>
        <time>2019-04-28T12:19:35Z</time>
      </trkpt>
      <trkpt lat="43.96986" lon="5.18584">
        <ele>519.868</ele>
        <time>2019-04-28T12:19:46Z</time>
      </trkpt>
      <trkpt lat="43.96964" lon="5.18581">
        <ele>520.967</ele>
        <time>2019-04-28T12:19:56Z</time>
      </trkpt>
      <trkpt lat="43.96942" lon="5.18585">
        <ele>522.26</ele>
        <time>2019-04-28T12:20:07Z</time>
      </trkpt>
      <trkpt lat="43.96931" lon="5.18598">
        <ele>523.264</ele>
        <time>2019-04-28T12:20:17Z</time>
      </trkpt>
      <trkpt lat="43.96926" lon="5.18623">
        <ele>523.97</ele>
        <time>2019-04-28T12:20:28Z</time>
      </trkpt>
      <trkpt lat="43.96918" lon="5.18646">
        <ele>524.75</ele>
        <time>2019-04-28T12:20:39Z</time>
      </trkpt>
      <trkpt lat="43.96899" lon="5.1865">
        <ele>526.169</ele>
        <time>2019-04-28T12:20:50Z</time>
      </trkpt>
      <trkpt lat="43.96881" lon="5.1865">
        <ele>528.12</ele>
        <time>2019-04-28T12:21:01Z</time>
      </trkpt>
      <trkpt lat="43.96865" lon="5.18659">
        <ele>529.636</ele>
        <time>2019-04-28T12:21:12Z</time>
      </trkpt>
      <trkpt lat="43.9686" lon="5.1868">
        <ele>530.782</ele>
        <time>2019-04-28T12:21:22Z</time>
      </trkpt>
      <trkpt lat="43.96863" lon="5.18701">
        <ele>532.115</ele>
        <time>2019-04-28T12:21:32Z</time>
      </trkpt>
      <trkpt lat="43.96869" lon="5.18723">
        <ele>533.579</ele>
        <time>2019-04-28T12:21:43Z</time>
      </trkpt>
      <trkpt lat="43.96864" lon="5.18743">
        <ele>535.021</ele>
        <time>2019-04-28T12:21:54Z</time>
      </trkpt>
      <trkpt lat="43.96848" lon="5.18761">
        <ele>536.555</ele>
        <time>2019-04-28T12:22:05Z</time>
      </trkpt>
      <trkpt lat="43.96831" lon="5.18784">
        <ele>538.259</ele>
        <time>2019-04-28T12:22:16Z</time>
      </trkpt>
      <trkpt lat="43.96814" lon="5.18807">
        <ele>539.963</ele>
        <time>2019-04-28T12:22:26Z</time>
      </trkpt>
      <trkpt lat="43.96796" lon="5.18831">
        <ele>541.465</ele>
        <time>2019-04-28T12:22:36Z</time>
      </trkpt>
      <trkpt lat="43.96779" lon="5.18856">
        <ele>543.199</ele>
        <time>2019-04-28T12:22:47Z</time>
      </trkpt>
      <trkpt lat="43.96756" lon="5.1888">
        <ele>544.739</ele>
        <time>2019-04-28T12:22:57Z</time>
      </trkpt>
      <trkpt lat="43.96729" lon="5.18903">
        <ele>546.556</ele>
        <time>2019-04-28T12:23:08Z</time>
      </trkpt>
      <trkpt lat="43.96706" lon="5.18926">
        <ele>548.188</ele>
        <time>2019-04-28T12:23:18Z</time>
      </trkpt>
      <trkpt lat="43.96681" lon="5.18948">
        <ele>549.607</ele>
        <time>2019-04-28T12:23:28Z</time>
      </trkpt>
      <trkpt lat="43.96651" lon="5.18948">
        <ele>551.142</ele>
        <time>2019-04-28T12:23:39Z</time>
      </trkpt>
      <trkpt lat="43.96625" lon="5.18937">
        <ele>552.103</ele>
        <time>2019-04-28T12:23:50Z</time>
      </trkpt>
      <trkpt lat="43.96589" lon="5.18936">
        <ele>553.283</ele>
        <time>2019-04-28T12:24:01Z</time>
      </trkpt>
      <trkpt lat="43.96549" lon="5.18938">
        <ele>554.311</ele>
        <time>2019-04-28T12:24:12Z</time>
      </trkpt>
      <trkpt lat="43.96509" lon="5.18939">
        <ele>555.055</ele>
        <time>2019-04-28T12:24:23Z</time>
      </trkpt>
      <trkpt lat="43.96472" lon="5.18943">
        <ele>555.642</ele>
        <time>2019-04-28T12:24:34Z</time>
      </trkpt>
      <trkpt lat="43.9644" lon="5.18944">
        <ele>556.214</ele>
        <time>2019-04-28T12:24:44Z</time>
      </trkpt>
      <trkpt lat="43.96413" lon="5.18943">
        <ele>556.851</ele>
        <time>2019-04-28T12:24:56Z</time>
      </trkpt>
      <trkpt lat="43.96407" lon="5.18945">
        <ele>557.231</ele>
        <time>2019-04-28T12:25:06Z</time>
      </trkpt>
      <trkpt lat="43.96378" lon="5.18947">
        <ele>557.937</ele>
        <time>2019-04-28T12:25:17Z</time>
      </trkpt>
      <trkpt lat="43.96343" lon="5.18948">
        <ele>558.513</ele>
        <time>2019-04-28T12:25:27Z</time>
      </trkpt>
      <trkpt lat="43.96308" lon="5.18951">
        <ele>559.532</ele>
        <time>2019-04-28T12:25:38Z</time>
      </trkpt>
      <trkpt lat="43.96276" lon="5.18952">
        <ele>560.574</ele>
        <time>2019-04-28T12:25:49Z</time>
      </trkpt>
      <trkpt lat="43.96244" lon="5.18954">
        <ele>561.547</ele>
        <time>2019-04-28T12:26:00Z</time>
      </trkpt>
      <trkpt lat="43.96213" lon="5.18955">
        <ele>562.534</ele>
        <time>2019-04-28T12:26:11Z</time>
      </trkpt>
      <trkpt lat="43.96184" lon="5.18956">
        <ele>563.339</ele>
        <time>2019-04-28T12:26:21Z</time>
      </trkpt>
      <trkpt lat="43.96154" lon="5.18957">
        <ele>564.401</ele>
        <time>2019-04-28T12:26:32Z</time>
      </trkpt>
      <trkpt lat="43.96127" lon="5.1896">
        <ele>565.381</ele>
        <time>2019-04-28T12:26:42Z</time>
      </trkpt>
      <trkpt lat="43.96098" lon="5.18967">
        <ele>566.242</ele>
        <time>2019-04-28T12:26:52Z</time>
      </trkpt>
      <trkpt lat="43.9607" lon="5.18973">
        <ele>567.36</ele>
        <time>2019-04-28T12:27:03Z</time>
      </trkpt>
      <trkpt lat="43.9604" lon="5.18981">
        <ele>568.25</ele>
        <time>2019-04-28T12:27:14Z</time>
      </trkpt>
      <trkpt lat="43.96018" lon="5.18985">
        <ele>569.141</ele>
        <time>2019-04-28T12:27:24Z</time>
      </trkpt>
      <trkpt lat="43.95989" lon="5.18991">
        <ele>570.388</ele>
        <time>2019-04-28T12:27:35Z</time>
      </trkpt>
      <trkpt lat="43.9596" lon="5.18996">
        <ele>571.478</ele>
        <time>2019-04-28T12:27:46Z</time>
      </trkpt>
      <trkpt lat="43.95928" lon="5.19">
        <ele>572.397</ele>
        <time>2019-04-28T12:27:57Z</time>
      </trkpt>
      <trkpt lat="43.95903" lon="5.18996">
        <ele>573.525</ele>
        <time>2019-04-28T12:28:07Z</time>
      </trkpt>
      <trkpt lat="43.95883" lon="5.18989">
        <ele>575.24</ele>
        <time>2019-04-28T12:28:17Z</time>
      </trkpt>
      <trkpt lat="43.95856" lon="5.18985">
        <ele>576.347</ele>
        <time>2019-04-28T12:28:28Z</time>
      </trkpt>
      <trkpt lat="43.9583" lon="5.18992">
        <ele>577.524</ele>
        <time>2019-04-28T12:28:39Z</time>
      </trkpt>
      <trkpt lat="43.95816" lon="5.19017">
        <ele>578.744</ele>
        <time>2019-04-28T12:28:50Z</time>
      </trkpt>
      <trkpt lat="43.95811" lon="5.19049">
        <ele>580.069</ele>
        <time>2019-04-28T12:29:00Z</time>
      </trkpt>
      <trkpt lat="43.95806" lon="5.19089">
        <ele>581.507</ele>
        <time>2019-04-28T12:29:11Z</time>
      </trkpt>
      <trkpt lat="43.95802" lon="5.1912">
        <ele>582.518</ele>
        <time>2019-04-28T12:29:21Z</time>
      </trkpt>
      <trkpt lat="43.95786" lon="5.19149">
        <ele>583.761</ele>
        <time>2019-04-28T12:29:32Z</time>
      </trkpt>
      <trkpt lat="43.95771" lon="5.19171">
        <ele>584.793</ele>
        <time>2019-04-28T12:29:42Z</time>
      </trkpt>
      <trkpt lat="43.95752" lon="5.1919">
        <ele>586.513</ele>
        <time>2019-04-28T12:29:53Z</time>
      </trkpt>
      <trkpt lat="43.95737" lon="5.19211">
        <ele>588.484</ele>
        <time>2019-04-28T12:30:04Z</time>
      </trkpt>
      <trkpt lat="43.95722" lon="5.19237">
        <ele>590.301</ele>
        <time>2019-04-28T12:30:15Z</time>
      </trkpt>
      <trkpt lat="43.95709" lon="5.1927">
        <ele>591.799</ele>
        <time>2019-04-28T12:30:26Z</time>
      </trkpt>
      <trkpt lat="43.95699" lon="5.19303">
        <ele>592.924</ele>
        <time>2019-04-28T12:30:36Z</time>
      </trkpt>
      <trkpt lat="43.95683" lon="5.19338">
        <ele>594.396</ele>
        <time>2019-04-28T12:30:47Z</time>
      </trkpt>
      <trkpt lat="43.95668" lon="5.19373">
        <ele>595.952</ele>
        <time>2019-04-28T12:30:58Z</time>
      </trkpt>
      <trkpt lat="43.95647" lon="5.19405">
        <ele>597.652</ele>
        <time>2019-04-28T12:31:09Z</time>
      </trkpt>
      <trkpt lat="43.95619" lon="5.19425">
        <ele>599.209</ele>
        <time>2019-04-28T12:31:20Z</time>
      </trkpt>
      <trkpt lat="43.95587" lon="5.19439">
        <ele>600.193</ele>
        <time>2019-04-28T12:31:31Z</time>
      </trkpt>
      <trkpt lat="43.95557" lon="5.19453">
        <ele>601.05</ele>
        <time>2019-04-28T12:31:41Z</time>
      </trkpt>
      <trkpt lat="43.95521" lon="5.19466">
        <ele>601.912</ele>
        <time>2019-04-28T12:31:52Z</time>
      </trkpt>
      <trkpt lat="43.95486" lon="5.1948">
        <ele>602.849</ele>
        <time>2019-04-28T12:32:03Z</time>
      </trkpt>
      <trkpt lat="43.95454" lon="5.19491">
        <ele>603.53</ele>
        <time>2019-04-28T12:32:13Z</time>
      </trkpt>
      <trkpt lat="43.9542" lon="5.19497">
        <ele>604.449</ele>
        <time>2019-04-28T12:32:24Z</time>
      </trkpt>
      <trkpt lat="43.95386" lon="5.195">
        <ele>605.338</ele>
        <time>2019-04-28T12:32:34Z</time>
      </trkpt>
      <trkpt lat="43.95353" lon="5.19502">
        <ele>606.281</ele>
        <time>2019-04-28T12:32:44Z</time>
      </trkpt>
      <trkpt lat="43.95316" lon="5.19508">
        <ele>607.195</ele>
        <time>2019-04-28T12:32:55Z</time>
      </trkpt>
      <trkpt lat="43.95281" lon="5.19523">
        <ele>608.605</ele>
        <time>2019-04-28T12:33:06Z</time>
      </trkpt>
      <trkpt lat="43.9525" lon="5.1954">
        <ele>610.688</ele>
        <time>2019-04-28T12:33:17Z</time>
      </trkpt>
      <trkpt lat="43.9522" lon="5.19551">
        <ele>612.257</ele>
        <time>2019-04-28T12:33:27Z</time>
      </trkpt>
      <trkpt lat="43.95191" lon="5.19559">
        <ele>613.501</ele>
        <time>2019-04-28T12:33:38Z</time>
      </trkpt>
      <trkpt lat="43.95165" lon="5.19564">
        <ele>614.48</ele>
        <time>2019-04-28T12:33:48Z</time>
      </trkpt>
      <trkpt lat="43.95137" lon="5.19568">
        <ele>615.669</ele>
        <time>2019-04-28T12:33:59Z</time>
      </trkpt>
      <trkpt lat="43.95105" lon="5.19573">
        <ele>616.888</ele>
        <time>2019-04-28T12:34:10Z</time>
      </trkpt>
      <trkpt lat="43.95076" lon="5.19577">
        <ele>618.237</ele>
        <time>2019-04-28T12:34:21Z</time>
      </trkpt>
      <trkpt lat="43.95051" lon="5.19582">
        <ele>619.625</ele>
        <time>2019-04-28T12:34:31Z</time>
      </trkpt>
      <trkpt lat="43.95031" lon="5.19595">
        <ele>621.399</ele>
        <time>2019-04-28T12:34:41Z</time>
      </trkpt>
      <trkpt lat="43.95037" lon="5.1965">
        <ele>623.035</ele>
        <time>2019-04-28T12:34:52Z</time>
      </trkpt>
      <trkpt lat="43.95046" lon="5.19693">
        <ele>623.636</ele>
        <time>2019-04-28T12:35:03Z</time>
      </trkpt>
      <trkpt lat="43.95056" lon="5.19724">
        <ele>624.451</ele>
        <time>2019-04-28T12:35:14Z</time>
      </trkpt>
      <trkpt lat="43.95062" lon="5.19757">
        <ele>625.842</ele>
        <time>2019-04-28T12:35:25Z</time>
      </trkpt>
      <trkpt lat="43.95069" lon="5.19789">
        <ele>627.475</ele>
        <time>2019-04-28T12:35:36Z</time>
      </trkpt>
      <trkpt lat="43.95076" lon="5.1982">
        <ele>629.031</ele>
        <time>2019-04-28T12:35:47Z</time>
      </trkpt>
      <trkpt lat="43.95085" lon="5.19853">
        <ele>630.029</ele>
        <time>2019-04-28T12:35:58Z</time>
      </trkpt>
      <trkpt lat="43.95089" lon="5.19856">
        <ele>630.868</ele>
        <time>2019-04-28T12:36:09Z</time>
      </trkpt>
      <trkpt lat="43.95087" lon="5.19853">
        <ele>631.71</ele>
        <time>2019-04-28T12:36:19Z</time>
      </trkpt>
      <trkpt lat="43.95087" lon="5.19854">
        <ele>631.981</ele>
        <time>2019-04-28T12:36:30Z</time>
      </trkpt>
      <trkpt lat="43.95089" lon="5.19856">
        <ele>632.255</ele>
        <time>2019-04-28T12:36:40Z</time>
      </trkpt>
      <trkpt lat="43.95097" lon="5.19876">
        <ele>632.828</ele>
        <time>2019-04-28T12:36:50Z</time>
      </trkpt>
      <trkpt lat="43.95114" lon="5.19904">
        <ele>633.369</ele>
        <time>2019-04-28T12:37:01Z</time>
      </trkpt>
      <trkpt lat="43.95137" lon="5.19955">
        <ele>636.52</ele>
        <time>2019-04-28T12:37:12Z</time>
      </trkpt>
      <trkpt lat="43.95161" lon="5.20028">
        <ele>631.56</ele>
        <time>2019-04-28T12:37:22Z</time>
      </trkpt>
      <trkpt lat="43.95205" lon="5.20071">
        <ele>633.076</ele>
        <time>2019-04-28T12:37:33Z</time>
      </trkpt>
      <trkpt lat="43.95229" lon="5.20091">
        <ele>633.671</ele>
        <time>2019-04-28T12:37:44Z</time>
      </trkpt>
      <trkpt lat="43.95238" lon="5.20113">
        <ele>634.418</ele>
        <time>2019-04-28T12:37:54Z</time>
      </trkpt>
      <trkpt lat="43.95243" lon="5.20148">
        <ele>635.083</ele>
        <time>2019-04-28T12:38:05Z</time>
      </trkpt>
      <trkpt lat="43.95246" lon="5.20191">
        <ele>635.572</ele>
        <time>2019-04-28T12:38:16Z</time>
      </trkpt>
      <trkpt lat="43.95253" lon="5.20257">
        <ele>634.401</ele>
        <time>2019-04-28T12:38:26Z</time>
      </trkpt>
      <trkpt lat="43.95281" lon="5.20322">
        <ele>636.66</ele>
        <time>2019-04-28T12:38:37Z</time>
      </trkpt>
      <trkpt lat="43.95324" lon="5.20384">
        <ele>634.804</ele>
        <time>2019-04-28T12:38:49Z</time>
      </trkpt>
      <trkpt lat="43.95363" lon="5.20485">
        <ele>629.312</ele>
        <time>2019-04-28T12:38:59Z</time>
      </trkpt>
      <trkpt lat="43.95435" lon="5.20548">
        <ele>624.042</ele>
        <time>2019-04-28T12:39:10Z</time>
      </trkpt>
      <trkpt lat="43.95453" lon="5.20558">
        <ele>623.998</ele>
        <time>2019-04-28T12:39:21Z</time>
      </trkpt>
      <trkpt lat="43.95473" lon="5.20572">
        <ele>624.171</ele>
        <time>2019-04-28T12:39:32Z</time>
      </trkpt>
      <trkpt lat="43.9549" lon="5.20589">
        <ele>624.447</ele>
        <time>2019-04-28T12:39:42Z</time>
      </trkpt>
      <trkpt lat="43.95503" lon="5.20611">
        <ele>624.829</ele>
        <time>2019-04-28T12:39:52Z</time>
      </trkpt>
      <trkpt lat="43.95509" lon="5.20651">
        <ele>624.93</ele>
        <time>2019-04-28T12:40:02Z</time>
      </trkpt>
      <trkpt lat="43.95475" lon="5.20688">
        <ele>625.288</ele>
        <time>2019-04-28T12:40:12Z</time>
      </trkpt>
      <trkpt lat="43.95438" lon="5.20728">
        <ele>626.297</ele>
        <time>2019-04-28T12:40:23Z</time>
      </trkpt>
      <trkpt lat="43.95391" lon="5.20798">
        <ele>626.868</ele>
        <time>2019-04-28T12:40:34Z</time>
      </trkpt>
      <trkpt lat="43.95324" lon="5.20839">
        <ele>627.812</ele>
        <time>2019-04-28T12:40:45Z</time>
      </trkpt>
      <trkpt lat="43.9528" lon="5.20854">
        <ele>628.46</ele>
        <time>2019-04-28T12:40:56Z</time>
      </trkpt>
      <trkpt lat="43.95227" lon="5.20881">
        <ele>629.609</ele>
        <time>2019-04-28T12:41:06Z</time>
      </trkpt>
      <trkpt lat="43.95137" lon="5.2091">
        <ele>630.23</ele>
        <time>2019-04-28T12:41:17Z</time>
      </trkpt>
      <trkpt lat="43.95049" lon="5.20953">
        <ele>628.289</ele>
        <time>2019-04-28T12:41:27Z</time>
      </trkpt>
      <trkpt lat="43.94954" lon="5.21026">
        <ele>625.257</ele>
        <time>2019-04-28T12:41:37Z</time>
      </trkpt>
      <trkpt lat="43.94836" lon="5.21029">
        <ele>614.747</ele>
        <time>2019-04-28T12:41:48Z</time>
      </trkpt>
      <trkpt lat="43.9473" lon="5.21126">
        <ele>606.596</ele>
        <time>2019-04-28T12:41:59Z</time>
      </trkpt>
      <trkpt lat="43.94636" lon="5.21167">
        <ele>601.082</ele>
        <time>2019-04-28T12:42:09Z</time>
      </trkpt>
      <trkpt lat="43.9453" lon="5.21265">
        <ele>596.017</ele>
        <time>2019-04-28T12:42:20Z</time>
      </trkpt>
      <trkpt lat="43.94452" lon="5.21332">
        <ele>590.915</ele>
        <time>2019-04-28T12:42:31Z</time>
      </trkpt>
      <trkpt lat="43.94429" lon="5.21324">
        <ele>589.899</ele>
        <time>2019-04-28T12:42:41Z</time>
      </trkpt>
      <trkpt lat="43.94386" lon="5.21278">
        <ele>582.741</ele>
        <time>2019-04-28T12:42:52Z</time>
      </trkpt>
      <trkpt lat="43.94342" lon="5.21229">
        <ele>580.249</ele>
        <time>2019-04-28T12:43:03Z</time>
      </trkpt>
      <trkpt lat="43.94294" lon="5.21173">
        <ele>578.538</ele>
        <time>2019-04-28T12:43:14Z</time>
      </trkpt>
      <trkpt lat="43.94248" lon="5.21122">
        <ele>577.178</ele>
        <time>2019-04-28T12:43:24Z</time>
      </trkpt>
      <trkpt lat="43.94196" lon="5.21063">
        <ele>576.19</ele>
        <time>2019-04-28T12:43:35Z</time>
      </trkpt>
      <trkpt lat="43.94149" lon="5.2101">
        <ele>576.635</ele>
        <time>2019-04-28T12:43:46Z</time>
      </trkpt>
      <trkpt lat="43.94103" lon="5.20967">
        <ele>574.744</ele>
        <time>2019-04-28T12:43:56Z</time>
      </trkpt>
      <trkpt lat="43.94042" lon="5.20944">
        <ele>572.997</ele>
        <time>2019-04-28T12:44:07Z</time>
      </trkpt>
      <trkpt lat="43.93979" lon="5.20951">
        <ele>572.25</ele>
        <time>2019-04-28T12:44:17Z</time>
      </trkpt>
      <trkpt lat="43.93909" lon="5.20961">
        <ele>572.081</ele>
        <time>2019-04-28T12:44:28Z</time>
      </trkpt>
      <trkpt lat="43.93841" lon="5.20971">
        <ele>571.189</ele>
        <time>2019-04-28T12:44:38Z</time>
      </trkpt>
      <trkpt lat="43.93761" lon="5.20989">
        <ele>572.161</ele>
        <time>2019-04-28T12:44:49Z</time>
      </trkpt>
      <trkpt lat="43.93673" lon="5.2105">
        <ele>571.851</ele>
        <time>2019-04-28T12:45:00Z</time>
      </trkpt>
      <trkpt lat="43.93587" lon="5.21105">
        <ele>571.884</ele>
        <time>2019-04-28T12:45:11Z</time>
      </trkpt>
      <trkpt lat="43.93473" lon="5.21126">
        <ele>567.758</ele>
        <time>2019-04-28T12:45:21Z</time>
      </trkpt>
      <trkpt lat="43.93355" lon="5.21187">
        <ele>560.47</ele>
        <time>2019-04-28T12:45:31Z</time>
      </trkpt>
      <trkpt lat="43.9323" lon="5.21231">
        <ele>553.307</ele>
        <time>2019-04-28T12:45:41Z</time>
      </trkpt>
      <trkpt lat="43.9313" lon="5.21161">
        <ele>547.245</ele>
        <time>2019-04-28T12:45:52Z</time>
      </trkpt>
      <trkpt lat="43.93035" lon="5.21142">
        <ele>540.642</ele>
        <time>2019-04-28T12:46:03Z</time>
      </trkpt>
      <trkpt lat="43.92963" lon="5.21056">
        <ele>534.189</ele>
        <time>2019-04-28T12:46:13Z</time>
      </trkpt>
      <trkpt lat="43.92885" lon="5.20954">
        <ele>527.038</ele>
        <time>2019-04-28T12:46:24Z</time>
      </trkpt>
      <trkpt lat="43.92837" lon="5.20844">
        <ele>523.641</ele>
        <time>2019-04-28T12:46:35Z</time>
      </trkpt>
      <trkpt lat="43.92809" lon="5.20837">
        <ele>522.294</ele>
        <time>2019-04-28T12:46:46Z</time>
      </trkpt>
      <trkpt lat="43.92809" lon="5.20837">
        <ele>522.179</ele>
        <time>2019-04-28T12:46:56Z</time>
      </trkpt>
      <trkpt lat="43.92809" lon="5.20837">
        <ele>522.002</ele>
        <time>2019-04-28T12:47:06Z</time>
      </trkpt>
      <trkpt lat="43.92809" lon="5.20837">
        <ele>521.773</ele>
        <time>2019-04-28T12:47:17Z</time>
      </trkpt>
      <trkpt lat="43.92809" lon="5.20837">
        <ele>521.322</ele>
        <time>2019-04-28T12:47:28Z</time>
      </trkpt>
      <trkpt lat="43.92808" lon="5.20845">
        <ele>519.866</ele>
        <time>2019-04-28T12:47:38Z</time>
      </trkpt>
      <trkpt lat="43.92808" lon="5.2085">
        <ele>518.411</ele>
        <time>2019-04-28T12:47:49Z</time>
      </trkpt>
      <trkpt lat="43.92808" lon="5.2085">
        <ele>517.144</ele>
        <time>2019-04-28T12:47:59Z</time>
      </trkpt>
      <trkpt lat="43.92808" lon="5.2085">
        <ele>516.694</ele>
        <time>2019-04-28T12:48:10Z</time>
      </trkpt>
      <trkpt lat="43.9281" lon="5.20853">
        <ele>513.687</ele>
        <time>2019-04-28T12:48:21Z</time>
      </trkpt>
      <trkpt lat="43.9281" lon="5.20853">
        <ele>513.215</ele>
        <time>2019-04-28T12:48:32Z</time>
      </trkpt>
      <trkpt lat="43.9281" lon="5.20853">
        <ele>513.05</ele>
        <time>2019-04-28T12:48:43Z</time>
      </trkpt>
      <trkpt lat="43.92809" lon="5.20852">
        <ele>512.406</ele>
        <time>2019-04-28T12:48:53Z</time>
      </trkpt>
      <trkpt lat="43.92809" lon="5.20842">
        <ele>511.31</ele>
        <time>2019-04-28T12:49:04Z</time>
      </trkpt>
      <trkpt lat="43.9281" lon="5.20847">
        <ele>509.233</ele>
        <time>2019-04-28T12:49:14Z</time>
      </trkpt>
      <trkpt lat="43.92807" lon="5.20847">
        <ele>508.668</ele>
        <time>2019-04-28T12:49:24Z</time>
      </trkpt>
      <trkpt lat="43.92807" lon="5.20838">
        <ele>508.001</ele>
        <time>2019-04-28T12:49:35Z</time>
      </trkpt>
      <trkpt lat="43.92795" lon="5.20816">
        <ele>507.193</ele>
        <time>2019-04-28T12:49:45Z</time>
      </trkpt>
      <trkpt lat="43.92764" lon="5.20797">
        <ele>505.128</ele>
        <time>2019-04-28T12:49:55Z</time>
      </trkpt>
      <trkpt lat="43.92709" lon="5.20759">
        <ele>503.406</ele>
        <time>2019-04-28T12:50:06Z</time>
      </trkpt>
      <trkpt lat="43.92669" lon="5.20672">
        <ele>501.984</ele>
        <time>2019-04-28T12:50:17Z</time>
      </trkpt>
      <trkpt lat="43.92622" lon="5.20565">
        <ele>499.823</ele>
        <time>2019-04-28T12:50:28Z</time>
      </trkpt>
      <trkpt lat="43.9257" lon="5.20465">
        <ele>497.854</ele>
        <time>2019-04-28T12:50:38Z</time>
      </trkpt>
      <trkpt lat="43.92469" lon="5.20423">
        <ele>494.403</ele>
        <time>2019-04-28T12:50:49Z</time>
      </trkpt>
      <trkpt lat="43.9238" lon="5.2039">
        <ele>491.486</ele>
        <time>2019-04-28T12:50:59Z</time>
      </trkpt>
      <trkpt lat="43.92271" lon="5.204">
        <ele>490.132</ele>
        <time>2019-04-28T12:51:10Z</time>
      </trkpt>
      <trkpt lat="43.92175" lon="5.2035">
        <ele>487.521</ele>
        <time>2019-04-28T12:51:21Z</time>
      </trkpt>
      <trkpt lat="43.92086" lon="5.20285">
        <ele>484.054</ele>
        <time>2019-04-28T12:51:32Z</time>
      </trkpt>
      <trkpt lat="43.91987" lon="5.20248">
        <ele>479.898</ele>
        <time>2019-04-28T12:51:43Z</time>
      </trkpt>
      <trkpt lat="43.91889" lon="5.20251">
        <ele>477.017</ele>
        <time>2019-04-28T12:51:53Z</time>
      </trkpt>
      <trkpt lat="43.91783" lon="5.20189">
        <ele>468.22</ele>
        <time>2019-04-28T12:52:04Z</time>
      </trkpt>
      <trkpt lat="43.91666" lon="5.20154">
        <ele>465.277</ele>
        <time>2019-04-28T12:52:14Z</time>
      </trkpt>
      <trkpt lat="43.91531" lon="5.20104">
        <ele>457.584</ele>
        <time>2019-04-28T12:52:25Z</time>
      </trkpt>
      <trkpt lat="43.91419" lon="5.20057">
        <ele>452.038</ele>
        <time>2019-04-28T12:52:35Z</time>
      </trkpt>
      <trkpt lat="43.91316" lon="5.20058">
        <ele>443.696</ele>
        <time>2019-04-28T12:52:46Z</time>
      </trkpt>
      <trkpt lat="43.91234" lon="5.20004">
        <ele>433.738</ele>
        <time>2019-04-28T12:52:56Z</time>
      </trkpt>
      <trkpt lat="43.91163" lon="5.19986">
        <ele>426.68</ele>
        <time>2019-04-28T12:53:07Z</time>
      </trkpt>
      <trkpt lat="43.91145" lon="5.1997">
        <ele>425.334</ele>
        <time>2019-04-28T12:53:17Z</time>
      </trkpt>
      <trkpt lat="43.91146" lon="5.19969">
        <ele>424.065</ele>
        <time>2019-04-28T12:53:28Z</time>
      </trkpt>
      <trkpt lat="43.91146" lon="5.19969">
        <ele>423.763</ele>
        <time>2019-04-28T12:53:38Z</time>
      </trkpt>
      <trkpt lat="43.91146" lon="5.19969">
        <ele>423.38</ele>
        <time>2019-04-28T12:53:49Z</time>
      </trkpt>
      <trkpt lat="43.91146" lon="5.19969">
        <ele>422.966</ele>
        <time>2019-04-28T12:54:00Z</time>
      </trkpt>
      <trkpt lat="43.91146" lon="5.19969">
        <ele>422.576</ele>
        <time>2019-04-28T12:54:10Z</time>
      </trkpt>
      <trkpt lat="43.91146" lon="5.19969">
        <ele>422.184</ele>
        <time>2019-04-28T12:54:20Z</time>
      </trkpt>
      <trkpt lat="43.91146" lon="5.19969">
        <ele>421.753</ele>
        <time>2019-04-28T12:54:31Z</time>
      </trkpt>
      <trkpt lat="43.91146" lon="5.19969">
        <ele>421.362</ele>
        <time>2019-04-28T12:54:41Z</time>
      </trkpt>
      <trkpt lat="43.91146" lon="5.19969">
        <ele>420.928</ele>
        <time>2019-04-28T12:54:52Z</time>
      </trkpt>
      <trkpt lat="43.91146" lon="5.19969">
        <ele>419.851</ele>
        <time>2019-04-28T12:55:02Z</time>
      </trkpt>
      <trkpt lat="43.91146" lon="5.19969">
        <ele>419.469</ele>
        <time>2019-04-28T12:55:13Z</time>
      </trkpt>
      <trkpt lat="43.91146" lon="5.19969">
        <ele>419.118</ele>
        <time>2019-04-28T12:55:24Z</time>
      </trkpt>
      <trkpt lat="43.91146" lon="5.19969">
        <ele>418.793</ele>
        <time>2019-04-28T12:55:35Z</time>
      </trkpt>
      <trkpt lat="43.91146" lon="5.19969">
        <ele>418.49</ele>
        <time>2019-04-28T12:55:46Z</time>
      </trkpt>
      <trkpt lat="43.91146" lon="5.19969">
        <ele>418.227</ele>
        <time>2019-04-28T12:55:56Z</time>
      </trkpt>
      <trkpt lat="43.91146" lon="5.19969">
        <ele>417.971</ele>
        <time>2019-04-28T12:56:06Z</time>
      </trkpt>
      <trkpt lat="43.91146" lon="5.19969">
        <ele>417.691</ele>
        <time>2019-04-28T12:56:17Z</time>
      </trkpt>
      <trkpt lat="43.91146" lon="5.19969">
        <ele>417.403</ele>
        <time>2019-04-28T12:56:28Z</time>
      </trkpt>
      <trkpt lat="43.91146" lon="5.19969">
        <ele>417.107</ele>
        <time>2019-04-28T12:56:39Z</time>
      </trkpt>
      <trkpt lat="43.91146" lon="5.19969">
        <ele>416.827</ele>
        <time>2019-04-28T12:56:49Z</time>
      </trkpt>
      <trkpt lat="43.91146" lon="5.19969">
        <ele>416.536</ele>
        <time>2019-04-28T12:56:59Z</time>
      </trkpt>
      <trkpt lat="43.91146" lon="5.19969">
        <ele>416.212</ele>
        <time>2019-04-28T12:57:10Z</time>
      </trkpt>
      <trkpt lat="43.91146" lon="5.19969">
        <ele>415.888</ele>
        <time>2019-04-28T12:57:21Z</time>
      </trkpt>
      <trkpt lat="43.91146" lon="5.19969">
        <ele>415.568</ele>
        <time>2019-04-28T12:57:32Z</time>
      </trkpt>
      <trkpt lat="43.91146" lon="5.19969">
        <ele>415.254</ele>
        <time>2019-04-28T12:57:43Z</time>
      </trkpt>
      <trkpt lat="43.91146" lon="5.19969">
        <ele>414.951</ele>
        <time>2019-04-28T12:57:54Z</time>
      </trkpt>
      <trkpt lat="43.91145" lon="5.19971">
        <ele>414.664</ele>
        <time>2019-04-28T12:58:05Z</time>
      </trkpt>
      <trkpt lat="43.91145" lon="5.19971">
        <ele>414.398</ele>
        <time>2019-04-28T12:58:16Z</time>
      </trkpt>
      <trkpt lat="43.91145" lon="5.19971">
        <ele>414.123</ele>
        <time>2019-04-28T12:58:27Z</time>
      </trkpt>
      <trkpt lat="43.91145" lon="5.19971">
        <ele>413.861</ele>
        <time>2019-04-28T12:58:37Z</time>
      </trkpt>
      <trkpt lat="43.91145" lon="5.19971">
        <ele>413.602</ele>
        <time>2019-04-28T12:58:47Z</time>
      </trkpt>
      <trkpt lat="43.91144" lon="5.19971">
        <ele>413.328</ele>
        <time>2019-04-28T12:58:58Z</time>
      </trkpt>
      <trkpt lat="43.91143" lon="5.19971">
        <ele>413.066</ele>
        <time>2019-04-28T12:59:09Z</time>
      </trkpt>
      <trkpt lat="43.91143" lon="5.19972">
        <ele>412.839</ele>
        <time>2019-04-28T12:59:19Z</time>
      </trkpt>
      <trkpt lat="43.91143" lon="5.19972">
        <ele>412.598</ele>
        <time>2019-04-28T12:59:30Z</time>
      </trkpt>
      <trkpt lat="43.91142" lon="5.19971">
        <ele>412.432</ele>
        <time>2019-04-28T12:59:41Z</time>
      </trkpt>
      <trkpt lat="43.91142" lon="5.19971">
        <ele>412.329</ele>
        <time>2019-04-28T12:59:52Z</time>
      </trkpt>
      <trkpt lat="43.91142" lon="5.19971">
        <ele>412.23</ele>
        <time>2019-04-28T13:00:02Z</time>
      </trkpt>
      <trkpt lat="43.91142" lon="5.19971">
        <ele>412.104</ele>
        <time>2019-04-28T13:00:13Z</time>
      </trkpt>
      <trkpt lat="43.91142" lon="5.19971">
        <ele>411.974</ele>
        <time>2019-04-28T13:00:24Z</time>
      </trkpt>
      <trkpt lat="43.91142" lon="5.19971">
        <ele>411.851</ele>
        <time>2019-04-28T13:00:35Z</time>
      </trkpt>
      <trkpt lat="43.91142" lon="5.19971">
        <ele>411.737</ele>
        <time>2019-04-28T13:00:45Z</time>
      </trkpt>
      <trkpt lat="43.91143" lon="5.19971">
        <ele>411.607</ele>
        <time>2019-04-28T13:00:56Z</time>
      </trkpt>
      <trkpt lat="43.91143" lon="5.19971">
        <ele>411.48</ele>
        <time>2019-04-28T13:01:06Z</time>
      </trkpt>
      <trkpt lat="43.91143" lon="5.19971">
        <ele>411.348</ele>
        <time>2019-04-28T13:01:16Z</time>
      </trkpt>
      <trkpt lat="43.91143" lon="5.19971">
        <ele>411.174</ele>
        <time>2019-04-28T13:01:27Z</time>
      </trkpt>
      <trkpt lat="43.91143" lon="5.19972">
        <ele>410.96</ele>
        <time>2019-04-28T13:01:38Z</time>
      </trkpt>
      <trkpt lat="43.91143" lon="5.19972">
        <ele>410.727</ele>
        <time>2019-04-28T13:01:49Z</time>
      </trkpt>
      <trkpt lat="43.91143" lon="5.19973">
        <ele>410.489</ele>
        <time>2019-04-28T13:02:00Z</time>
      </trkpt>
      <trkpt lat="43.91143" lon="5.19973">
        <ele>410.29</ele>
        <time>2019-04-28T13:02:10Z</time>
      </trkpt>
      <trkpt lat="43.91143" lon="5.19972">
        <ele>410.12</ele>
        <time>2019-04-28T13:02:21Z</time>
      </trkpt>
      <trkpt lat="43.91142" lon="5.19972">
        <ele>409.966</ele>
        <time>2019-04-28T13:02:32Z</time>
      </trkpt>
      <trkpt lat="43.91142" lon="5.19972">
        <ele>409.816</ele>
        <time>2019-04-28T13:02:43Z</time>
      </trkpt>
      <trkpt lat="43.91142" lon="5.19972">
        <ele>409.673</ele>
        <time>2019-04-28T13:02:54Z</time>
      </trkpt>
      <trkpt lat="43.91142" lon="5.19972">
        <ele>409.542</ele>
        <time>2019-04-28T13:03:04Z</time>
      </trkpt>
      <trkpt lat="43.91143" lon="5.19972">
        <ele>409.391</ele>
        <time>2019-04-28T13:03:15Z</time>
      </trkpt>
      <trkpt lat="43.91143" lon="5.19973">
        <ele>409.224</ele>
        <time>2019-04-28T13:03:25Z</time>
      </trkpt>
      <trkpt lat="43.91143" lon="5.19973">
        <ele>409.03</ele>
        <time>2019-04-28T13:03:36Z</time>
      </trkpt>
      <trkpt lat="43.91144" lon="5.19973">
        <ele>408.845</ele>
        <time>2019-04-28T13:03:46Z</time>
      </trkpt>
      <trkpt lat="43.91144" lon="5.19973">
        <ele>408.654</ele>
        <time>2019-04-28T13:03:57Z</time>
      </trkpt>
      <trkpt lat="43.91144" lon="5.19973">
        <ele>408.495</ele>
        <time>2019-04-28T13:04:07Z</time>
      </trkpt>
      <trkpt lat="43.91144" lon="5.19972">
        <ele>408.374</ele>
        <time>2019-04-28T13:04:18Z</time>
      </trkpt>
      <trkpt lat="43.91144" lon="5.19972">
        <ele>408.282</ele>
        <time>2019-04-28T13:04:29Z</time>
      </trkpt>
      <trkpt lat="43.91144" lon="5.19971">
        <ele>408.207</ele>
        <time>2019-04-28T13:04:39Z</time>
      </trkpt>
      <trkpt lat="43.91144" lon="5.19971">
        <ele>408.12</ele>
        <time>2019-04-28T13:04:50Z</time>
      </trkpt>
      <trkpt lat="43.91144" lon="5.19971">
        <ele>408.044</ele>
        <time>2019-04-28T13:05:01Z</time>
      </trkpt>
      <trkpt lat="43.91144" lon="5.19972">
        <ele>407.956</ele>
        <time>2019-04-28T13:05:12Z</time>
      </trkpt>
      <trkpt lat="43.91145" lon="5.19972">
        <ele>407.853</ele>
        <time>2019-04-28T13:05:22Z</time>
      </trkpt>
      <trkpt lat="43.91145" lon="5.19971">
        <ele>407.754</ele>
        <time>2019-04-28T13:05:33Z</time>
      </trkpt>
      <trkpt lat="43.91145" lon="5.19971">
        <ele>407.676</ele>
        <time>2019-04-28T13:05:44Z</time>
      </trkpt>
      <trkpt lat="43.91144" lon="5.1997">
        <ele>407.618</ele>
        <time>2019-04-28T13:05:54Z</time>
      </trkpt>
      <trkpt lat="43.91145" lon="5.1997">
        <ele>407.499</ele>
        <time>2019-04-28T13:06:05Z</time>
      </trkpt>
      <trkpt lat="43.91145" lon="5.1997">
        <ele>407.359</ele>
        <time>2019-04-28T13:06:16Z</time>
      </trkpt>
      <trkpt lat="43.91145" lon="5.1997">
        <ele>407.259</ele>
        <time>2019-04-28T13:06:26Z</time>
      </trkpt>
      <trkpt lat="43.91145" lon="5.1997">
        <ele>407.13</ele>
        <time>2019-04-28T13:06:37Z</time>
      </trkpt>
      <trkpt lat="43.91145" lon="5.1997">
        <ele>407.008</ele>
        <time>2019-04-28T13:06:47Z</time>
      </trkpt>
      <trkpt lat="43.91145" lon="5.1997">
        <ele>406.892</ele>
        <time>2019-04-28T13:06:58Z</time>
      </trkpt>
      <trkpt lat="43.91145" lon="5.1997">
        <ele>406.809</ele>
        <time>2019-04-28T13:07:09Z</time>
      </trkpt>
      <trkpt lat="43.91145" lon="5.1997">
        <ele>406.724</ele>
        <time>2019-04-28T13:07:20Z</time>
      </trkpt>
      <trkpt lat="43.91145" lon="5.1997">
        <ele>406.645</ele>
        <time>2019-04-28T13:07:31Z</time>
      </trkpt>
      <trkpt lat="43.91145" lon="5.19969">
        <ele>406.564</ele>
        <time>2019-04-28T13:07:41Z</time>
      </trkpt>
      <trkpt lat="43.91145" lon="5.19969">
        <ele>406.511</ele>
        <time>2019-04-28T13:07:52Z</time>
      </trkpt>
      <trkpt lat="43.91145" lon="5.19969">
        <ele>406.479</ele>
        <time>2019-04-28T13:08:02Z</time>
      </trkpt>
      <trkpt lat="43.91146" lon="5.19969">
        <ele>406.404</ele>
        <time>2019-04-28T13:08:13Z</time>
      </trkpt>
      <trkpt lat="43.91146" lon="5.19969">
        <ele>406.344</ele>
        <time>2019-04-28T13:08:24Z</time>
      </trkpt>
      <trkpt lat="43.91145" lon="5.19969">
        <ele>406.305</ele>
        <time>2019-04-28T13:08:34Z</time>
      </trkpt>
      <trkpt lat="43.91145" lon="5.19969">
        <ele>406.267</ele>
        <time>2019-04-28T13:08:44Z</time>
      </trkpt>
      <trkpt lat="43.91145" lon="5.19969">
        <ele>406.24</ele>
        <time>2019-04-28T13:08:55Z</time>
      </trkpt>
      <trkpt lat="43.91146" lon="5.1998">
        <ele>406.261</ele>
        <time>2019-04-28T13:09:06Z</time>
      </trkpt>
      <trkpt lat="43.91145" lon="5.19981">
        <ele>406.181</ele>
        <time>2019-04-28T13:09:17Z</time>
      </trkpt>
      <trkpt lat="43.91131" lon="5.19972">
        <ele>408.488</ele>
        <time>2019-04-28T13:09:28Z</time>
      </trkpt>
      <trkpt lat="43.91135" lon="5.19978">
        <ele>408.933</ele>
        <time>2019-04-28T13:09:38Z</time>
      </trkpt>
      <trkpt lat="43.91137" lon="5.19978">
        <ele>408.873</ele>
        <time>2019-04-28T13:09:48Z</time>
      </trkpt>
      <trkpt lat="43.91139" lon="5.19978">
        <ele>408.588</ele>
        <time>2019-04-28T13:09:58Z</time>
      </trkpt>
      <trkpt lat="43.91142" lon="5.19979">
        <ele>407.993</ele>
        <time>2019-04-28T13:10:09Z</time>
      </trkpt>
      <trkpt lat="43.91142" lon="5.19979">
        <ele>407.803</ele>
        <time>2019-04-28T13:10:20Z</time>
      </trkpt>
      <trkpt lat="43.91143" lon="5.1998">
        <ele>407.479</ele>
        <time>2019-04-28T13:10:31Z</time>
      </trkpt>
      <trkpt lat="43.91144" lon="5.19981">
        <ele>406.716</ele>
        <time>2019-04-28T13:10:41Z</time>
      </trkpt>
      <trkpt lat="43.91146" lon="5.19981">
        <ele>406.312</ele>
        <time>2019-04-28T13:10:52Z</time>
      </trkpt>
      <trkpt lat="43.91149" lon="5.19979">
        <ele>405.35</ele>
        <time>2019-04-28T13:11:03Z</time>
      </trkpt>
      <trkpt lat="43.91148" lon="5.19979">
        <ele>404.815</ele>
        <time>2019-04-28T13:11:14Z</time>
      </trkpt>
      <trkpt lat="43.91151" lon="5.19972">
        <ele>404.22</ele>
        <time>2019-04-28T13:11:25Z</time>
      </trkpt>
      <trkpt lat="43.91153" lon="5.1997">
        <ele>403.264</ele>
        <time>2019-04-28T13:11:35Z</time>
      </trkpt>
      <trkpt lat="43.91155" lon="5.1997">
        <ele>401.705</ele>
        <time>2019-04-28T13:11:46Z</time>
      </trkpt>
      <trkpt lat="43.91153" lon="5.19969">
        <ele>401.151</ele>
        <time>2019-04-28T13:11:56Z</time>
      </trkpt>
      <trkpt lat="43.9115" lon="5.19971">
        <ele>399.64</ele>
        <time>2019-04-28T13:12:07Z</time>
      </trkpt>
      <trkpt lat="43.9115" lon="5.19971">
        <ele>399.57</ele>
        <time>2019-04-28T13:12:18Z</time>
      </trkpt>
      <trkpt lat="43.9115" lon="5.19971">
        <ele>399.525</ele>
        <time>2019-04-28T13:12:28Z</time>
      </trkpt>
      <trkpt lat="43.91148" lon="5.19972">
        <ele>399.41</ele>
        <time>2019-04-28T13:12:39Z</time>
      </trkpt>
      <trkpt lat="43.9115" lon="5.1997">
        <ele>400.476</ele>
        <time>2019-04-28T13:12:50Z</time>
      </trkpt>
      <trkpt lat="43.91152" lon="5.19967">
        <ele>400.676</ele>
        <time>2019-04-28T13:13:01Z</time>
      </trkpt>
      <trkpt lat="43.91146" lon="5.19968">
        <ele>401.574</ele>
        <time>2019-04-28T13:13:11Z</time>
      </trkpt>
      <trkpt lat="43.91146" lon="5.19968">
        <ele>401.606</ele>
        <time>2019-04-28T13:13:22Z</time>
      </trkpt>
      <trkpt lat="43.91146" lon="5.19969">
        <ele>401.623</ele>
        <time>2019-04-28T13:13:32Z</time>
      </trkpt>
      <trkpt lat="43.91147" lon="5.19969">
        <ele>401.632</ele>
        <time>2019-04-28T13:13:43Z</time>
      </trkpt>
      <trkpt lat="43.91147" lon="5.19969">
        <ele>401.621</ele>
        <time>2019-04-28T13:13:54Z</time>
      </trkpt>
      <trkpt lat="43.91145" lon="5.19968">
        <ele>401.553</ele>
        <time>2019-04-28T13:14:05Z</time>
      </trkpt>
      <trkpt lat="43.91138" lon="5.19954">
        <ele>400.717</ele>
        <time>2019-04-28T13:14:15Z</time>
      </trkpt>
      <trkpt lat="43.91114" lon="5.19957">
        <ele>400.389</ele>
        <time>2019-04-28T13:14:26Z</time>
      </trkpt>
      <trkpt lat="43.91104" lon="5.19957">
        <ele>400.701</ele>
        <time>2019-04-28T13:14:36Z</time>
      </trkpt>
      <trkpt lat="43.91096" lon="5.19963">
        <ele>401.592</ele>
        <time>2019-04-28T13:14:47Z</time>
      </trkpt>
      <trkpt lat="43.91087" lon="5.19979">
        <ele>402.921</ele>
        <time>2019-04-28T13:14:57Z</time>
      </trkpt>
      <trkpt lat="43.91089" lon="5.19998">
        <ele>404.373</ele>
        <time>2019-04-28T13:15:08Z</time>
      </trkpt>
      <trkpt lat="43.91086" lon="5.20004">
        <ele>407.585</ele>
        <time>2019-04-28T13:15:19Z</time>
      </trkpt>
      <trkpt lat="43.91091" lon="5.20006">
        <ele>408.101</ele>
        <time>2019-04-28T13:15:29Z</time>
      </trkpt>
      <trkpt lat="43.91094" lon="5.19999">
        <ele>409.071</ele>
        <time>2019-04-28T13:15:40Z</time>
      </trkpt>
      <trkpt lat="43.91096" lon="5.19992">
        <ele>410.417</ele>
        <time>2019-04-28T13:15:50Z</time>
      </trkpt>
      <trkpt lat="43.91098" lon="5.19982">
        <ele>411.546</ele>
        <time>2019-04-28T13:16:01Z</time>
      </trkpt>
      <trkpt lat="43.91099" lon="5.19981">
        <ele>411.515</ele>
        <time>2019-04-28T13:16:11Z</time>
      </trkpt>
      <trkpt lat="43.91098" lon="5.19974">
        <ele>410.386</ele>
        <time>2019-04-28T13:16:22Z</time>
      </trkpt>
      <trkpt lat="43.91097" lon="5.19977">
        <ele>410.02</ele>
        <time>2019-04-28T13:16:33Z</time>
      </trkpt>
      <trkpt lat="43.91096" lon="5.19981">
        <ele>409.14</ele>
        <time>2019-04-28T13:16:44Z</time>
      </trkpt>
      <trkpt lat="43.91095" lon="5.19981">
        <ele>408.598</ele>
        <time>2019-04-28T13:16:54Z</time>
      </trkpt>
      <trkpt lat="43.91096" lon="5.19981">
        <ele>408.388</ele>
        <time>2019-04-28T13:17:05Z</time>
      </trkpt>
      <trkpt lat="43.91095" lon="5.19981">
        <ele>408.196</ele>
        <time>2019-04-28T13:17:16Z</time>
      </trkpt>
      <trkpt lat="43.91095" lon="5.19982">
        <ele>407.987</ele>
        <time>2019-04-28T13:17:27Z</time>
      </trkpt>
      <trkpt lat="43.91095" lon="5.19982">
        <ele>407.782</ele>
        <time>2019-04-28T13:17:38Z</time>
      </trkpt>
      <trkpt lat="43.91095" lon="5.19982">
        <ele>407.579</ele>
        <time>2019-04-28T13:17:48Z</time>
      </trkpt>
      <trkpt lat="43.91095" lon="5.19983">
        <ele>407.351</ele>
        <time>2019-04-28T13:17:58Z</time>
      </trkpt>
      <trkpt lat="43.91095" lon="5.19983">
        <ele>407.086</ele>
        <time>2019-04-28T13:18:09Z</time>
      </trkpt>
      <trkpt lat="43.91095" lon="5.19983">
        <ele>406.79</ele>
        <time>2019-04-28T13:18:19Z</time>
      </trkpt>
      <trkpt lat="43.91096" lon="5.19983">
        <ele>406.463</ele>
        <time>2019-04-28T13:18:30Z</time>
      </trkpt>
      <trkpt lat="43.91098" lon="5.19982">
        <ele>405.853</ele>
        <time>2019-04-28T13:18:41Z</time>
      </trkpt>
      <trkpt lat="43.91105" lon="5.19987">
        <ele>398.175</ele>
        <time>2019-04-28T13:18:52Z</time>
      </trkpt>
      <trkpt lat="43.91107" lon="5.19982">
        <ele>396.58</ele>
        <time>2019-04-28T13:19:03Z</time>
      </trkpt>
      <trkpt lat="43.91108" lon="5.19982">
        <ele>396.535</ele>
        <time>2019-04-28T13:19:13Z</time>
      </trkpt>
      <trkpt lat="43.91108" lon="5.19982">
        <ele>396.286</ele>
        <time>2019-04-28T13:19:23Z</time>
      </trkpt>
      <trkpt lat="43.91107" lon="5.19983">
        <ele>396.039</ele>
        <time>2019-04-28T13:19:34Z</time>
      </trkpt>
      <trkpt lat="43.91107" lon="5.19982">
        <ele>395.589</ele>
        <time>2019-04-28T13:19:45Z</time>
      </trkpt>
      <trkpt lat="43.91104" lon="5.19982">
        <ele>395.376</ele>
        <time>2019-04-28T13:19:55Z</time>
      </trkpt>
      <trkpt lat="43.91102" lon="5.19986">
        <ele>395.36</ele>
        <time>2019-04-28T13:20:05Z</time>
      </trkpt>
      <trkpt lat="43.91102" lon="5.19989">
        <ele>395.946</ele>
        <time>2019-04-28T13:20:15Z</time>
      </trkpt>
      <trkpt lat="43.91104" lon="5.19994">
        <ele>396.191</ele>
        <time>2019-04-28T13:20:26Z</time>
      </trkpt>
      <trkpt lat="43.91104" lon="5.19995">
        <ele>396.379</ele>
        <time>2019-04-28T13:20:37Z</time>
      </trkpt>
      <trkpt lat="43.91104" lon="5.19998">
        <ele>397.098</ele>
        <time>2019-04-28T13:20:47Z</time>
      </trkpt>
      <trkpt lat="43.91106" lon="5.2001">
        <ele>399.123</ele>
        <time>2019-04-28T13:20:57Z</time>
      </trkpt>
      <trkpt lat="43.91106" lon="5.20011">
        <ele>400.083</ele>
        <time>2019-04-28T13:21:08Z</time>
      </trkpt>
      <trkpt lat="43.91106" lon="5.20011">
        <ele>400.117</ele>
        <time>2019-04-28T13:21:19Z</time>
      </trkpt>
      <trkpt lat="43.91105" lon="5.20012">
        <ele>400.438</ele>
        <time>2019-04-28T13:21:29Z</time>
      </trkpt>
      <trkpt lat="43.91104" lon="5.20015">
        <ele>401.371</ele>
        <time>2019-04-28T13:21:40Z</time>
      </trkpt>
      <trkpt lat="43.91106" lon="5.20017">
        <ele>403.046</ele>
        <time>2019-04-28T13:21:50Z</time>
      </trkpt>
      <trkpt lat="43.91107" lon="5.20013">
        <ele>405.217</ele>
        <time>2019-04-28T13:22:00Z</time>
      </trkpt>
      <trkpt lat="43.91117" lon="5.19999">
        <ele>407.698</ele>
        <time>2019-04-28T13:22:11Z</time>
      </trkpt>
      <trkpt lat="43.91117" lon="5.2">
        <ele>408.848</ele>
        <time>2019-04-28T13:22:21Z</time>
      </trkpt>
      <trkpt lat="43.91117" lon="5.20001">
        <ele>409.216</ele>
        <time>2019-04-28T13:22:32Z</time>
      </trkpt>
      <trkpt lat="43.91118" lon="5.2">
        <ele>410.199</ele>
        <time>2019-04-28T13:22:42Z</time>
      </trkpt>
      <trkpt lat="43.91091" lon="5.19978">
        <ele>411.383</ele>
        <time>2019-04-28T13:41:07Z</time>
      </trkpt>
      <trkpt lat="43.91099" lon="5.19972">
        <ele>409.687</ele>
        <time>2019-04-28T13:41:17Z</time>
      </trkpt>
      <trkpt lat="43.91105" lon="5.19958">
        <ele>404.003</ele>
        <time>2019-04-28T13:41:28Z</time>
      </trkpt>
      <trkpt lat="43.91119" lon="5.1996">
        <ele>404.307</ele>
        <time>2019-04-28T13:41:39Z</time>
      </trkpt>
      <trkpt lat="43.91146" lon="5.19923">
        <ele>404.614</ele>
        <time>2019-04-28T13:41:49Z</time>
      </trkpt>
      <trkpt lat="43.91175" lon="5.19862">
        <ele>404.385</ele>
        <time>2019-04-28T13:41:59Z</time>
      </trkpt>
      <trkpt lat="43.91229" lon="5.19802">
        <ele>398.409</ele>
        <time>2019-04-28T13:42:10Z</time>
      </trkpt>
      <trkpt lat="43.91279" lon="5.19785">
        <ele>395.169</ele>
        <time>2019-04-28T13:42:21Z</time>
      </trkpt>
      <trkpt lat="43.91319" lon="5.19776">
        <ele>394.281</ele>
        <time>2019-04-28T13:42:32Z</time>
      </trkpt>
      <trkpt lat="43.91358" lon="5.19763">
        <ele>392.739</ele>
        <time>2019-04-28T13:42:42Z</time>
      </trkpt>
      <trkpt lat="43.91391" lon="5.19735">
        <ele>391.35</ele>
        <time>2019-04-28T13:42:53Z</time>
      </trkpt>
      <trkpt lat="43.91375" lon="5.19692">
        <ele>386.606</ele>
        <time>2019-04-28T13:43:03Z</time>
      </trkpt>
      <trkpt lat="43.9134" lon="5.19673">
        <ele>385.861</ele>
        <time>2019-04-28T13:43:13Z</time>
      </trkpt>
      <trkpt lat="43.91307" lon="5.19664">
        <ele>386.835</ele>
        <time>2019-04-28T13:43:24Z</time>
      </trkpt>
      <trkpt lat="43.91276" lon="5.19662">
        <ele>389.536</ele>
        <time>2019-04-28T13:43:34Z</time>
      </trkpt>
      <trkpt lat="43.91243" lon="5.19647">
        <ele>389.965</ele>
        <time>2019-04-28T13:43:45Z</time>
      </trkpt>
      <trkpt lat="43.91225" lon="5.19643">
        <ele>390.339</ele>
        <time>2019-04-28T13:43:55Z</time>
      </trkpt>
      <trkpt lat="43.91226" lon="5.19642">
        <ele>390.577</ele>
        <time>2019-04-28T13:44:06Z</time>
      </trkpt>
      <trkpt lat="43.91225" lon="5.19642">
        <ele>391.14</ele>
        <time>2019-04-28T13:44:17Z</time>
      </trkpt>
      <trkpt lat="43.91225" lon="5.19639">
        <ele>391.372</ele>
        <time>2019-04-28T13:44:27Z</time>
      </trkpt>
      <trkpt lat="43.91226" lon="5.1964">
        <ele>391.628</ele>
        <time>2019-04-28T13:44:37Z</time>
      </trkpt>
      <trkpt lat="43.91226" lon="5.1964">
        <ele>391.72</ele>
        <time>2019-04-28T13:44:48Z</time>
      </trkpt>
      <trkpt lat="43.91226" lon="5.1964">
        <ele>391.825</ele>
        <time>2019-04-28T13:44:59Z</time>
      </trkpt>
      <trkpt lat="43.91225" lon="5.19641">
        <ele>391.946</ele>
        <time>2019-04-28T13:45:10Z</time>
      </trkpt>
      <trkpt lat="43.91225" lon="5.19641">
        <ele>392.154</ele>
        <time>2019-04-28T13:45:20Z</time>
      </trkpt>
      <trkpt lat="43.91223" lon="5.19643">
        <ele>392.978</ele>
        <time>2019-04-28T13:45:31Z</time>
      </trkpt>
      <trkpt lat="43.91217" lon="5.19643">
        <ele>393.193</ele>
        <time>2019-04-28T13:45:42Z</time>
      </trkpt>
      <trkpt lat="43.91212" lon="5.19642">
        <ele>393.317</ele>
        <time>2019-04-28T13:45:52Z</time>
      </trkpt>
      <trkpt lat="43.91207" lon="5.1965">
        <ele>393.587</ele>
        <time>2019-04-28T13:46:03Z</time>
      </trkpt>
      <trkpt lat="43.91207" lon="5.1965">
        <ele>393.449</ele>
        <time>2019-04-28T13:46:14Z</time>
      </trkpt>
      <trkpt lat="43.91207" lon="5.1965">
        <ele>393.352</ele>
        <time>2019-04-28T13:46:24Z</time>
      </trkpt>
      <trkpt lat="43.91206" lon="5.1965">
        <ele>393.274</ele>
        <time>2019-04-28T13:46:35Z</time>
      </trkpt>
      <trkpt lat="43.91205" lon="5.1965">
        <ele>393.187</ele>
        <time>2019-04-28T13:46:45Z</time>
      </trkpt>
      <trkpt lat="43.91204" lon="5.19649">
        <ele>393.16</ele>
        <time>2019-04-28T13:46:56Z</time>
      </trkpt>
      <trkpt lat="43.91205" lon="5.19648">
        <ele>393.582</ele>
        <time>2019-04-28T13:47:07Z</time>
      </trkpt>
      <trkpt lat="43.9121" lon="5.19642">
        <ele>398.941</ele>
        <time>2019-04-28T13:47:17Z</time>
      </trkpt>
      <trkpt lat="43.91221" lon="5.1964">
        <ele>399.158</ele>
        <time>2019-04-28T13:47:28Z</time>
      </trkpt>
      <trkpt lat="43.91227" lon="5.19643">
        <ele>398.848</ele>
        <time>2019-04-28T13:47:39Z</time>
      </trkpt>
      <trkpt lat="43.91226" lon="5.19643">
        <ele>397.962</ele>
        <time>2019-04-28T13:47:50Z</time>
      </trkpt>
      <trkpt lat="43.91225" lon="5.19643">
        <ele>396.978</ele>
        <time>2019-04-28T13:48:01Z</time>
      </trkpt>
      <trkpt lat="43.9122" lon="5.19643">
        <ele>396.55</ele>
        <time>2019-04-28T13:48:11Z</time>
      </trkpt>
      <trkpt lat="43.91194" lon="5.19641">
        <ele>394.335</ele>
        <time>2019-04-28T13:48:21Z</time>
      </trkpt>
      <trkpt lat="43.91158" lon="5.19659">
        <ele>393.583</ele>
        <time>2019-04-28T13:48:32Z</time>
      </trkpt>
      <trkpt lat="43.91145" lon="5.19664">
        <ele>393.69</ele>
        <time>2019-04-28T13:48:43Z</time>
      </trkpt>
      <trkpt lat="43.91145" lon="5.19666">
        <ele>393.711</ele>
        <time>2019-04-28T13:48:54Z</time>
      </trkpt>
      <trkpt lat="43.91146" lon="5.19666">
        <ele>393.597</ele>
        <time>2019-04-28T13:49:05Z</time>
      </trkpt>
      <trkpt lat="43.91146" lon="5.19666">
        <ele>393.508</ele>
        <time>2019-04-28T13:49:16Z</time>
      </trkpt>
      <trkpt lat="43.91146" lon="5.19666">
        <ele>393.42</ele>
        <time>2019-04-28T13:49:27Z</time>
      </trkpt>
      <trkpt lat="43.91146" lon="5.19666">
        <ele>393.318</ele>
        <time>2019-04-28T13:49:38Z</time>
      </trkpt>
      <trkpt lat="43.91146" lon="5.19667">
        <ele>393.119</ele>
        <time>2019-04-28T13:49:48Z</time>
      </trkpt>
      <trkpt lat="43.91145" lon="5.19663">
        <ele>392.534</ele>
        <time>2019-04-28T13:49:59Z</time>
      </trkpt>
      <trkpt lat="43.91145" lon="5.19664">
        <ele>392.493</ele>
        <time>2019-04-28T13:50:10Z</time>
      </trkpt>
      <trkpt lat="43.91147" lon="5.19665">
        <ele>392.427</ele>
        <time>2019-04-28T13:50:21Z</time>
      </trkpt>
      <trkpt lat="43.91145" lon="5.19666">
        <ele>392.507</ele>
        <time>2019-04-28T13:50:32Z</time>
      </trkpt>
      <trkpt lat="43.91145" lon="5.19667">
        <ele>392.492</ele>
        <time>2019-04-28T13:50:42Z</time>
      </trkpt>
      <trkpt lat="43.9111" lon="5.19669">
        <ele>391.486</ele>
        <time>2019-04-28T13:50:53Z</time>
      </trkpt>
      <trkpt lat="43.91053" lon="5.197">
        <ele>390.607</ele>
        <time>2019-04-28T13:51:04Z</time>
      </trkpt>
      <trkpt lat="43.90977" lon="5.19725">
        <ele>381.693</ele>
        <time>2019-04-28T13:51:14Z</time>
      </trkpt>
      <trkpt lat="43.90897" lon="5.19757">
        <ele>376.136</ele>
        <time>2019-04-28T13:51:25Z</time>
      </trkpt>
      <trkpt lat="43.90837" lon="5.19772">
        <ele>375.11</ele>
        <time>2019-04-28T13:51:35Z</time>
      </trkpt>
      <trkpt lat="43.9078" lon="5.19739">
        <ele>374.391</ele>
        <time>2019-04-28T13:51:46Z</time>
      </trkpt>
      <trkpt lat="43.90707" lon="5.19715">
        <ele>372.74</ele>
        <time>2019-04-28T13:51:56Z</time>
      </trkpt>
      <trkpt lat="43.90615" lon="5.19742">
        <ele>371.217</ele>
        <time>2019-04-28T13:52:07Z</time>
      </trkpt>
      <trkpt lat="43.90508" lon="5.19706">
        <ele>366.749</ele>
        <time>2019-04-28T13:52:18Z</time>
      </trkpt>
      <trkpt lat="43.90447" lon="5.1963">
        <ele>362.496</ele>
        <time>2019-04-28T13:52:28Z</time>
      </trkpt>
      <trkpt lat="43.90493" lon="5.19552">
        <ele>356.523</ele>
        <time>2019-04-28T13:52:38Z</time>
      </trkpt>
      <trkpt lat="43.90514" lon="5.19481">
        <ele>351.054</ele>
        <time>2019-04-28T13:52:49Z</time>
      </trkpt>
      <trkpt lat="43.90449" lon="5.19465">
        <ele>346.958</ele>
        <time>2019-04-28T13:53:00Z</time>
      </trkpt>
      <trkpt lat="43.90371" lon="5.19478">
        <ele>343.066</ele>
        <time>2019-04-28T13:53:10Z</time>
      </trkpt>
      <trkpt lat="43.90284" lon="5.19458">
        <ele>341.059</ele>
        <time>2019-04-28T13:53:20Z</time>
      </trkpt>
      <trkpt lat="43.9018" lon="5.19426">
        <ele>343.712</ele>
        <time>2019-04-28T13:53:31Z</time>
      </trkpt>
      <trkpt lat="43.90158" lon="5.19368">
        <ele>340.873</ele>
        <time>2019-04-28T13:53:41Z</time>
      </trkpt>
      <trkpt lat="43.90109" lon="5.19321">
        <ele>333.919</ele>
        <time>2019-04-28T13:53:51Z</time>
      </trkpt>
      <trkpt lat="43.90057" lon="5.19295">
        <ele>328.468</ele>
        <time>2019-04-28T13:54:02Z</time>
      </trkpt>
      <trkpt lat="43.90027" lon="5.19255">
        <ele>325.281</ele>
        <time>2019-04-28T13:54:12Z</time>
      </trkpt>
      <trkpt lat="43.90025" lon="5.19254">
        <ele>325.023</ele>
        <time>2019-04-28T13:54:23Z</time>
      </trkpt>
      <trkpt lat="43.90025" lon="5.19254">
        <ele>324.928</ele>
        <time>2019-04-28T13:54:34Z</time>
      </trkpt>
      <trkpt lat="43.90025" lon="5.19254">
        <ele>324.816</ele>
        <time>2019-04-28T13:54:45Z</time>
      </trkpt>
      <trkpt lat="43.90025" lon="5.19254">
        <ele>324.703</ele>
        <time>2019-04-28T13:54:55Z</time>
      </trkpt>
      <trkpt lat="43.90021" lon="5.19252">
        <ele>324.56</ele>
        <time>2019-04-28T13:55:06Z</time>
      </trkpt>
      <trkpt lat="43.90021" lon="5.19252">
        <ele>323.903</ele>
        <time>2019-04-28T13:55:17Z</time>
      </trkpt>
      <trkpt lat="43.90021" lon="5.19252">
        <ele>323.626</ele>
        <time>2019-04-28T13:55:28Z</time>
      </trkpt>
      <trkpt lat="43.90019" lon="5.19253">
        <ele>322.353</ele>
        <time>2019-04-28T13:55:38Z</time>
      </trkpt>
      <trkpt lat="43.90018" lon="5.19253">
        <ele>320.042</ele>
        <time>2019-04-28T13:55:49Z</time>
      </trkpt>
      <trkpt lat="43.89995" lon="5.1924">
        <ele>317.997</ele>
        <time>2019-04-28T13:55:59Z</time>
      </trkpt>
      <trkpt lat="43.89928" lon="5.192">
        <ele>315.162</ele>
        <time>2019-04-28T13:56:09Z</time>
      </trkpt>
      <trkpt lat="43.89845" lon="5.19115">
        <ele>314.911</ele>
        <time>2019-04-28T13:56:20Z</time>
      </trkpt>
      <trkpt lat="43.8978" lon="5.1902">
        <ele>311.181</ele>
        <time>2019-04-28T13:56:31Z</time>
      </trkpt>
      <trkpt lat="43.89679" lon="5.19001">
        <ele>306.435</ele>
        <time>2019-04-28T13:56:41Z</time>
      </trkpt>
      <trkpt lat="43.89571" lon="5.18967">
        <ele>301.821</ele>
        <time>2019-04-28T13:56:52Z</time>
      </trkpt>
      <trkpt lat="43.8947" lon="5.18905">
        <ele>294.757</ele>
        <time>2019-04-28T13:57:02Z</time>
      </trkpt>
      <trkpt lat="43.89347" lon="5.18828">
        <ele>284.114</ele>
        <time>2019-04-28T13:57:13Z</time>
      </trkpt>
      <trkpt lat="43.8924" lon="5.18733">
        <ele>275.935</ele>
        <time>2019-04-28T13:57:23Z</time>
      </trkpt>
      <trkpt lat="43.89136" lon="5.18612">
        <ele>269.868</ele>
        <time>2019-04-28T13:57:34Z</time>
      </trkpt>
      <trkpt lat="43.89065" lon="5.18477">
        <ele>263.887</ele>
        <time>2019-04-28T13:57:44Z</time>
      </trkpt>
      <trkpt lat="43.89011" lon="5.18354">
        <ele>256.953</ele>
        <time>2019-04-28T13:57:54Z</time>
      </trkpt>
      <trkpt lat="43.88954" lon="5.1824">
        <ele>248.718</ele>
        <time>2019-04-28T13:58:05Z</time>
      </trkpt>
      <trkpt lat="43.88888" lon="5.18167">
        <ele>243.595</ele>
        <time>2019-04-28T13:58:15Z</time>
      </trkpt>
      <trkpt lat="43.88832" lon="5.1809">
        <ele>238.51</ele>
        <time>2019-04-28T13:58:25Z</time>
      </trkpt>
      <trkpt lat="43.88795" lon="5.17992">
        <ele>235.957</ele>
        <time>2019-04-28T13:58:36Z</time>
      </trkpt>
      <trkpt lat="43.88759" lon="5.17886">
        <ele>232.801</ele>
        <time>2019-04-28T13:58:47Z</time>
      </trkpt>
      <trkpt lat="43.88724" lon="5.17786">
        <ele>229.634</ele>
        <time>2019-04-28T13:58:58Z</time>
      </trkpt>
      <trkpt lat="43.88693" lon="5.17691">
        <ele>228.512</ele>
        <time>2019-04-28T13:59:08Z</time>
      </trkpt>
      <trkpt lat="43.88664" lon="5.17613">
        <ele>223.695</ele>
        <time>2019-04-28T13:59:19Z</time>
      </trkpt>
      <trkpt lat="43.88629" lon="5.17489">
        <ele>217.898</ele>
        <time>2019-04-28T13:59:29Z</time>
      </trkpt>
      <trkpt lat="43.88595" lon="5.17374">
        <ele>209.487</ele>
        <time>2019-04-28T13:59:40Z</time>
      </trkpt>
      <trkpt lat="43.88573" lon="5.17273">
        <ele>205.228</ele>
        <time>2019-04-28T13:59:50Z</time>
      </trkpt>
      <trkpt lat="43.88545" lon="5.1717">
        <ele>203.96</ele>
        <time>2019-04-28T14:00:01Z</time>
      </trkpt>
      <trkpt lat="43.88526" lon="5.17069">
        <ele>199.594</ele>
        <time>2019-04-28T14:00:12Z</time>
      </trkpt>
      <trkpt lat="43.88496" lon="5.16968">
        <ele>195.816</ele>
        <time>2019-04-28T14:00:23Z</time>
      </trkpt>
      <trkpt lat="43.88472" lon="5.16868">
        <ele>195.244</ele>
        <time>2019-04-28T14:00:34Z</time>
      </trkpt>
      <trkpt lat="43.88446" lon="5.16767">
        <ele>194.778</ele>
        <time>2019-04-28T14:00:45Z</time>
      </trkpt>
      <trkpt lat="43.88429" lon="5.16681">
        <ele>193.708</ele>
        <time>2019-04-28T14:00:56Z</time>
      </trkpt>
      <trkpt lat="43.88391" lon="5.16617">
        <ele>193.616</ele>
        <time>2019-04-28T14:01:07Z</time>
      </trkpt>
      <trkpt lat="43.88326" lon="5.16575">
        <ele>194.132</ele>
        <time>2019-04-28T14:01:18Z</time>
      </trkpt>
      <trkpt lat="43.88293" lon="5.16548">
        <ele>193.187</ele>
        <time>2019-04-28T14:01:29Z</time>
      </trkpt>
      <trkpt lat="43.88293" lon="5.16548">
        <ele>193.159</ele>
        <time>2019-04-28T14:01:40Z</time>
      </trkpt>
      <trkpt lat="43.88286" lon="5.16543">
        <ele>192.923</ele>
        <time>2019-04-28T14:01:50Z</time>
      </trkpt>
      <trkpt lat="43.8827" lon="5.16565">
        <ele>192.689</ele>
        <time>2019-04-28T14:02:01Z</time>
      </trkpt>
      <trkpt lat="43.88273" lon="5.16592">
        <ele>191.251</ele>
        <time>2019-04-28T14:02:11Z</time>
      </trkpt>
      <trkpt lat="43.88281" lon="5.16594">
        <ele>190.957</ele>
        <time>2019-04-28T14:02:22Z</time>
      </trkpt>
      <trkpt lat="43.88283" lon="5.16598">
        <ele>190.796</ele>
        <time>2019-04-28T14:02:33Z</time>
      </trkpt>
      <trkpt lat="43.88285" lon="5.16596">
        <ele>189.277</ele>
        <time>2019-04-28T14:02:44Z</time>
      </trkpt>
      <trkpt lat="43.88285" lon="5.16596">
        <ele>189.232</ele>
        <time>2019-04-28T14:02:54Z</time>
      </trkpt>
      <trkpt lat="43.88285" lon="5.16596">
        <ele>189.204</ele>
        <time>2019-04-28T14:03:05Z</time>
      </trkpt>
      <trkpt lat="43.88285" lon="5.16596">
        <ele>189.188</ele>
        <time>2019-04-28T14:03:15Z</time>
      </trkpt>
      <trkpt lat="43.88285" lon="5.16596">
        <ele>189.192</ele>
        <time>2019-04-28T14:03:26Z</time>
      </trkpt>
      <trkpt lat="43.88285" lon="5.16596">
        <ele>189.182</ele>
        <time>2019-04-28T14:03:37Z</time>
      </trkpt>
      <trkpt lat="43.88285" lon="5.16596">
        <ele>189.17</ele>
        <time>2019-04-28T14:03:48Z</time>
      </trkpt>
      <trkpt lat="43.88285" lon="5.16596">
        <ele>189.107</ele>
        <time>2019-04-28T14:03:59Z</time>
      </trkpt>
      <trkpt lat="43.88285" lon="5.16596">
        <ele>189.067</ele>
        <time>2019-04-28T14:04:09Z</time>
      </trkpt>
      <trkpt lat="43.88285" lon="5.16596">
        <ele>189.018</ele>
        <time>2019-04-28T14:04:20Z</time>
      </trkpt>
      <trkpt lat="43.88285" lon="5.16596">
        <ele>189.021</ele>
        <time>2019-04-28T14:04:31Z</time>
      </trkpt>
      <trkpt lat="43.88285" lon="5.16596">
        <ele>189.009</ele>
        <time>2019-04-28T14:04:42Z</time>
      </trkpt>
      <trkpt lat="43.88285" lon="5.16596">
        <ele>189.027</ele>
        <time>2019-04-28T14:04:52Z</time>
      </trkpt>
      <trkpt lat="43.88285" lon="5.16596">
        <ele>189.087</ele>
        <time>2019-04-28T14:05:03Z</time>
      </trkpt>
      <trkpt lat="43.88285" lon="5.16596">
        <ele>189.164</ele>
        <time>2019-04-28T14:05:14Z</time>
      </trkpt>
      <trkpt lat="43.88285" lon="5.16596">
        <ele>189.38</ele>
        <time>2019-04-28T14:05:25Z</time>
      </trkpt>
      <trkpt lat="43.88285" lon="5.16596">
        <ele>189.445</ele>
        <time>2019-04-28T14:05:35Z</time>
      </trkpt>
      <trkpt lat="43.88285" lon="5.16596">
        <ele>189.507</ele>
        <time>2019-04-28T14:05:46Z</time>
      </trkpt>
      <trkpt lat="43.88285" lon="5.16596">
        <ele>189.558</ele>
        <time>2019-04-28T14:05:56Z</time>
      </trkpt>
      <trkpt lat="43.88281" lon="5.16598">
        <ele>189.603</ele>
        <time>2019-04-28T14:06:06Z</time>
      </trkpt>
      <trkpt lat="43.88281" lon="5.16598">
        <ele>189.642</ele>
        <time>2019-04-28T14:06:17Z</time>
      </trkpt>
      <trkpt lat="43.88282" lon="5.16597">
        <ele>189.655</ele>
        <time>2019-04-28T14:06:28Z</time>
      </trkpt>
      <trkpt lat="43.88282" lon="5.16596">
        <ele>189.635</ele>
        <time>2019-04-28T14:06:38Z</time>
      </trkpt>
      <trkpt lat="43.88281" lon="5.16595">
        <ele>189.66</ele>
        <time>2019-04-28T14:06:49Z</time>
      </trkpt>
      <trkpt lat="43.88281" lon="5.16593">
        <ele>189.868</ele>
        <time>2019-04-28T14:07:00Z</time>
      </trkpt>
      <trkpt lat="43.8828" lon="5.16593">
        <ele>190.03</ele>
        <time>2019-04-28T14:07:10Z</time>
      </trkpt>
      <trkpt lat="43.8828" lon="5.16593">
        <ele>190.24</ele>
        <time>2019-04-28T14:07:21Z</time>
      </trkpt>
      <trkpt lat="43.88279" lon="5.16593">
        <ele>190.313</ele>
        <time>2019-04-28T14:07:31Z</time>
      </trkpt>
      <trkpt lat="43.8828" lon="5.16593">
        <ele>190.408</ele>
        <time>2019-04-28T14:07:42Z</time>
      </trkpt>
      <trkpt lat="43.8828" lon="5.16592">
        <ele>190.544</ele>
        <time>2019-04-28T14:07:52Z</time>
      </trkpt>
      <trkpt lat="43.8828" lon="5.16592">
        <ele>190.688</ele>
        <time>2019-04-28T14:08:02Z</time>
      </trkpt>
      <trkpt lat="43.8828" lon="5.16594">
        <ele>191.395</ele>
        <time>2019-04-28T14:08:13Z</time>
      </trkpt>
      <trkpt lat="43.8828" lon="5.16594">
        <ele>191.583</ele>
        <time>2019-04-28T14:08:23Z</time>
      </trkpt>
      <trkpt lat="43.8828" lon="5.16593">
        <ele>191.65</ele>
        <time>2019-04-28T14:08:34Z</time>
      </trkpt>
      <trkpt lat="43.88281" lon="5.166">
        <ele>192.373</ele>
        <time>2019-04-28T14:08:45Z</time>
      </trkpt>
      <trkpt lat="43.88282" lon="5.16597">
        <ele>192.526</ele>
        <time>2019-04-28T14:08:56Z</time>
      </trkpt>
      <trkpt lat="43.88282" lon="5.16597">
        <ele>192.501</ele>
        <time>2019-04-28T14:09:06Z</time>
      </trkpt>
      <trkpt lat="43.88282" lon="5.16596">
        <ele>192.264</ele>
        <time>2019-04-28T14:09:17Z</time>
      </trkpt>
      <trkpt lat="43.88282" lon="5.16596">
        <ele>192.149</ele>
        <time>2019-04-28T14:09:28Z</time>
      </trkpt>
      <trkpt lat="43.88283" lon="5.16596">
        <ele>192.055</ele>
        <time>2019-04-28T14:09:38Z</time>
      </trkpt>
      <trkpt lat="43.88283" lon="5.16595">
        <ele>191.906</ele>
        <time>2019-04-28T14:09:49Z</time>
      </trkpt>
      <trkpt lat="43.88283" lon="5.16595">
        <ele>191.737</ele>
        <time>2019-04-28T14:09:59Z</time>
      </trkpt>
      <trkpt lat="43.88283" lon="5.16608">
        <ele>191.79</ele>
        <time>2019-04-28T14:10:10Z</time>
      </trkpt>
      <trkpt lat="43.88278" lon="5.16611">
        <ele>186.58</ele>
        <time>2019-04-28T14:14:49Z</time>
      </trkpt>
      <trkpt lat="43.88278" lon="5.16607">
        <ele>178.585</ele>
        <time>2019-04-28T14:14:59Z</time>
      </trkpt>
      <trkpt lat="43.88278" lon="5.16607">
        <ele>177.931</ele>
        <time>2019-04-28T14:15:09Z</time>
      </trkpt>
      <trkpt lat="43.88278" lon="5.16607">
        <ele>179.205</ele>
        <time>2019-04-28T14:15:20Z</time>
      </trkpt>
      <trkpt lat="43.88278" lon="5.16607">
        <ele>179.294</ele>
        <time>2019-04-28T14:15:30Z</time>
      </trkpt>
      <trkpt lat="43.88278" lon="5.16607">
        <ele>179.327</ele>
        <time>2019-04-28T14:15:40Z</time>
      </trkpt>
      <trkpt lat="43.88278" lon="5.16607">
        <ele>179.348</ele>
        <time>2019-04-28T14:15:51Z</time>
      </trkpt>
      <trkpt lat="43.88285" lon="5.166">
        <ele>179.361</ele>
        <time>2019-04-28T14:16:01Z</time>
      </trkpt>
      <trkpt lat="43.88285" lon="5.166">
        <ele>179.364</ele>
        <time>2019-04-28T14:16:11Z</time>
      </trkpt>
      <trkpt lat="43.88285" lon="5.166">
        <ele>179.367</ele>
        <time>2019-04-28T14:16:17Z</time>
      </trkpt>
      <trkpt lat="43.88285" lon="5.166">
        <ele>179.307</ele>
        <time>2019-04-28T14:16:23Z</time>
      </trkpt>
      <trkpt lat="43.88286" lon="5.16598">
        <ele>179.547</ele>
        <time>2019-04-28T14:16:29Z</time>
      </trkpt>
      <trkpt lat="43.88286" lon="5.16598">
        <ele>179.786</ele>
        <time>2019-04-28T14:16:35Z</time>
      </trkpt>
      <trkpt lat="43.88285" lon="5.16597">
        <ele>180.117</ele>
        <time>2019-04-28T14:16:41Z</time>
      </trkpt>
      <trkpt lat="43.88285" lon="5.16597">
        <ele>180.174</ele>
        <time>2019-04-28T14:16:47Z</time>
      </trkpt>
      <trkpt lat="43.88285" lon="5.16597">
        <ele>180.377</ele>
        <time>2019-04-28T14:16:53Z</time>
      </trkpt>
      <trkpt lat="43.88283" lon="5.16594">
        <ele>180.547</ele>
        <time>2019-04-28T14:16:58Z</time>
      </trkpt>
      <trkpt lat="43.88273" lon="5.16584">
        <ele>180.679</ele>
        <time>2019-04-28T14:17:04Z</time>
      </trkpt>
      <trkpt lat="43.88269" lon="5.16561">
        <ele>180.714</ele>
        <time>2019-04-28T14:17:10Z</time>
      </trkpt>
      <trkpt lat="43.88273" lon="5.16552">
        <ele>180.658</ele>
        <time>2019-04-28T14:17:15Z</time>
      </trkpt>
      <trkpt lat="43.88283" lon="5.16551">
        <ele>180.633</ele>
        <time>2019-04-28T14:17:21Z</time>
      </trkpt>
      <trkpt lat="43.88286" lon="5.1655">
        <ele>180.7</ele>
        <time>2019-04-28T14:17:27Z</time>
      </trkpt>
      <trkpt lat="43.88286" lon="5.1655">
        <ele>180.713</ele>
        <time>2019-04-28T14:17:33Z</time>
      </trkpt>
      <trkpt lat="43.88287" lon="5.16547">
        <ele>180.871</ele>
        <time>2019-04-28T14:17:39Z</time>
      </trkpt>
      <trkpt lat="43.88273" lon="5.16525">
        <ele>182.069</ele>
        <time>2019-04-28T14:17:45Z</time>
      </trkpt>
      <trkpt lat="43.88257" lon="5.16498">
        <ele>183.734</ele>
        <time>2019-04-28T14:17:50Z</time>
      </trkpt>
      <trkpt lat="43.88241" lon="5.1647">
        <ele>184.473</ele>
        <time>2019-04-28T14:17:55Z</time>
      </trkpt>
      <trkpt lat="43.88221" lon="5.16431">
        <ele>183.824</ele>
        <time>2019-04-28T14:18:01Z</time>
      </trkpt>
      <trkpt lat="43.88199" lon="5.16388">
        <ele>184.825</ele>
        <time>2019-04-28T14:18:07Z</time>
      </trkpt>
      <trkpt lat="43.88175" lon="5.1634">
        <ele>184.795</ele>
        <time>2019-04-28T14:18:13Z</time>
      </trkpt>
      <trkpt lat="43.88155" lon="5.16287">
        <ele>180.476</ele>
        <time>2019-04-28T14:18:19Z</time>
      </trkpt>
      <trkpt lat="43.8814" lon="5.16246">
        <ele>179.921</ele>
        <time>2019-04-28T14:18:24Z</time>
      </trkpt>
      <trkpt lat="43.88123" lon="5.16203">
        <ele>179.536</ele>
        <time>2019-04-28T14:18:29Z</time>
      </trkpt>
      <trkpt lat="43.88105" lon="5.16158">
        <ele>182.12</ele>
        <time>2019-04-28T14:18:35Z</time>
      </trkpt>
      <trkpt lat="43.88085" lon="5.16119">
        <ele>184.116</ele>
        <time>2019-04-28T14:18:40Z</time>
      </trkpt>
      <trkpt lat="43.88063" lon="5.16084">
        <ele>183.845</ele>
        <time>2019-04-28T14:18:45Z</time>
      </trkpt>
      <trkpt lat="43.8805" lon="5.16033">
        <ele>183.236</ele>
        <time>2019-04-28T14:18:51Z</time>
      </trkpt>
      <trkpt lat="43.88033" lon="5.15987">
        <ele>184.16</ele>
        <time>2019-04-28T14:18:57Z</time>
      </trkpt>
      <trkpt lat="43.88018" lon="5.15938">
        <ele>184.771</ele>
        <time>2019-04-28T14:19:03Z</time>
      </trkpt>
      <trkpt lat="43.88005" lon="5.159">
        <ele>181.528</ele>
        <time>2019-04-28T14:19:08Z</time>
      </trkpt>
      <trkpt lat="43.87993" lon="5.1585">
        <ele>178.268</ele>
        <time>2019-04-28T14:19:14Z</time>
      </trkpt>
      <trkpt lat="43.87985" lon="5.15808">
        <ele>175.06</ele>
        <time>2019-04-28T14:19:19Z</time>
      </trkpt>
      <trkpt lat="43.87979" lon="5.15763">
        <ele>172.191</ele>
        <time>2019-04-28T14:19:25Z</time>
      </trkpt>
      <trkpt lat="43.87974" lon="5.15719">
        <ele>171.919</ele>
        <time>2019-04-28T14:19:31Z</time>
      </trkpt>
      <trkpt lat="43.87957" lon="5.15672">
        <ele>174.337</ele>
        <time>2019-04-28T14:19:37Z</time>
      </trkpt>
      <trkpt lat="43.87945" lon="5.15639">
        <ele>174.518</ele>
        <time>2019-04-28T14:19:42Z</time>
      </trkpt>
      <trkpt lat="43.87928" lon="5.15592">
        <ele>174.41</ele>
        <time>2019-04-28T14:19:48Z</time>
      </trkpt>
      <trkpt lat="43.8791" lon="5.15548">
        <ele>174.912</ele>
        <time>2019-04-28T14:19:54Z</time>
      </trkpt>
      <trkpt lat="43.87895" lon="5.15515">
        <ele>174.972</ele>
        <time>2019-04-28T14:19:59Z</time>
      </trkpt>
      <trkpt lat="43.87877" lon="5.15475">
        <ele>177.009</ele>
        <time>2019-04-28T14:20:04Z</time>
      </trkpt>
      <trkpt lat="43.87859" lon="5.15432">
        <ele>175.026</ele>
        <time>2019-04-28T14:20:10Z</time>
      </trkpt>
      <trkpt lat="43.87853" lon="5.15377">
        <ele>172.775</ele>
        <time>2019-04-28T14:20:16Z</time>
      </trkpt>
      <trkpt lat="43.87847" lon="5.15326">
        <ele>172.312</ele>
        <time>2019-04-28T14:20:22Z</time>
      </trkpt>
      <trkpt lat="43.87838" lon="5.15275">
        <ele>172.448</ele>
        <time>2019-04-28T14:20:28Z</time>
      </trkpt>
      <trkpt lat="43.87834" lon="5.15236">
        <ele>171.409</ele>
        <time>2019-04-28T14:20:33Z</time>
      </trkpt>
      <trkpt lat="43.87825" lon="5.15191">
        <ele>172.056</ele>
        <time>2019-04-28T14:20:39Z</time>
      </trkpt>
      <trkpt lat="43.87811" lon="5.15154">
        <ele>171.934</ele>
        <time>2019-04-28T14:20:44Z</time>
      </trkpt>
      <trkpt lat="43.87796" lon="5.15109">
        <ele>171.171</ele>
        <time>2019-04-28T14:20:50Z</time>
      </trkpt>
      <trkpt lat="43.87777" lon="5.15064">
        <ele>170.647</ele>
        <time>2019-04-28T14:20:56Z</time>
      </trkpt>
      <trkpt lat="43.87751" lon="5.15019">
        <ele>170.204</ele>
        <time>2019-04-28T14:21:02Z</time>
      </trkpt>
      <trkpt lat="43.87725" lon="5.14972">
        <ele>169.637</ele>
        <time>2019-04-28T14:21:08Z</time>
      </trkpt>
      <trkpt lat="43.87698" lon="5.14923">
        <ele>168.909</ele>
        <time>2019-04-28T14:21:14Z</time>
      </trkpt>
      <trkpt lat="43.8767" lon="5.14876">
        <ele>168.078</ele>
        <time>2019-04-28T14:21:20Z</time>
      </trkpt>
      <trkpt lat="43.87644" lon="5.14831">
        <ele>167.529</ele>
        <time>2019-04-28T14:21:26Z</time>
      </trkpt>
      <trkpt lat="43.87622" lon="5.14797">
        <ele>167.15</ele>
        <time>2019-04-28T14:21:31Z</time>
      </trkpt>
      <trkpt lat="43.87601" lon="5.1476">
        <ele>166.865</ele>
        <time>2019-04-28T14:21:36Z</time>
      </trkpt>
      <trkpt lat="43.87578" lon="5.1472">
        <ele>166.34</ele>
        <time>2019-04-28T14:21:42Z</time>
      </trkpt>
      <trkpt lat="43.87555" lon="5.14678">
        <ele>165.552</ele>
        <time>2019-04-28T14:21:48Z</time>
      </trkpt>
      <trkpt lat="43.87531" lon="5.14635">
        <ele>164.609</ele>
        <time>2019-04-28T14:21:54Z</time>
      </trkpt>
      <trkpt lat="43.87511" lon="5.14587">
        <ele>163.708</ele>
        <time>2019-04-28T14:22:00Z</time>
      </trkpt>
      <trkpt lat="43.87495" lon="5.14548">
        <ele>163.126</ele>
        <time>2019-04-28T14:22:05Z</time>
      </trkpt>
      <trkpt lat="43.87476" lon="5.14503">
        <ele>162.736</ele>
        <time>2019-04-28T14:22:11Z</time>
      </trkpt>
      <trkpt lat="43.87456" lon="5.14456">
        <ele>162.319</ele>
        <time>2019-04-28T14:22:17Z</time>
      </trkpt>
      <trkpt lat="43.87438" lon="5.14409">
        <ele>161.96</ele>
        <time>2019-04-28T14:22:23Z</time>
      </trkpt>
      <trkpt lat="43.87419" lon="5.14363">
        <ele>161.597</ele>
        <time>2019-04-28T14:22:29Z</time>
      </trkpt>
      <trkpt lat="43.87397" lon="5.14317">
        <ele>161.242</ele>
        <time>2019-04-28T14:22:35Z</time>
      </trkpt>
      <trkpt lat="43.87378" lon="5.14278">
        <ele>160.838</ele>
        <time>2019-04-28T14:22:41Z</time>
      </trkpt>
      <trkpt lat="43.87364" lon="5.14246">
        <ele>160.671</ele>
        <time>2019-04-28T14:22:46Z</time>
      </trkpt>
      <trkpt lat="43.87349" lon="5.14205">
        <ele>160.54</ele>
        <time>2019-04-28T14:22:52Z</time>
      </trkpt>
      <trkpt lat="43.87335" lon="5.14168">
        <ele>160.391</ele>
        <time>2019-04-28T14:22:57Z</time>
      </trkpt>
      <trkpt lat="43.87316" lon="5.14124">
        <ele>160.07</ele>
        <time>2019-04-28T14:23:03Z</time>
      </trkpt>
      <trkpt lat="43.87296" lon="5.1408">
        <ele>159.662</ele>
        <time>2019-04-28T14:23:09Z</time>
      </trkpt>
      <trkpt lat="43.87275" lon="5.14035">
        <ele>159.345</ele>
        <time>2019-04-28T14:23:15Z</time>
      </trkpt>
      <trkpt lat="43.87254" lon="5.13991">
        <ele>158.941</ele>
        <time>2019-04-28T14:23:21Z</time>
      </trkpt>
      <trkpt lat="43.87234" lon="5.13945">
        <ele>158.455</ele>
        <time>2019-04-28T14:23:27Z</time>
      </trkpt>
      <trkpt lat="43.87216" lon="5.13907">
        <ele>158.014</ele>
        <time>2019-04-28T14:23:32Z</time>
      </trkpt>
      <trkpt lat="43.87202" lon="5.13866">
        <ele>157.569</ele>
        <time>2019-04-28T14:23:37Z</time>
      </trkpt>
      <trkpt lat="43.87187" lon="5.13815">
        <ele>156.95</ele>
        <time>2019-04-28T14:23:43Z</time>
      </trkpt>
      <trkpt lat="43.87174" lon="5.13765">
        <ele>156.025</ele>
        <time>2019-04-28T14:23:49Z</time>
      </trkpt>
      <trkpt lat="43.87169" lon="5.13718">
        <ele>156.83</ele>
        <time>2019-04-28T14:23:55Z</time>
      </trkpt>
      <trkpt lat="43.87166" lon="5.1368">
        <ele>154.804</ele>
        <time>2019-04-28T14:24:00Z</time>
      </trkpt>
      <trkpt lat="43.87158" lon="5.13637">
        <ele>153.975</ele>
        <time>2019-04-28T14:24:06Z</time>
      </trkpt>
      <trkpt lat="43.87153" lon="5.136">
        <ele>153.108</ele>
        <time>2019-04-28T14:24:11Z</time>
      </trkpt>
      <trkpt lat="43.87148" lon="5.13548">
        <ele>153.219</ele>
        <time>2019-04-28T14:24:17Z</time>
      </trkpt>
      <trkpt lat="43.87145" lon="5.1351">
        <ele>152.376</ele>
        <time>2019-04-28T14:24:22Z</time>
      </trkpt>
      <trkpt lat="43.87141" lon="5.13475">
        <ele>151.577</ele>
        <time>2019-04-28T14:24:27Z</time>
      </trkpt>
      <trkpt lat="43.87131" lon="5.13418">
        <ele>151.549</ele>
        <time>2019-04-28T14:24:35Z</time>
      </trkpt>
      <trkpt lat="43.87123" lon="5.13377">
        <ele>149.343</ele>
        <time>2019-04-28T14:24:41Z</time>
      </trkpt>
      <trkpt lat="43.87117" lon="5.13342">
        <ele>149.881</ele>
        <time>2019-04-28T14:24:46Z</time>
      </trkpt>
      <trkpt lat="43.8711" lon="5.13303">
        <ele>150.249</ele>
        <time>2019-04-28T14:24:52Z</time>
      </trkpt>
      <trkpt lat="43.87104" lon="5.13268">
        <ele>150.023</ele>
        <time>2019-04-28T14:24:57Z</time>
      </trkpt>
      <trkpt lat="43.87098" lon="5.13226">
        <ele>149.951</ele>
        <time>2019-04-28T14:25:03Z</time>
      </trkpt>
      <trkpt lat="43.87087" lon="5.13194">
        <ele>149.474</ele>
        <time>2019-04-28T14:25:08Z</time>
      </trkpt>
      <trkpt lat="43.87073" lon="5.13159">
        <ele>150.559</ele>
        <time>2019-04-28T14:25:14Z</time>
      </trkpt>
      <trkpt lat="43.87059" lon="5.13126">
        <ele>150.953</ele>
        <time>2019-04-28T14:25:19Z</time>
      </trkpt>
      <trkpt lat="43.87047" lon="5.13085">
        <ele>151.038</ele>
        <time>2019-04-28T14:25:25Z</time>
      </trkpt>
      <trkpt lat="43.87039" lon="5.13046">
        <ele>151.021</ele>
        <time>2019-04-28T14:25:30Z</time>
      </trkpt>
      <trkpt lat="43.87033" lon="5.13004">
        <ele>149.342</ele>
        <time>2019-04-28T14:25:35Z</time>
      </trkpt>
      <trkpt lat="43.87025" lon="5.12963">
        <ele>147.788</ele>
        <time>2019-04-28T14:25:40Z</time>
      </trkpt>
      <trkpt lat="43.87018" lon="5.12922">
        <ele>146.485</ele>
        <time>2019-04-28T14:25:46Z</time>
      </trkpt>
      <trkpt lat="43.87011" lon="5.12873">
        <ele>145.547</ele>
        <time>2019-04-28T14:25:51Z</time>
      </trkpt>
      <trkpt lat="43.87005" lon="5.12834">
        <ele>145.345</ele>
        <time>2019-04-28T14:25:56Z</time>
      </trkpt>
      <trkpt lat="43.86997" lon="5.12784">
        <ele>145.008</ele>
        <time>2019-04-28T14:26:02Z</time>
      </trkpt>
      <trkpt lat="43.86988" lon="5.12743">
        <ele>144.22</ele>
        <time>2019-04-28T14:26:07Z</time>
      </trkpt>
      <trkpt lat="43.86981" lon="5.12697">
        <ele>144.474</ele>
        <time>2019-04-28T14:26:13Z</time>
      </trkpt>
      <trkpt lat="43.86977" lon="5.12655">
        <ele>144.276</ele>
        <time>2019-04-28T14:26:18Z</time>
      </trkpt>
      <trkpt lat="43.86973" lon="5.12605">
        <ele>143.912</ele>
        <time>2019-04-28T14:26:24Z</time>
      </trkpt>
      <trkpt lat="43.86965" lon="5.12561">
        <ele>142.827</ele>
        <time>2019-04-28T14:26:30Z</time>
      </trkpt>
      <trkpt lat="43.86946" lon="5.12516">
        <ele>142.32</ele>
        <time>2019-04-28T14:26:37Z</time>
      </trkpt>
      <trkpt lat="43.86933" lon="5.12484">
        <ele>141.54</ele>
        <time>2019-04-28T14:26:43Z</time>
      </trkpt>
      <trkpt lat="43.86907" lon="5.12481">
        <ele>141.825</ele>
        <time>2019-04-28T14:26:49Z</time>
      </trkpt>
      <trkpt lat="43.86883" lon="5.12479">
        <ele>141.532</ele>
        <time>2019-04-28T14:26:54Z</time>
      </trkpt>
      <trkpt lat="43.86863" lon="5.12453">
        <ele>141.451</ele>
        <time>2019-04-28T14:26:59Z</time>
      </trkpt>
      <trkpt lat="43.8685" lon="5.12412">
        <ele>141.466</ele>
        <time>2019-04-28T14:27:05Z</time>
      </trkpt>
      <trkpt lat="43.86839" lon="5.12372">
        <ele>141.323</ele>
        <time>2019-04-28T14:27:11Z</time>
      </trkpt>
      <trkpt lat="43.86828" lon="5.12327">
        <ele>141.515</ele>
        <time>2019-04-28T14:27:17Z</time>
      </trkpt>
      <trkpt lat="43.86819" lon="5.12289">
        <ele>140.247</ele>
        <time>2019-04-28T14:27:22Z</time>
      </trkpt>
      <trkpt lat="43.86809" lon="5.12242">
        <ele>140.043</ele>
        <time>2019-04-28T14:27:28Z</time>
      </trkpt>
      <trkpt lat="43.86797" lon="5.12206">
        <ele>139.523</ele>
        <time>2019-04-28T14:27:34Z</time>
      </trkpt>
      <trkpt lat="43.86784" lon="5.12158">
        <ele>139.944</ele>
        <time>2019-04-28T14:27:40Z</time>
      </trkpt>
      <trkpt lat="43.86777" lon="5.12125">
        <ele>139.974</ele>
        <time>2019-04-28T14:27:45Z</time>
      </trkpt>
      <trkpt lat="43.86762" lon="5.12077">
        <ele>139.545</ele>
        <time>2019-04-28T14:27:51Z</time>
      </trkpt>
      <trkpt lat="43.8675" lon="5.1204">
        <ele>139.848</ele>
        <time>2019-04-28T14:27:56Z</time>
      </trkpt>
      <trkpt lat="43.86741" lon="5.12005">
        <ele>139.909</ele>
        <time>2019-04-28T14:28:01Z</time>
      </trkpt>
      <trkpt lat="43.86731" lon="5.11969">
        <ele>140.041</ele>
        <time>2019-04-28T14:28:07Z</time>
      </trkpt>
      <trkpt lat="43.86723" lon="5.11942">
        <ele>140.09</ele>
        <time>2019-04-28T14:28:12Z</time>
      </trkpt>
      <trkpt lat="43.86712" lon="5.11907">
        <ele>140.736</ele>
        <time>2019-04-28T14:28:18Z</time>
      </trkpt>
      <trkpt lat="43.86699" lon="5.11872">
        <ele>141.06</ele>
        <time>2019-04-28T14:28:24Z</time>
      </trkpt>
      <trkpt lat="43.86689" lon="5.11841">
        <ele>141.055</ele>
        <time>2019-04-28T14:28:29Z</time>
      </trkpt>
      <trkpt lat="43.86676" lon="5.11807">
        <ele>141.015</ele>
        <time>2019-04-28T14:28:35Z</time>
      </trkpt>
      <trkpt lat="43.86665" lon="5.1177">
        <ele>141.358</ele>
        <time>2019-04-28T14:28:41Z</time>
      </trkpt>
      <trkpt lat="43.86654" lon="5.11738">
        <ele>141.56</ele>
        <time>2019-04-28T14:28:46Z</time>
      </trkpt>
      <trkpt lat="43.86642" lon="5.11702">
        <ele>141.766</ele>
        <time>2019-04-28T14:28:52Z</time>
      </trkpt>
      <trkpt lat="43.8663" lon="5.11671">
        <ele>141.763</ele>
        <time>2019-04-28T14:28:57Z</time>
      </trkpt>
      <trkpt lat="43.86615" lon="5.11633">
        <ele>141.663</ele>
        <time>2019-04-28T14:29:03Z</time>
      </trkpt>
      <trkpt lat="43.86604" lon="5.11602">
        <ele>141.334</ele>
        <time>2019-04-28T14:29:08Z</time>
      </trkpt>
      <trkpt lat="43.86593" lon="5.1157">
        <ele>141.351</ele>
        <time>2019-04-28T14:29:13Z</time>
      </trkpt>
      <trkpt lat="43.86579" lon="5.11531">
        <ele>141.321</ele>
        <time>2019-04-28T14:29:19Z</time>
      </trkpt>
      <trkpt lat="43.86566" lon="5.11493">
        <ele>141.581</ele>
        <time>2019-04-28T14:29:25Z</time>
      </trkpt>
      <trkpt lat="43.86556" lon="5.11461">
        <ele>141.833</ele>
        <time>2019-04-28T14:29:30Z</time>
      </trkpt>
      <trkpt lat="43.86544" lon="5.11424">
        <ele>141.977</ele>
        <time>2019-04-28T14:29:36Z</time>
      </trkpt>
      <trkpt lat="43.86533" lon="5.11388">
        <ele>142.015</ele>
        <time>2019-04-28T14:29:42Z</time>
      </trkpt>
      <trkpt lat="43.86523" lon="5.11354">
        <ele>142.014</ele>
        <time>2019-04-28T14:29:48Z</time>
      </trkpt>
      <trkpt lat="43.86513" lon="5.11323">
        <ele>141.889</ele>
        <time>2019-04-28T14:29:54Z</time>
      </trkpt>
      <trkpt lat="43.86505" lon="5.11292">
        <ele>141.622</ele>
        <time>2019-04-28T14:29:59Z</time>
      </trkpt>
      <trkpt lat="43.86494" lon="5.11259">
        <ele>141.445</ele>
        <time>2019-04-28T14:30:05Z</time>
      </trkpt>
      <trkpt lat="43.86485" lon="5.11232">
        <ele>141.471</ele>
        <time>2019-04-28T14:30:11Z</time>
      </trkpt>
      <trkpt lat="43.86476" lon="5.11205">
        <ele>141.541</ele>
        <time>2019-04-28T14:30:17Z</time>
      </trkpt>
      <trkpt lat="43.86469" lon="5.11184">
        <ele>141.58</ele>
        <time>2019-04-28T14:30:22Z</time>
      </trkpt>
      <trkpt lat="43.86456" lon="5.11153">
        <ele>142.257</ele>
        <time>2019-04-28T14:30:28Z</time>
      </trkpt>
      <trkpt lat="43.86444" lon="5.11113">
        <ele>142.277</ele>
        <time>2019-04-28T14:30:34Z</time>
      </trkpt>
      <trkpt lat="43.86431" lon="5.11067">
        <ele>142.102</ele>
        <time>2019-04-28T14:30:40Z</time>
      </trkpt>
      <trkpt lat="43.8642" lon="5.11034">
        <ele>141.846</ele>
        <time>2019-04-28T14:30:45Z</time>
      </trkpt>
      <trkpt lat="43.86411" lon="5.11002">
        <ele>141.837</ele>
        <time>2019-04-28T14:30:50Z</time>
      </trkpt>
      <trkpt lat="43.86403" lon="5.10969">
        <ele>141.838</ele>
        <time>2019-04-28T14:30:55Z</time>
      </trkpt>
      <trkpt lat="43.86394" lon="5.10931">
        <ele>141.538</ele>
        <time>2019-04-28T14:31:00Z</time>
      </trkpt>
      <trkpt lat="43.86384" lon="5.10884">
        <ele>141.212</ele>
        <time>2019-04-28T14:31:06Z</time>
      </trkpt>
      <trkpt lat="43.86372" lon="5.10839">
        <ele>140.377</ele>
        <time>2019-04-28T14:31:12Z</time>
      </trkpt>
      <trkpt lat="43.86366" lon="5.10798">
        <ele>139.62</ele>
        <time>2019-04-28T14:31:17Z</time>
      </trkpt>
      <trkpt lat="43.86357" lon="5.10755">
        <ele>138.421</ele>
        <time>2019-04-28T14:31:23Z</time>
      </trkpt>
      <trkpt lat="43.86347" lon="5.10715">
        <ele>137.336</ele>
        <time>2019-04-28T14:31:29Z</time>
      </trkpt>
      <trkpt lat="43.8634" lon="5.10681">
        <ele>138.184</ele>
        <time>2019-04-28T14:31:34Z</time>
      </trkpt>
      <trkpt lat="43.86328" lon="5.10643">
        <ele>137.737</ele>
        <time>2019-04-28T14:31:40Z</time>
      </trkpt>
      <trkpt lat="43.86319" lon="5.10612">
        <ele>138.062</ele>
        <time>2019-04-28T14:31:45Z</time>
      </trkpt>
      <trkpt lat="43.86308" lon="5.10577">
        <ele>137.803</ele>
        <time>2019-04-28T14:31:51Z</time>
      </trkpt>
      <trkpt lat="43.86292" lon="5.10534">
        <ele>136.948</ele>
        <time>2019-04-28T14:31:57Z</time>
      </trkpt>
      <trkpt lat="43.86283" lon="5.10492">
        <ele>134.354</ele>
        <time>2019-04-28T14:32:03Z</time>
      </trkpt>
      <trkpt lat="43.86271" lon="5.10449">
        <ele>134.294</ele>
        <time>2019-04-28T14:32:09Z</time>
      </trkpt>
      <trkpt lat="43.86261" lon="5.10406">
        <ele>133.828</ele>
        <time>2019-04-28T14:32:15Z</time>
      </trkpt>
      <trkpt lat="43.86252" lon="5.1037">
        <ele>133.679</ele>
        <time>2019-04-28T14:32:20Z</time>
      </trkpt>
      <trkpt lat="43.86248" lon="5.10338">
        <ele>133.801</ele>
        <time>2019-04-28T14:32:25Z</time>
      </trkpt>
      <trkpt lat="43.8627" lon="5.10326">
        <ele>133.35</ele>
        <time>2019-04-28T14:32:31Z</time>
      </trkpt>
      <trkpt lat="43.8627" lon="5.10325">
        <ele>133.403</ele>
        <time>2019-04-28T14:32:36Z</time>
      </trkpt>
      <trkpt lat="43.8627" lon="5.10325">
        <ele>133.436</ele>
        <time>2019-04-28T14:32:41Z</time>
      </trkpt>
      <trkpt lat="43.8627" lon="5.10325">
        <ele>133.389</ele>
        <time>2019-04-28T14:32:47Z</time>
      </trkpt>
      <trkpt lat="43.8627" lon="5.10325">
        <ele>133.301</ele>
        <time>2019-04-28T14:32:53Z</time>
      </trkpt>
      <trkpt lat="43.8627" lon="5.10325">
        <ele>133.253</ele>
        <time>2019-04-28T14:32:59Z</time>
      </trkpt>
      <trkpt lat="43.86278" lon="5.10322">
        <ele>133.195</ele>
        <time>2019-04-28T14:33:10Z</time>
      </trkpt>
      <trkpt lat="43.86317" lon="5.10307">
        <ele>132.192</ele>
        <time>2019-04-28T14:33:20Z</time>
      </trkpt>
      <trkpt lat="43.8636" lon="5.10291">
        <ele>133.135</ele>
        <time>2019-04-28T14:33:30Z</time>
      </trkpt>
      <trkpt lat="43.86408" lon="5.10275">
        <ele>133.697</ele>
        <time>2019-04-28T14:33:41Z</time>
      </trkpt>
      <trkpt lat="43.86452" lon="5.10258">
        <ele>133.978</ele>
        <time>2019-04-28T14:33:51Z</time>
      </trkpt>
      <trkpt lat="43.86503" lon="5.10235">
        <ele>134.206</ele>
        <time>2019-04-28T14:34:02Z</time>
      </trkpt>
      <trkpt lat="43.86547" lon="5.10217">
        <ele>134.795</ele>
        <time>2019-04-28T14:34:12Z</time>
      </trkpt>
      <trkpt lat="43.86591" lon="5.10206">
        <ele>135.261</ele>
        <time>2019-04-28T14:34:22Z</time>
      </trkpt>
      <trkpt lat="43.86605" lon="5.10222">
        <ele>135.246</ele>
        <time>2019-04-28T14:34:33Z</time>
      </trkpt>
      <trkpt lat="43.86605" lon="5.10222">
        <ele>135.246</ele>
        <time>2019-04-28T14:34:44Z</time>
      </trkpt>
      <trkpt lat="43.86605" lon="5.10222">
        <ele>135.258</ele>
        <time>2019-04-28T14:34:55Z</time>
      </trkpt>
      <trkpt lat="43.86598" lon="5.10231">
        <ele>133.468</ele>
        <time>2019-04-28T14:35:06Z</time>
      </trkpt>
      <trkpt lat="43.86619" lon="5.10282">
        <ele>135.449</ele>
        <time>2019-04-28T14:35:17Z</time>
      </trkpt>
      <trkpt lat="43.86646" lon="5.10286">
        <ele>133.824</ele>
        <time>2019-04-28T14:35:28Z</time>
      </trkpt>
      <trkpt lat="43.86667" lon="5.10301">
        <ele>134.098</ele>
        <time>2019-04-28T14:35:39Z</time>
      </trkpt>
      <trkpt lat="43.86674" lon="5.10339">
        <ele>135.129</ele>
        <time>2019-04-28T14:35:49Z</time>
      </trkpt>
      <trkpt lat="43.86666" lon="5.10378">
        <ele>135.705</ele>
        <time>2019-04-28T14:36:01Z</time>
      </trkpt>
      <trkpt lat="43.86651" lon="5.10413">
        <ele>136.398</ele>
        <time>2019-04-28T14:36:11Z</time>
      </trkpt>
      <trkpt lat="43.86635" lon="5.10408">
        <ele>136.591</ele>
        <time>2019-04-28T14:36:21Z</time>
      </trkpt>
      <trkpt lat="43.86627" lon="5.10395">
        <ele>136.757</ele>
        <time>2019-04-28T14:36:32Z</time>
      </trkpt>
      <trkpt lat="43.86627" lon="5.10395">
        <ele>136.797</ele>
        <time>2019-04-28T14:36:43Z</time>
      </trkpt>
      <trkpt lat="43.86626" lon="5.10389">
        <ele>136.92</ele>
        <time>2019-04-28T14:36:53Z</time>
      </trkpt>
      <trkpt lat="43.86626" lon="5.10389">
        <ele>137.053</ele>
        <time>2019-04-28T14:37:04Z</time>
      </trkpt>
      <trkpt lat="43.86626" lon="5.10389">
        <ele>137.133</ele>
        <time>2019-04-28T14:37:14Z</time>
      </trkpt>
      <trkpt lat="43.86626" lon="5.10389">
        <ele>137.23</ele>
        <time>2019-04-28T14:37:25Z</time>
      </trkpt>
      <trkpt lat="43.86626" lon="5.10389">
        <ele>137.345</ele>
        <time>2019-04-28T14:37:35Z</time>
      </trkpt>
      <trkpt lat="43.86626" lon="5.10389">
        <ele>137.481</ele>
        <time>2019-04-28T14:37:46Z</time>
      </trkpt>
      <trkpt lat="43.86626" lon="5.10389">
        <ele>137.603</ele>
        <time>2019-04-28T14:37:56Z</time>
      </trkpt>
      <trkpt lat="43.86626" lon="5.10389">
        <ele>137.73</ele>
        <time>2019-04-28T14:38:07Z</time>
      </trkpt>
      <trkpt lat="43.86626" lon="5.10389">
        <ele>137.847</ele>
        <time>2019-04-28T14:38:17Z</time>
      </trkpt>
      <trkpt lat="43.86626" lon="5.10389">
        <ele>137.979</ele>
        <time>2019-04-28T14:38:28Z</time>
      </trkpt>
      <trkpt lat="43.86626" lon="5.10389">
        <ele>138.097</ele>
        <time>2019-04-28T14:38:39Z</time>
      </trkpt>
      <trkpt lat="43.86626" lon="5.10389">
        <ele>138.187</ele>
        <time>2019-04-28T14:38:49Z</time>
      </trkpt>
      <trkpt lat="43.86626" lon="5.10389">
        <ele>138.271</ele>
        <time>2019-04-28T14:39:00Z</time>
      </trkpt>
      <trkpt lat="43.86626" lon="5.10389">
        <ele>138.34</ele>
        <time>2019-04-28T14:39:10Z</time>
      </trkpt>
      <trkpt lat="43.86626" lon="5.10389">
        <ele>138.41</ele>
        <time>2019-04-28T14:39:21Z</time>
      </trkpt>
      <trkpt lat="43.86626" lon="5.10389">
        <ele>138.472</ele>
        <time>2019-04-28T14:39:32Z</time>
      </trkpt>
      <trkpt lat="43.86626" lon="5.10389">
        <ele>138.56</ele>
        <time>2019-04-28T14:39:43Z</time>
      </trkpt>
      <trkpt lat="43.86626" lon="5.10389">
        <ele>138.592</ele>
        <time>2019-04-28T14:39:54Z</time>
      </trkpt>
      <trkpt lat="43.86626" lon="5.10389">
        <ele>138.632</ele>
        <time>2019-04-28T14:40:05Z</time>
      </trkpt>
      <trkpt lat="43.86626" lon="5.10389">
        <ele>138.658</ele>
        <time>2019-04-28T14:40:15Z</time>
      </trkpt>
      <trkpt lat="43.86626" lon="5.10389">
        <ele>138.687</ele>
        <time>2019-04-28T14:40:25Z</time>
      </trkpt>
      <trkpt lat="43.86626" lon="5.10389">
        <ele>138.718</ele>
        <time>2019-04-28T14:40:36Z</time>
      </trkpt>
      <trkpt lat="43.86628" lon="5.1039">
        <ele>138.729</ele>
        <time>2019-04-28T14:40:47Z</time>
      </trkpt>
      <trkpt lat="43.86628" lon="5.1039">
        <ele>138.713</ele>
        <time>2019-04-28T14:40:57Z</time>
      </trkpt>
      <trkpt lat="43.86628" lon="5.1039">
        <ele>138.692</ele>
        <time>2019-04-28T14:41:08Z</time>
      </trkpt>
      <trkpt lat="43.86628" lon="5.10389">
        <ele>138.662</ele>
        <time>2019-04-28T14:41:19Z</time>
      </trkpt>
      <trkpt lat="43.86627" lon="5.10389">
        <ele>138.637</ele>
        <time>2019-04-28T14:41:29Z</time>
      </trkpt>
      <trkpt lat="43.86627" lon="5.10389">
        <ele>138.623</ele>
        <time>2019-04-28T14:41:39Z</time>
      </trkpt>
      <trkpt lat="43.86627" lon="5.10389">
        <ele>138.611</ele>
        <time>2019-04-28T14:41:50Z</time>
      </trkpt>
      <trkpt lat="43.86627" lon="5.10389">
        <ele>138.602</ele>
        <time>2019-04-28T14:42:00Z</time>
      </trkpt>
      <trkpt lat="43.86627" lon="5.10388">
        <ele>138.591</ele>
        <time>2019-04-28T14:42:11Z</time>
      </trkpt>
      <trkpt lat="43.86627" lon="5.10388">
        <ele>138.593</ele>
        <time>2019-04-28T14:42:21Z</time>
      </trkpt>
      <trkpt lat="43.86627" lon="5.10388">
        <ele>138.588</ele>
        <time>2019-04-28T14:42:32Z</time>
      </trkpt>
      <trkpt lat="43.86627" lon="5.10388">
        <ele>138.568</ele>
        <time>2019-04-28T14:42:42Z</time>
      </trkpt>
      <trkpt lat="43.86627" lon="5.10389">
        <ele>138.527</ele>
        <time>2019-04-28T14:42:53Z</time>
      </trkpt>
      <trkpt lat="43.86627" lon="5.10388">
        <ele>138.566</ele>
        <time>2019-04-28T14:43:04Z</time>
      </trkpt>
      <trkpt lat="43.86628" lon="5.1039">
        <ele>138.539</ele>
        <time>2019-04-28T14:43:14Z</time>
      </trkpt>
      <trkpt lat="43.86628" lon="5.10391">
        <ele>138.5</ele>
        <time>2019-04-28T14:43:24Z</time>
      </trkpt>
      <trkpt lat="43.8663" lon="5.10388">
        <ele>138.37</ele>
        <time>2019-04-28T14:43:34Z</time>
      </trkpt>
      <trkpt lat="43.86638" lon="5.10368">
        <ele>138.153</ele>
        <time>2019-04-28T14:43:45Z</time>
      </trkpt>
      <trkpt lat="43.86655" lon="5.10366">
        <ele>137.284</ele>
        <time>2019-04-28T14:43:55Z</time>
      </trkpt>
      <trkpt lat="43.86677" lon="5.10375">
        <ele>136.743</ele>
        <time>2019-04-28T14:44:06Z</time>
      </trkpt>
      <trkpt lat="43.86687" lon="5.1035">
        <ele>136.036</ele>
        <time>2019-04-28T14:44:16Z</time>
      </trkpt>
      <trkpt lat="43.86678" lon="5.1032">
        <ele>135.204</ele>
        <time>2019-04-28T14:44:27Z</time>
      </trkpt>
      <trkpt lat="43.86672" lon="5.10302">
        <ele>134.502</ele>
        <time>2019-04-28T14:44:37Z</time>
      </trkpt>
      <trkpt lat="43.86667" lon="5.10319">
        <ele>134.096</ele>
        <time>2019-04-28T14:44:47Z</time>
      </trkpt>
      <trkpt lat="43.86663" lon="5.10325">
        <ele>134.238</ele>
        <time>2019-04-28T14:44:58Z</time>
      </trkpt>
      <trkpt lat="43.86663" lon="5.10332">
        <ele>134.36</ele>
        <time>2019-04-28T14:45:08Z</time>
      </trkpt>
      <trkpt lat="43.86662" lon="5.10333">
        <ele>134.546</ele>
        <time>2019-04-28T14:45:19Z</time>
      </trkpt>
      <trkpt lat="43.86661" lon="5.10331">
        <ele>134.832</ele>
        <time>2019-04-28T14:45:30Z</time>
      </trkpt>
      <trkpt lat="43.86661" lon="5.1033">
        <ele>135.266</ele>
        <time>2019-04-28T14:45:41Z</time>
      </trkpt>
      <trkpt lat="43.86661" lon="5.10329">
        <ele>135.675</ele>
        <time>2019-04-28T14:45:52Z</time>
      </trkpt>
      <trkpt lat="43.86661" lon="5.1033">
        <ele>135.976</ele>
        <time>2019-04-28T14:46:02Z</time>
      </trkpt>
      <trkpt lat="43.86661" lon="5.1033">
        <ele>136.131</ele>
        <time>2019-04-28T14:46:13Z</time>
      </trkpt>
      <trkpt lat="43.86661" lon="5.1033">
        <ele>136.088</ele>
        <time>2019-04-28T14:46:24Z</time>
      </trkpt>
      <trkpt lat="43.86662" lon="5.1033">
        <ele>136.053</ele>
        <time>2019-04-28T14:46:34Z</time>
      </trkpt>
      <trkpt lat="43.86662" lon="5.1033">
        <ele>136.05</ele>
        <time>2019-04-28T14:46:45Z</time>
      </trkpt>
      <trkpt lat="43.86662" lon="5.10329">
        <ele>136.096</ele>
        <time>2019-04-28T14:46:55Z</time>
      </trkpt>
      <trkpt lat="43.86663" lon="5.10328">
        <ele>136.146</ele>
        <time>2019-04-28T14:47:06Z</time>
      </trkpt>
      <trkpt lat="43.86663" lon="5.10327">
        <ele>136.173</ele>
        <time>2019-04-28T14:47:17Z</time>
      </trkpt>
      <trkpt lat="43.86663" lon="5.10327">
        <ele>136.119</ele>
        <time>2019-04-28T14:47:27Z</time>
      </trkpt>
      <trkpt lat="43.86663" lon="5.10327">
        <ele>136.125</ele>
        <time>2019-04-28T14:47:38Z</time>
      </trkpt>
      <trkpt lat="43.86663" lon="5.10324">
        <ele>136.366</ele>
        <time>2019-04-28T14:47:49Z</time>
      </trkpt>
      <trkpt lat="43.86663" lon="5.10323">
        <ele>136.626</ele>
        <time>2019-04-28T14:48:00Z</time>
      </trkpt>
      <trkpt lat="43.86663" lon="5.10322">
        <ele>136.831</ele>
        <time>2019-04-28T14:48:11Z</time>
      </trkpt>
      <trkpt lat="43.86662" lon="5.10322">
        <ele>136.982</ele>
        <time>2019-04-28T14:48:21Z</time>
      </trkpt>
      <trkpt lat="43.86662" lon="5.10322">
        <ele>137.116</ele>
        <time>2019-04-28T14:48:32Z</time>
      </trkpt>
      <trkpt lat="43.86662" lon="5.10322">
        <ele>137.237</ele>
        <time>2019-04-28T14:48:43Z</time>
      </trkpt>
      <trkpt lat="43.86662" lon="5.10322">
        <ele>137.346</ele>
        <time>2019-04-28T14:48:54Z</time>
      </trkpt>
      <trkpt lat="43.86661" lon="5.10322">
        <ele>137.439</ele>
        <time>2019-04-28T14:49:05Z</time>
      </trkpt>
      <trkpt lat="43.86661" lon="5.10322">
        <ele>137.51</ele>
        <time>2019-04-28T14:49:15Z</time>
      </trkpt>
      <trkpt lat="43.86661" lon="5.10322">
        <ele>137.566</ele>
        <time>2019-04-28T14:49:26Z</time>
      </trkpt>
      <trkpt lat="43.86661" lon="5.10323">
        <ele>137.608</ele>
        <time>2019-04-28T14:49:36Z</time>
      </trkpt>
      <trkpt lat="43.8666" lon="5.10323">
        <ele>137.65</ele>
        <time>2019-04-28T14:49:46Z</time>
      </trkpt>
      <trkpt lat="43.8666" lon="5.10323">
        <ele>137.701</ele>
        <time>2019-04-28T14:49:57Z</time>
      </trkpt>
      <trkpt lat="43.8666" lon="5.10323">
        <ele>137.759</ele>
        <time>2019-04-28T14:50:07Z</time>
      </trkpt>
      <trkpt lat="43.86659" lon="5.10329">
        <ele>137.943</ele>
        <time>2019-04-28T14:50:18Z</time>
      </trkpt>
      <trkpt lat="43.86659" lon="5.1033">
        <ele>137.894</ele>
        <time>2019-04-28T14:50:28Z</time>
      </trkpt>
      <trkpt lat="43.86659" lon="5.10333">
        <ele>137.776</ele>
        <time>2019-04-28T14:50:38Z</time>
      </trkpt>
      <trkpt lat="43.8666" lon="5.10336">
        <ele>137.656</ele>
        <time>2019-04-28T14:50:49Z</time>
      </trkpt>
      <trkpt lat="43.8666" lon="5.10337">
        <ele>137.497</ele>
        <time>2019-04-28T14:51:00Z</time>
      </trkpt>
      <trkpt lat="43.8666" lon="5.10338">
        <ele>137.357</ele>
        <time>2019-04-28T14:51:11Z</time>
      </trkpt>
      <trkpt lat="43.8666" lon="5.10339">
        <ele>137.246</ele>
        <time>2019-04-28T14:51:22Z</time>
      </trkpt>
      <trkpt lat="43.86661" lon="5.10338">
        <ele>137.179</ele>
        <time>2019-04-28T14:51:32Z</time>
      </trkpt>
      <trkpt lat="43.86661" lon="5.10338">
        <ele>137.139</ele>
        <time>2019-04-28T14:51:42Z</time>
      </trkpt>
      <trkpt lat="43.86661" lon="5.10337">
        <ele>137.133</ele>
        <time>2019-04-28T14:51:53Z</time>
      </trkpt>
      <trkpt lat="43.86662" lon="5.10337">
        <ele>137.138</ele>
        <time>2019-04-28T14:52:03Z</time>
      </trkpt>
      <trkpt lat="43.86662" lon="5.10336">
        <ele>137.16</ele>
        <time>2019-04-28T14:52:13Z</time>
      </trkpt>
      <trkpt lat="43.86662" lon="5.10336">
        <ele>137.192</ele>
        <time>2019-04-28T14:52:24Z</time>
      </trkpt>
      <trkpt lat="43.86662" lon="5.10336">
        <ele>137.219</ele>
        <time>2019-04-28T14:52:35Z</time>
      </trkpt>
      <trkpt lat="43.86667" lon="5.10336">
        <ele>137.842</ele>
        <time>2019-04-28T14:52:46Z</time>
      </trkpt>
      <trkpt lat="43.86667" lon="5.10336">
        <ele>138.101</ele>
        <time>2019-04-28T14:52:57Z</time>
      </trkpt>
      <trkpt lat="43.86664" lon="5.10332">
        <ele>138.911</ele>
        <time>2019-04-28T14:53:08Z</time>
      </trkpt>
      <trkpt lat="43.86665" lon="5.10331">
        <ele>138.789</ele>
        <time>2019-04-28T14:53:18Z</time>
      </trkpt>
      <trkpt lat="43.86664" lon="5.10332">
        <ele>138.592</ele>
        <time>2019-04-28T14:53:29Z</time>
      </trkpt>
      <trkpt lat="43.86664" lon="5.10333">
        <ele>137.619</ele>
        <time>2019-04-28T14:53:40Z</time>
      </trkpt>
      <trkpt lat="43.86665" lon="5.10331">
        <ele>136.148</ele>
        <time>2019-04-28T14:53:50Z</time>
      </trkpt>
      <trkpt lat="43.86657" lon="5.10334">
        <ele>134.067</ele>
        <time>2019-04-28T14:54:01Z</time>
      </trkpt>
      <trkpt lat="43.86657" lon="5.10332">
        <ele>133.765</ele>
        <time>2019-04-28T14:54:12Z</time>
      </trkpt>
      <trkpt lat="43.86662" lon="5.10337">
        <ele>133.363</ele>
        <time>2019-04-28T14:54:23Z</time>
      </trkpt>
      <trkpt lat="43.86662" lon="5.10335">
        <ele>133.3</ele>
        <time>2019-04-28T14:54:34Z</time>
      </trkpt>
      <trkpt lat="43.86662" lon="5.10335">
        <ele>133.17</ele>
        <time>2019-04-28T14:54:45Z</time>
      </trkpt>
      <trkpt lat="43.86663" lon="5.10336">
        <ele>133.046</ele>
        <time>2019-04-28T14:54:56Z</time>
      </trkpt>
      <trkpt lat="43.86663" lon="5.10336">
        <ele>132.97</ele>
        <time>2019-04-28T14:55:06Z</time>
      </trkpt>
      <trkpt lat="43.86662" lon="5.10336">
        <ele>132.882</ele>
        <time>2019-04-28T14:55:17Z</time>
      </trkpt>
      <trkpt lat="43.86663" lon="5.10336">
        <ele>132.716</ele>
        <time>2019-04-28T14:55:28Z</time>
      </trkpt>
      <trkpt lat="43.86659" lon="5.10335">
        <ele>132.331</ele>
        <time>2019-04-28T14:55:38Z</time>
      </trkpt>
      <trkpt lat="43.86659" lon="5.10333">
        <ele>132.197</ele>
        <time>2019-04-28T14:55:48Z</time>
      </trkpt>
      <trkpt lat="43.86658" lon="5.10324">
        <ele>131.675</ele>
        <time>2019-04-28T14:55:59Z</time>
      </trkpt>
      <trkpt lat="43.8666" lon="5.10328">
        <ele>130.624</ele>
        <time>2019-04-28T14:56:10Z</time>
      </trkpt>
      <trkpt lat="43.86662" lon="5.10331">
        <ele>130.24</ele>
        <time>2019-04-28T14:56:20Z</time>
      </trkpt>
      <trkpt lat="43.86662" lon="5.10332">
        <ele>130.279</ele>
        <time>2019-04-28T14:56:31Z</time>
      </trkpt>
      <trkpt lat="43.86662" lon="5.10333">
        <ele>130.316</ele>
        <time>2019-04-28T14:56:42Z</time>
      </trkpt>
      <trkpt lat="43.86662" lon="5.10332">
        <ele>130.311</ele>
        <time>2019-04-28T14:56:53Z</time>
      </trkpt>
      <trkpt lat="43.86662" lon="5.10332">
        <ele>130.3</ele>
        <time>2019-04-28T14:57:03Z</time>
      </trkpt>
      <trkpt lat="43.86662" lon="5.10331">
        <ele>130.273</ele>
        <time>2019-04-28T14:57:14Z</time>
      </trkpt>
      <trkpt lat="43.86659" lon="5.10331">
        <ele>130.194</ele>
        <time>2019-04-28T14:57:24Z</time>
      </trkpt>
      <trkpt lat="43.86658" lon="5.1033">
        <ele>130.283</ele>
        <time>2019-04-28T14:57:34Z</time>
      </trkpt>
      <trkpt lat="43.86658" lon="5.10328">
        <ele>130.179</ele>
        <time>2019-04-28T14:57:45Z</time>
      </trkpt>
      <trkpt lat="43.8666" lon="5.10329">
        <ele>128.933</ele>
        <time>2019-04-28T14:57:56Z</time>
      </trkpt>
      <trkpt lat="43.86662" lon="5.10328">
        <ele>128.623</ele>
        <time>2019-04-28T14:58:07Z</time>
      </trkpt>
      <trkpt lat="43.86663" lon="5.10333">
        <ele>129.858</ele>
        <time>2019-04-28T14:58:18Z</time>
      </trkpt>
      <trkpt lat="43.86664" lon="5.10335">
        <ele>130.66</ele>
        <time>2019-04-28T14:58:28Z</time>
      </trkpt>
      <trkpt lat="43.86661" lon="5.10332">
        <ele>132.914</ele>
        <time>2019-04-28T14:58:39Z</time>
      </trkpt>
      <trkpt lat="43.8666" lon="5.10331">
        <ele>133.309</ele>
        <time>2019-04-28T14:58:49Z</time>
      </trkpt>
      <trkpt lat="43.86661" lon="5.1033">
        <ele>133.249</ele>
        <time>2019-04-28T14:59:00Z</time>
      </trkpt>
      <trkpt lat="43.86664" lon="5.10336">
        <ele>133.391</ele>
        <time>2019-04-28T14:59:10Z</time>
      </trkpt>
      <trkpt lat="43.86663" lon="5.10333">
        <ele>133.679</ele>
        <time>2019-04-28T14:59:21Z</time>
      </trkpt>
      <trkpt lat="43.86665" lon="5.10333">
        <ele>133.616</ele>
        <time>2019-04-28T14:59:32Z</time>
      </trkpt>
      <trkpt lat="43.86663" lon="5.10332">
        <ele>133.444</ele>
        <time>2019-04-28T14:59:42Z</time>
      </trkpt>
      <trkpt lat="43.86666" lon="5.10336">
        <ele>134.494</ele>
        <time>2019-04-28T14:59:53Z</time>
      </trkpt>
      <trkpt lat="43.86665" lon="5.10335">
        <ele>134.88</ele>
        <time>2019-04-28T15:00:04Z</time>
      </trkpt>
      <trkpt lat="43.86664" lon="5.10333">
        <ele>136.147</ele>
        <time>2019-04-28T15:00:14Z</time>
      </trkpt>
      <trkpt lat="43.86664" lon="5.10331">
        <ele>136.128</ele>
        <time>2019-04-28T15:00:24Z</time>
      </trkpt>
      <trkpt lat="43.86663" lon="5.10332">
        <ele>135.756</ele>
        <time>2019-04-28T15:00:35Z</time>
      </trkpt>
      <trkpt lat="43.86662" lon="5.10333">
        <ele>135.576</ele>
        <time>2019-04-28T15:00:46Z</time>
      </trkpt>
      <trkpt lat="43.86661" lon="5.10333">
        <ele>135.397</ele>
        <time>2019-04-28T15:00:57Z</time>
      </trkpt>
      <trkpt lat="43.86657" lon="5.10332">
        <ele>134.743</ele>
        <time>2019-04-28T15:01:07Z</time>
      </trkpt>
      <trkpt lat="43.86657" lon="5.10331">
        <ele>133.352</ele>
        <time>2019-04-28T15:01:18Z</time>
      </trkpt>
      <trkpt lat="43.86656" lon="5.10334">
        <ele>133.221</ele>
        <time>2019-04-28T15:01:29Z</time>
      </trkpt>
      <trkpt lat="43.86661" lon="5.10334">
        <ele>133.985</ele>
        <time>2019-04-28T15:01:40Z</time>
      </trkpt>
      <trkpt lat="43.86661" lon="5.10333">
        <ele>134.125</ele>
        <time>2019-04-28T15:01:50Z</time>
      </trkpt>
      <trkpt lat="43.86662" lon="5.10332">
        <ele>134.29</ele>
        <time>2019-04-28T15:02:00Z</time>
      </trkpt>
      <trkpt lat="43.86663" lon="5.10332">
        <ele>134.396</ele>
        <time>2019-04-28T15:02:11Z</time>
      </trkpt>
      <trkpt lat="43.86663" lon="5.10335">
        <ele>134.594</ele>
        <time>2019-04-28T15:02:21Z</time>
      </trkpt>
      <trkpt lat="43.86662" lon="5.10338">
        <ele>134.919</ele>
        <time>2019-04-28T15:02:31Z</time>
      </trkpt>
      <trkpt lat="43.86663" lon="5.1033">
        <ele>134.873</ele>
        <time>2019-04-28T15:02:42Z</time>
      </trkpt>
      <trkpt lat="43.86663" lon="5.10329">
        <ele>134.708</ele>
        <time>2019-04-28T15:02:53Z</time>
      </trkpt>
      <trkpt lat="43.8666" lon="5.10327">
        <ele>134.333</ele>
        <time>2019-04-28T15:03:04Z</time>
      </trkpt>
      <trkpt lat="43.8666" lon="5.10326">
        <ele>134.238</ele>
        <time>2019-04-28T15:03:14Z</time>
      </trkpt>
      <trkpt lat="43.86661" lon="5.10327">
        <ele>133.608</ele>
        <time>2019-04-28T15:03:25Z</time>
      </trkpt>
    </trkseg>
  </trk>
</gpx>